Wetterdaten: Freitag, 12.04.2019
Datum Zeit Temp. A. Pool Temp. Temp. 5cm Feuchte A. Luftdruck Regen Wind Richtung Richtung Sonnenschein ET UV Solar Taupunkt Windchill Windben Empfang
12.04.2019 00:00 5,8 C 0,0 C 5,0 C 67 % 1018,2 hPa 0,0 l/m 17,0 km/h (3 Bft) N-NO 28 0 min 0,000 mm 0,0 UV-I 0 W/m 0,2 C -0,9 C 20,9 km/h (4 Bft) 100,00 %
12.04.2019 00:02 5,8 C 0,0 C 5,0 C 66 % 1018,2 hPa 0,0 l/m 13,5 km/h (3 Bft) NO 38 0 min 0,000 mm 0,0 UV-I 0 W/m -0,0 C 0,8 C 17,7 km/h (3 Bft) 97,50 %
12.04.2019 00:04 5,8 C 0,0 C 5,0 C 66 % 1018,2 hPa 0,0 l/m 10,7 km/h (2 Bft) NO 42 0 min 0,000 mm 0,0 UV-I 0 W/m -0,0 C 2,5 C 16,1 km/h (3 Bft) 100,00 %
12.04.2019 00:06 5,8 C 0,0 C 5,0 C 66 % 1018,2 hPa 0,0 l/m 12,7 km/h (3 Bft) N-NO 32 0 min 0,000 mm 0,0 UV-I 0 W/m -0,0 C 1,3 C 16,1 km/h (3 Bft) 97,87 %
12.04.2019 00:08 5,8 C 0,0 C 5,0 C 67 % 1018,3 hPa 0,0 l/m 12,3 km/h (3 Bft) N-NO 32 0 min 0,000 mm 0,0 UV-I 0 W/m 0,2 C 1,5 C 19,3 km/h (3 Bft) 100,00 %
12.04.2019 00:10 5,7 C 0,0 C 5,0 C 67 % 1018,3 hPa 0,0 l/m 10,2 km/h (2 Bft) N-NO 32 0 min 0,000 mm 0,0 UV-I 0 W/m 0,1 C 2,7 C 16,1 km/h (3 Bft) 100,00 %
12.04.2019 00:12 5,7 C 0,0 C 5,0 C 66 % 1018,3 hPa 0,0 l/m 10,0 km/h (2 Bft) NO 42 0 min 0,000 mm 0,0 UV-I 0 W/m -0,1 C 2,8 C 14,5 km/h (3 Bft) 98,00 %
12.04.2019 00:14 5,7 C 0,0 C 5,0 C 67 % 1018,3 hPa 0,0 l/m 8,7 km/h (2 Bft) NO 51 0 min 0,000 mm 0,0 UV-I 0 W/m 0,1 C 3,8 C 14,5 km/h (3 Bft) 100,00 %
12.04.2019 00:16 5,7 C 0,0 C 5,0 C 68 % 1018,3 hPa 0,0 l/m 8,8 km/h (2 Bft) NO 34 0 min 0,000 mm 0,0 UV-I 0 W/m 0,3 C 3,7 C 11,3 km/h (2 Bft) 100,00 %
12.04.2019 00:18 5,6 C 0,0 C 5,0 C 68 % 1018,2 hPa 0,0 l/m 8,4 km/h (2 Bft) NO 47 0 min 0,000 mm 0,0 UV-I 0 W/m 0,2 C 3,9 C 12,9 km/h (3 Bft) 95,74 %
12.04.2019 00:20 5,6 C 0,0 C 5,0 C 66 % 1018,3 hPa 0,0 l/m 10,6 km/h (2 Bft) NO 41 0 min 0,000 mm 0,0 UV-I 0 W/m -0,2 C 2,3 C 14,5 km/h (3 Bft) 100,00 %
12.04.2019 00:22 5,7 C 0,0 C 5,0 C 66 % 1018,3 hPa 0,0 l/m 12,2 km/h (2 Bft) NO 41 0 min 0,000 mm 0,0 UV-I 0 W/m -0,1 C 1,4 C 17,7 km/h (3 Bft) 95,83 %
12.04.2019 00:24 5,7 C 0,0 C 5,0 C 66 % 1018,3 hPa 0,0 l/m 10,8 km/h (2 Bft) O-NO 57 0 min 0,000 mm 0,0 UV-I 0 W/m -0,1 C 2,3 C 16,1 km/h (3 Bft) 97,87 %
12.04.2019 00:26 5,7 C 0,0 C 5,0 C 66 % 1018,3 hPa 0,0 l/m 13,9 km/h (3 Bft) NO 37 0 min 0,000 mm 0,0 UV-I 0 W/m -0,1 C 0,5 C 17,7 km/h (3 Bft) 96,15 %
12.04.2019 00:28 5,7 C 0,0 C 5,0 C 65 % 1018,3 hPa 0,0 l/m 9,8 km/h (2 Bft) N-NO 28 0 min 0,000 mm 0,0 UV-I 0 W/m -0,4 C 3,0 C 17,7 km/h (3 Bft) 95,83 %
12.04.2019 00:30 5,7 C 0,0 C 5,0 C 65 % 1018,3 hPa 0,0 l/m 11,0 km/h (2 Bft) O-NO 74 0 min 0,000 mm 0,0 UV-I 0 W/m -0,4 C 2,2 C 16,1 km/h (3 Bft) 97,87 %
12.04.2019 00:32 5,7 C 0,0 C 5,0 C 65 % 1018,3 hPa 0,0 l/m 10,6 km/h (2 Bft) NO 37 0 min 0,000 mm 0,0 UV-I 0 W/m -0,4 C 2,4 C 16,1 km/h (3 Bft) 95,74 %
12.04.2019 00:34 5,7 C 0,0 C 5,0 C 65 % 1018,3 hPa 0,0 l/m 10,7 km/h (2 Bft) N-NO 25 0 min 0,000 mm 0,0 UV-I 0 W/m -0,4 C 2,4 C 17,7 km/h (3 Bft) 95,74 %
12.04.2019 00:36 5,7 C 0,0 C 5,0 C 65 % 1018,3 hPa 0,0 l/m 13,5 km/h (3 Bft) NO 42 0 min 0,000 mm 0,0 UV-I 0 W/m -0,4 C 0,7 C 17,7 km/h (3 Bft) 97,87 %
12.04.2019 00:38 5,7 C 0,0 C 5,0 C 64 % 1018,3 hPa 0,0 l/m 11,4 km/h (2 Bft) NO 35 0 min 0,000 mm 0,0 UV-I 0 W/m -0,6 C 1,9 C 20,9 km/h (4 Bft) 97,87 %
12.04.2019 00:40 5,7 C 0,0 C 5,0 C 65 % 1018,3 hPa 0,0 l/m 10,7 km/h (2 Bft) NO 39 0 min 0,000 mm 0,0 UV-I 0 W/m -0,4 C 2,4 C 16,1 km/h (3 Bft) 97,14 %
12.04.2019 00:42 5,7 C 0,0 C 5,0 C 65 % 1018,2 hPa 0,0 l/m 10,2 km/h (2 Bft) N-NO 27 0 min 0,000 mm 0,0 UV-I 0 W/m -0,4 C 2,7 C 16,1 km/h (3 Bft) 97,87 %
12.04.2019 00:44 5,7 C 0,0 C 5,0 C 65 % 1018,3 hPa 0,0 l/m 9,2 km/h (2 Bft) NO 40 0 min 0,000 mm 0,0 UV-I 0 W/m -0,4 C 3,4 C 11,3 km/h (2 Bft) 97,87 %
12.04.2019 00:46 5,6 C 0,0 C 5,0 C 65 % 1018,3 hPa 0,0 l/m 10,1 km/h (2 Bft) NO 45 0 min 0,000 mm 0,0 UV-I 0 W/m -0,4 C 2,7 C 16,1 km/h (3 Bft) 97,87 %
12.04.2019 00:48 5,6 C 0,0 C 5,0 C 65 % 1018,3 hPa 0,0 l/m 9,6 km/h (2 Bft) O-NO 63 0 min 0,000 mm 0,0 UV-I 0 W/m -0,4 C 3,0 C 11,3 km/h (2 Bft) 94,00 %
12.04.2019 00:50 5,6 C 0,0 C 5,0 C 65 % 1018,3 hPa 0,0 l/m 10,5 km/h (2 Bft) NO 50 0 min 0,000 mm 0,0 UV-I 0 W/m -0,4 C 2,4 C 16,1 km/h (3 Bft) 95,74 %
12.04.2019 00:52 5,6 C 0,0 C 5,0 C 65 % 1018,3 hPa 0,0 l/m 10,5 km/h (2 Bft) O-NO 63 0 min 0,000 mm 0,0 UV-I 0 W/m -0,4 C 2,4 C 14,5 km/h (3 Bft) 98,00 %
12.04.2019 00:54 5,6 C 0,0 C 5,0 C 65 % 1018,3 hPa 0,0 l/m 8,9 km/h (2 Bft) O-NO 62 0 min 0,000 mm 0,0 UV-I 0 W/m -0,4 C 3,5 C 14,5 km/h (3 Bft) 97,87 %
12.04.2019 00:56 5,6 C 0,0 C 5,0 C 64 % 1018,3 hPa 0,0 l/m 8,5 km/h (2 Bft) NO 51 0 min 0,000 mm 0,0 UV-I 0 W/m -0,7 C 3,8 C 12,9 km/h (3 Bft) 95,74 %
12.04.2019 00:58 5,6 C 0,0 C 5,0 C 65 % 1018,3 hPa 0,0 l/m 8,0 km/h (2 Bft) NO 45 0 min 0,000 mm 0,0 UV-I 0 W/m -0,4 C 4,2 C 11,3 km/h (2 Bft) 94,00 %
12.04.2019 01:00 5,6 C 0,0 C 5,0 C 65 % 1018,3 hPa 0,0 l/m 9,3 km/h (2 Bft) NO 43 0 min 0,025 mm 0,0 UV-I 0 W/m -0,4 C 3,2 C 16,1 km/h (3 Bft) 93,62 %
12.04.2019 01:02 5,6 C 0,0 C 5,0 C 66 % 1018,3 hPa 0,0 l/m 8,8 km/h (2 Bft) O-NO 71 0 min 0,000 mm 0,0 UV-I 0 W/m -0,2 C 3,6 C 14,5 km/h (3 Bft) 95,74 %
12.04.2019 01:04 5,5 C 0,0 C 5,0 C 66 % 1018,3 hPa 0,0 l/m 9,0 km/h (2 Bft) NO 42 0 min 0,000 mm 0,0 UV-I 0 W/m -0,3 C 3,3 C 12,9 km/h (3 Bft) 97,22 %
12.04.2019 01:06 5,5 C 0,0 C 5,0 C 66 % 1018,3 hPa 0,0 l/m 7,7 km/h (2 Bft) O 85 0 min 0,000 mm 0,0 UV-I 0 W/m -0,3 C 4,4 C 14,5 km/h (3 Bft) 96,00 %
12.04.2019 01:08 5,6 C 0,0 C 5,0 C 65 % 1018,3 hPa 0,0 l/m 6,2 km/h (2 Bft) O-NO 61 0 min 0,000 mm 0,0 UV-I 0 W/m -0,4 C 5,6 C 9,7 km/h (2 Bft) 96,00 %
12.04.2019 01:10 5,5 C 0,0 C 5,0 C 66 % 1018,3 hPa 0,0 l/m 8,0 km/h (2 Bft) NO 42 0 min 0,000 mm 0,0 UV-I 0 W/m -0,3 C 4,1 C 14,5 km/h (3 Bft) 98,00 %
12.04.2019 01:12 5,5 C 0,0 C 5,0 C 66 % 1018,3 hPa 0,0 l/m 8,7 km/h (2 Bft) O-NO 63 0 min 0,000 mm 0,0 UV-I 0 W/m -0,3 C 3,6 C 12,9 km/h (3 Bft) 97,87 %
12.04.2019 01:14 5,5 C 0,0 C 4,4 C 66 % 1018,3 hPa 0,0 l/m 7,3 km/h (2 Bft) NO 54 0 min 0,000 mm 0,0 UV-I 0 W/m -0,3 C 4,7 C 12,9 km/h (3 Bft) 97,87 %
12.04.2019 01:16 5,4 C 0,0 C 4,4 C 67 % 1018,3 hPa 0,0 l/m 7,2 km/h (2 Bft) NO 46 0 min 0,000 mm 0,0 UV-I 0 W/m -0,2 C 4,7 C 11,3 km/h (2 Bft) 97,37 %
12.04.2019 01:18 5,4 C 0,0 C 4,4 C 66 % 1018,3 hPa 0,0 l/m 7,8 km/h (2 Bft) NO 40 0 min 0,000 mm 0,0 UV-I 0 W/m -0,4 C 4,2 C 9,7 km/h (2 Bft) 95,74 %
12.04.2019 01:20 5,4 C 0,0 C 4,4 C 67 % 1018,4 hPa 0,0 l/m 7,7 km/h (2 Bft) NO 41 0 min 0,000 mm 0,0 UV-I 0 W/m -0,2 C 4,3 C 14,5 km/h (3 Bft) 97,87 %
12.04.2019 01:22 5,4 C 0,0 C 4,4 C 67 % 1018,3 hPa 0,0 l/m 8,4 km/h (2 Bft) O-NO 67 0 min 0,000 mm 0,0 UV-I 0 W/m -0,2 C 3,7 C 11,3 km/h (2 Bft) 100,00 %
12.04.2019 01:24 5,3 C 0,0 C 4,4 C 67 % 1018,3 hPa 0,0 l/m 8,8 km/h (2 Bft) NO 53 0 min 0,000 mm 0,0 UV-I 0 W/m -0,3 C 3,3 C 14,5 km/h (3 Bft) 97,87 %
12.04.2019 01:26 5,3 C 0,0 C 4,4 C 67 % 1018,4 hPa 0,0 l/m 9,5 km/h (2 Bft) O-NO 60 0 min 0,000 mm 0,0 UV-I 0 W/m -0,3 C 2,8 C 14,5 km/h (3 Bft) 100,00 %
12.04.2019 01:28 5,3 C 0,0 C 4,4 C 67 % 1018,4 hPa 0,0 l/m 7,6 km/h (2 Bft) NO 55 0 min 0,000 mm 0,0 UV-I 0 W/m -0,3 C 4,3 C 11,3 km/h (2 Bft) 100,00 %
12.04.2019 01:30 5,3 C 0,0 C 4,4 C 67 % 1018,4 hPa 0,0 l/m 8,0 km/h (2 Bft) O-NO 57 0 min 0,000 mm 0,0 UV-I 0 W/m -0,3 C 3,9 C 12,9 km/h (3 Bft) 100,00 %
12.04.2019 01:32 5,3 C 0,0 C 4,4 C 67 % 1018,4 hPa 0,0 l/m 8,1 km/h (2 Bft) O-NO 73 0 min 0,000 mm 0,0 UV-I 0 W/m -0,3 C 3,8 C 12,9 km/h (3 Bft) 100,00 %
12.04.2019 01:34 5,3 C 0,0 C 4,4 C 67 % 1018,4 hPa 0,0 l/m 8,9 km/h (2 Bft) NO 45 0 min 0,000 mm 0,0 UV-I 0 W/m -0,3 C 3,2 C 14,5 km/h (3 Bft) 100,00 %
12.04.2019 01:36 5,3 C 0,0 C 4,4 C 67 % 1018,4 hPa 0,0 l/m 10,8 km/h (2 Bft) NO 55 0 min 0,000 mm 0,0 UV-I 0 W/m -0,3 C 1,9 C 14,5 km/h (3 Bft) 100,00 %
12.04.2019 01:38 5,3 C 0,0 C 5,0 C 67 % 1018,4 hPa 0,0 l/m 10,3 km/h (2 Bft) O-NO 61 0 min 0,000 mm 0,0 UV-I 0 W/m -0,3 C 2,2 C 14,5 km/h (3 Bft) 98,00 %
12.04.2019 01:40 5,3 C 0,0 C 5,0 C 67 % 1018,4 hPa 0,0 l/m 7,5 km/h (2 Bft) O-NO 64 0 min 0,000 mm 0,0 UV-I 0 W/m -0,3 C 4,3 C 12,9 km/h (3 Bft) 100,00 %
12.04.2019 01:42 5,3 C 0,0 C 4,4 C 67 % 1018,4 hPa 0,0 l/m 9,7 km/h (2 Bft) NO 51 0 min 0,000 mm 0,0 UV-I 0 W/m -0,3 C 2,6 C 14,5 km/h (3 Bft) 97,92 %
12.04.2019 01:44 5,3 C 0,0 C 4,4 C 67 % 1018,4 hPa 0,0 l/m 9,5 km/h (2 Bft) NO 35 0 min 0,000 mm 0,0 UV-I 0 W/m -0,3 C 2,8 C 14,5 km/h (3 Bft) 95,74 %
12.04.2019 01:46 5,3 C 0,0 C 5,0 C 67 % 1018,4 hPa 0,0 l/m 10,3 km/h (2 Bft) O 80 0 min 0,000 mm 0,0 UV-I 0 W/m -0,3 C 2,2 C 14,5 km/h (3 Bft) 97,87 %
12.04.2019 01:48 5,3 C 0,0 C 4,4 C 67 % 1018,4 hPa 0,0 l/m 8,1 km/h (2 Bft) NO 42 0 min 0,000 mm 0,0 UV-I 0 W/m -0,3 C 3,8 C 12,9 km/h (3 Bft) 100,00 %
12.04.2019 01:50 5,3 C 0,0 C 4,4 C 67 % 1018,4 hPa 0,0 l/m 8,2 km/h (2 Bft) NO 51 0 min 0,000 mm 0,0 UV-I 0 W/m -0,3 C 3,8 C 14,5 km/h (3 Bft) 100,00 %
12.04.2019 01:52 5,2 C 0,0 C 4,4 C 68 % 1018,4 hPa 0,0 l/m 7,4 km/h (2 Bft) O-NO 60 0 min 0,000 mm 0,0 UV-I 0 W/m -0,2 C 4,3 C 11,3 km/h (2 Bft) 100,00 %
12.04.2019 01:54 5,2 C 0,0 C 4,4 C 68 % 1018,4 hPa 0,0 l/m 7,8 km/h (2 Bft) O-NO 61 0 min 0,000 mm 0,0 UV-I 0 W/m -0,2 C 4,0 C 12,9 km/h (3 Bft) 100,00 %
12.04.2019 01:56 5,2 C 0,0 C 4,4 C 68 % 1018,4 hPa 0,0 l/m 9,4 km/h (2 Bft) O-NO 71 0 min 0,000 mm 0,0 UV-I 0 W/m -0,2 C 2,7 C 12,9 km/h (3 Bft) 100,00 %
12.04.2019 01:58 5,2 C 0,0 C 4,4 C 68 % 1018,4 hPa 0,0 l/m 10,2 km/h (2 Bft) NO 52 0 min 0,000 mm 0,0 UV-I 0 W/m -0,2 C 2,2 C 16,1 km/h (3 Bft) 97,37 %
12.04.2019 02:00 5,2 C 0,0 C 4,4 C 67 % 1018,4 hPa 0,0 l/m 8,7 km/h (2 Bft) NO 35 0 min 0,026 mm 0,0 UV-I 0 W/m -0,4 C 3,3 C 11,3 km/h (2 Bft) 100,00 %
12.04.2019 02:02 5,2 C 0,0 C 4,4 C 67 % 1018,4 hPa 0,0 l/m 11,2 km/h (2 Bft) O-NO 59 0 min 0,000 mm 0,0 UV-I 0 W/m -0,4 C 1,5 C 14,5 km/h (3 Bft) 95,74 %
12.04.2019 02:04 5,2 C 0,0 C 4,4 C 67 % 1018,4 hPa 0,0 l/m 10,5 km/h (2 Bft) NO 44 0 min 0,000 mm 0,0 UV-I 0 W/m -0,4 C 1,9 C 16,1 km/h (3 Bft) 98,00 %
12.04.2019 02:06 5,2 C 0,0 C 4,4 C 67 % 1018,4 hPa 0,0 l/m 9,3 km/h (2 Bft) NO 55 0 min 0,000 mm 0,0 UV-I 0 W/m -0,4 C 2,8 C 12,9 km/h (3 Bft) 97,37 %
12.04.2019 02:08 5,2 C 0,0 C 4,4 C 67 % 1018,4 hPa 0,0 l/m 9,5 km/h (2 Bft) NO 44 0 min 0,000 mm 0,0 UV-I 0 W/m -0,4 C 2,7 C 14,5 km/h (3 Bft) 97,87 %
12.04.2019 02:10 5,2 C 0,0 C 4,4 C 68 % 1018,4 hPa 0,0 l/m 8,8 km/h (2 Bft) N-NO 32 0 min 0,000 mm 0,0 UV-I 0 W/m -0,2 C 3,2 C 14,5 km/h (3 Bft) 97,87 %
12.04.2019 02:12 5,2 C 0,0 C 4,4 C 67 % 1018,4 hPa 0,0 l/m 9,7 km/h (2 Bft) O-NO 65 0 min 0,000 mm 0,0 UV-I 0 W/m -0,4 C 2,5 C 16,1 km/h (3 Bft) 98,00 %
12.04.2019 02:14 5,1 C 0,0 C 4,4 C 67 % 1018,4 hPa 0,0 l/m 10,2 km/h (2 Bft) NO 54 0 min 0,000 mm 0,0 UV-I 0 W/m -0,5 C 2,0 C 14,5 km/h (3 Bft) 97,87 %
12.04.2019 02:16 5,1 C 0,0 C 4,4 C 67 % 1018,4 hPa 0,0 l/m 9,8 km/h (2 Bft) O-NO 64 0 min 0,000 mm 0,0 UV-I 0 W/m -0,5 C 2,3 C 16,1 km/h (3 Bft) 95,83 %
12.04.2019 02:18 5,1 C 0,0 C 4,4 C 67 % 1018,4 hPa 0,0 l/m 11,3 km/h (2 Bft) O-NO 70 0 min 0,000 mm 0,0 UV-I 0 W/m -0,5 C 1,3 C 16,1 km/h (3 Bft) 92,00 %
12.04.2019 02:20 5,1 C 0,0 C 4,4 C 67 % 1018,5 hPa 0,0 l/m 12,5 km/h (3 Bft) NO 38 0 min 0,000 mm 0,0 UV-I 0 W/m -0,5 C 0,6 C 19,3 km/h (3 Bft) 97,87 %
12.04.2019 02:22 5,1 C 0,0 C 4,4 C 66 % 1018,5 hPa 0,0 l/m 13,1 km/h (3 Bft) O-NO 60 0 min 0,000 mm 0,0 UV-I 0 W/m -0,7 C 0,2 C 17,7 km/h (3 Bft) 95,74 %
12.04.2019 02:24 5,1 C 0,0 C 4,4 C 66 % 1018,4 hPa 0,0 l/m 12,3 km/h (3 Bft) N-NO 30 0 min 0,000 mm 0,0 UV-I 0 W/m -0,7 C 0,7 C 17,7 km/h (3 Bft) 95,74 %
12.04.2019 02:26 5,1 C 0,0 C 4,4 C 66 % 1018,5 hPa 0,0 l/m 9,2 km/h (2 Bft) NO 54 0 min 0,000 mm 0,0 UV-I 0 W/m -0,7 C 2,8 C 16,1 km/h (3 Bft) 94,87 %
12.04.2019 02:28 5,1 C 0,0 C 4,4 C 66 % 1018,5 hPa 0,0 l/m 12,1 km/h (2 Bft) NO 39 0 min 0,000 mm 0,0 UV-I 0 W/m -0,7 C 0,8 C 17,7 km/h (3 Bft) 95,92 %
12.04.2019 02:30 5,0 C 0,0 C 4,4 C 66 % 1018,5 hPa 0,0 l/m 12,7 km/h (3 Bft) NO 47 0 min 0,000 mm 0,0 UV-I 0 W/m -0,8 C 0,3 C 17,7 km/h (3 Bft) 93,62 %
12.04.2019 02:32 5,0 C 0,0 C 4,4 C 67 % 1018,5 hPa 0,0 l/m 10,3 km/h (2 Bft) O-NO 57 0 min 0,000 mm 0,0 UV-I 0 W/m -0,6 C 1,9 C 16,1 km/h (3 Bft) 94,00 %
12.04.2019 02:34 5,0 C 0,0 C 4,4 C 67 % 1018,5 hPa 0,0 l/m 12,9 km/h (3 Bft) O-NO 60 0 min 0,000 mm 0,0 UV-I 0 W/m -0,6 C 0,2 C 17,7 km/h (3 Bft) 94,00 %
12.04.2019 02:36 4,9 C 0,0 C 4,4 C 66 % 1018,5 hPa 0,0 l/m 8,7 km/h (2 Bft) NO 53 0 min 0,000 mm 0,0 UV-I 0 W/m -0,9 C 2,9 C 14,5 km/h (3 Bft) 88,89 %
12.04.2019 02:38 4,9 C 0,0 C 4,4 C 67 % 1018,5 hPa 0,0 l/m 9,3 km/h (2 Bft) O-NO 60 0 min 0,000 mm 0,0 UV-I 0 W/m -0,7 C 2,5 C 14,5 km/h (3 Bft) 93,88 %
12.04.2019 02:40 4,9 C 0,0 C 4,4 C 67 % 1018,5 hPa 0,0 l/m 9,1 km/h (2 Bft) O-NO 57 0 min 0,000 mm 0,0 UV-I 0 W/m -0,7 C 2,6 C 12,9 km/h (3 Bft) 94,00 %
12.04.2019 02:42 4,9 C 0,0 C 4,4 C 67 % 1018,5 hPa 0,0 l/m 9,1 km/h (2 Bft) NO 40 0 min 0,000 mm 0,0 UV-I 0 W/m -0,7 C 2,6 C 12,9 km/h (3 Bft) 96,00 %
12.04.2019 02:44 4,8 C 0,0 C 4,4 C 67 % 1018,5 hPa 0,0 l/m 11,1 km/h (2 Bft) N-NO 24 0 min 0,000 mm 0,0 UV-I 0 W/m -0,8 C 1,1 C 16,1 km/h (3 Bft) 92,00 %
12.04.2019 02:46 4,8 C 0,0 C 4,4 C 67 % 1018,5 hPa 0,0 l/m 11,2 km/h (2 Bft) NO 49 0 min 0,000 mm 0,0 UV-I 0 W/m -0,8 C 1,0 C 17,7 km/h (3 Bft) 94,29 %
12.04.2019 02:48 4,8 C 0,0 C 4,4 C 67 % 1018,5 hPa 0,0 l/m 13,4 km/h (3 Bft) NO 40 0 min 0,000 mm 0,0 UV-I 0 W/m -0,8 C -0,3 C 20,9 km/h (4 Bft) 95,74 %
12.04.2019 02:50 4,8 C 0,0 C 4,4 C 67 % 1018,5 hPa 0,0 l/m 7,9 km/h (2 Bft) NO 40 0 min 0,000 mm 0,0 UV-I 0 W/m -0,8 C 3,5 C 9,7 km/h (2 Bft) 93,62 %
12.04.2019 02:52 4,7 C 0,0 C 3,9 C 69 % 1018,5 hPa 0,0 l/m 8,9 km/h (2 Bft) NO 46 0 min 0,000 mm 0,0 UV-I 0 W/m -0,5 C 2,6 C 11,3 km/h (2 Bft) 95,83 %
12.04.2019 02:54 4,7 C 0,0 C 3,9 C 69 % 1018,5 hPa 0,0 l/m 7,9 km/h (2 Bft) N-NO 28 0 min 0,000 mm 0,0 UV-I 0 W/m -0,5 C 3,4 C 9,7 km/h (2 Bft) 94,00 %
12.04.2019 02:56 4,6 C 0,0 C 3,9 C 70 % 1018,5 hPa 0,0 l/m 4,8 km/h (1 Bft) N-NO 17 0 min 0,000 mm 0,0 UV-I 0 W/m -0,4 C 4,6 C 9,7 km/h (2 Bft) 96,15 %
12.04.2019 02:58 4,6 C 0,0 C 3,9 C 70 % 1018,5 hPa 0,0 l/m 7,7 km/h (2 Bft) N 360 0 min 0,000 mm 0,0 UV-I 0 W/m -0,4 C 3,4 C 12,9 km/h (3 Bft) 91,49 %
12.04.2019 03:00 4,5 C 0,0 C 3,9 C 71 % 1018,5 hPa 0,0 l/m 7,1 km/h (2 Bft) N-NO 22 0 min 0,025 mm 0,0 UV-I 0 W/m -0,3 C 3,9 C 9,7 km/h (2 Bft) 93,75 %
12.04.2019 03:02 4,4 C 0,0 C 3,9 C 71 % 1018,5 hPa 0,0 l/m 9,1 km/h (2 Bft) NO 37 0 min 0,000 mm 0,0 UV-I 0 W/m -0,4 C 2,1 C 12,9 km/h (3 Bft) 97,30 %
12.04.2019 03:04 4,4 C 0,0 C 3,9 C 70 % 1018,5 hPa 0,0 l/m 9,2 km/h (2 Bft) NO 40 0 min 0,000 mm 0,0 UV-I 0 W/m -0,6 C 2,0 C 12,9 km/h (3 Bft) 93,62 %
12.04.2019 03:06 4,4 C 0,0 C 3,9 C 70 % 1018,5 hPa 0,0 l/m 9,2 km/h (2 Bft) N-NO 15 0 min 0,000 mm 0,0 UV-I 0 W/m -0,6 C 2,0 C 14,5 km/h (3 Bft) 97,87 %
12.04.2019 03:08 4,3 C 0,0 C 3,9 C 71 % 1018,5 hPa 0,0 l/m 13,4 km/h (3 Bft) NO 36 0 min 0,000 mm 0,0 UV-I 0 W/m -0,5 C -0,9 C 19,3 km/h (3 Bft) 100,00 %
12.04.2019 03:10 4,3 C 0,0 C 3,9 C 70 % 1018,6 hPa 0,0 l/m 7,7 km/h (2 Bft) N 360 0 min 0,000 mm 0,0 UV-I 0 W/m -0,7 C 3,1 C 9,7 km/h (2 Bft) 100,00 %
12.04.2019 03:12 4,3 C 0,0 C 3,9 C 71 % 1018,6 hPa 0,0 l/m 11,0 km/h (2 Bft) N-NO 21 0 min 0,000 mm 0,0 UV-I 0 W/m -0,5 C 0,6 C 14,5 km/h (3 Bft) 100,00 %
12.04.2019 03:14 4,3 C 0,0 C 3,9 C 71 % 1018,6 hPa 0,0 l/m 11,7 km/h (2 Bft) NO 49 0 min 0,000 mm 0,0 UV-I 0 W/m -0,5 C 0,1 C 17,7 km/h (3 Bft) 100,00 %
12.04.2019 03:16 4,2 C 0,0 C 3,9 C 71 % 1018,6 hPa 0,0 l/m 11,6 km/h (2 Bft) NO 37 0 min 0,000 mm 0,0 UV-I 0 W/m -0,6 C 0,1 C 19,3 km/h (3 Bft) 100,00 %
12.04.2019 03:18 4,2 C 0,0 C 3,9 C 71 % 1018,6 hPa 0,0 l/m 12,7 km/h (3 Bft) NO 34 0 min 0,000 mm 0,0 UV-I 0 W/m -0,6 C -0,6 C 17,7 km/h (3 Bft) 100,00 %
12.04.2019 03:20 4,2 C 0,0 C 3,9 C 71 % 1018,6 hPa 0,0 l/m 11,4 km/h (2 Bft) NO 40 0 min 0,000 mm 0,0 UV-I 0 W/m -0,6 C 0,2 C 16,1 km/h (3 Bft) 96,08 %
12.04.2019 03:22 4,1 C 0,0 C 3,9 C 71 % 1018,6 hPa 0,0 l/m 14,1 km/h (3 Bft) O-NO 61 0 min 0,000 mm 0,0 UV-I 0 W/m -0,7 C -1,5 C 17,7 km/h (3 Bft) 96,00 %
12.04.2019 03:24 4,1 C 0,0 C 3,9 C 71 % 1018,6 hPa 0,0 l/m 12,0 km/h (2 Bft) N-NO 25 0 min 0,000 mm 0,0 UV-I 0 W/m -0,7 C -0,3 C 17,7 km/h (3 Bft) 100,00 %
12.04.2019 03:26 4,0 C 0,0 C 3,9 C 71 % 1018,6 hPa 0,0 l/m 11,8 km/h (2 Bft) N-NO 28 0 min 0,000 mm 0,0 UV-I 0 W/m -0,8 C -0,3 C 17,7 km/h (3 Bft) 100,00 %
12.04.2019 03:28 4,0 C 0,0 C 3,3 C 71 % 1018,6 hPa 0,0 l/m 11,4 km/h (2 Bft) NO 36 0 min 0,000 mm 0,0 UV-I 0 W/m -0,8 C -0,0 C 16,1 km/h (3 Bft) 100,00 %
12.04.2019 03:30 4,0 C 0,0 C 3,3 C 72 % 1018,6 hPa 0,0 l/m 11,5 km/h (2 Bft) NO 47 0 min 0,000 mm 0,0 UV-I 0 W/m -0,6 C -0,1 C 16,1 km/h (3 Bft) 100,00 %
12.04.2019 03:32 3,9 C 0,0 C 3,3 C 72 % 1018,6 hPa 0,0 l/m 11,2 km/h (2 Bft) NO 40 0 min 0,000 mm 0,0 UV-I 0 W/m -0,7 C 0,0 C 16,1 km/h (3 Bft) 100,00 %
12.04.2019 03:34 3,9 C 0,0 C 3,3 C 72 % 1018,6 hPa 0,0 l/m 9,4 km/h (2 Bft) N 5 0 min 0,000 mm 0,0 UV-I 0 W/m -0,7 C 1,3 C 19,3 km/h (3 Bft) 98,00 %
12.04.2019 03:36 3,9 C 0,0 C 3,3 C 72 % 1018,7 hPa 0,0 l/m 11,7 km/h (2 Bft) NO 39 0 min 0,000 mm 0,0 UV-I 0 W/m -0,7 C -0,3 C 17,7 km/h (3 Bft) 100,00 %
12.04.2019 03:38 3,9 C 0,0 C 3,3 C 73 % 1018,6 hPa 0,0 l/m 12,8 km/h (3 Bft) NO 37 0 min 0,000 mm 0,0 UV-I 0 W/m -0,5 C -1,0 C 17,7 km/h (3 Bft) 95,74 %
12.04.2019 03:40 3,8 C 0,0 C 3,3 C 73 % 1018,7 hPa 0,0 l/m 12,0 km/h (2 Bft) N 9 0 min 0,000 mm 0,0 UV-I 0 W/m -0,6 C -0,6 C 16,1 km/h (3 Bft) 98,00 %
12.04.2019 03:42 3,8 C 0,0 C 3,3 C 73 % 1018,6 hPa 0,0 l/m 13,8 km/h (3 Bft) NO 44 0 min 0,000 mm 0,0 UV-I 0 W/m -0,6 C -1,7 C 19,3 km/h (3 Bft) 97,87 %
12.04.2019 03:44 3,8 C 0,0 C 3,3 C 73 % 1018,6 hPa 0,0 l/m 11,9 km/h (2 Bft) NO 36 0 min 0,000 mm 0,0 UV-I 0 W/m -0,6 C -0,6 C 16,1 km/h (3 Bft) 97,87 %
12.04.2019 03:46 3,8 C 0,0 C 3,3 C 73 % 1018,7 hPa 0,0 l/m 14,6 km/h (3 Bft) NO 38 0 min 0,000 mm 0,0 UV-I 0 W/m -0,6 C -2,2 C 17,7 km/h (3 Bft) 97,87 %
12.04.2019 03:48 3,8 C 0,0 C 3,3 C 73 % 1018,7 hPa 0,0 l/m 13,3 km/h (3 Bft) NO 42 0 min 0,000 mm 0,0 UV-I 0 W/m -0,6 C -1,4 C 16,1 km/h (3 Bft) 97,37 %
12.04.2019 03:50 3,8 C 0,0 C 3,3 C 74 % 1018,7 hPa 0,0 l/m 13,5 km/h (3 Bft) N-NO 18 0 min 0,000 mm 0,0 UV-I 0 W/m -0,4 C -1,5 C 17,7 km/h (3 Bft) 97,87 %
12.04.2019 03:52 3,7 C 0,0 C 3,3 C 74 % 1018,6 hPa 0,0 l/m 15,1 km/h (3 Bft) NO 40 0 min 0,000 mm 0,0 UV-I 0 W/m -0,5 C -2,6 C 22,5 km/h (4 Bft) 98,00 %
12.04.2019 03:54 3,7 C 0,0 C 3,3 C 74 % 1018,6 hPa 0,0 l/m 11,8 km/h (2 Bft) NO 37 0 min 0,000 mm 0,0 UV-I 0 W/m -0,5 C -0,6 C 19,3 km/h (3 Bft) 96,00 %
12.04.2019 03:56 3,7 C 0,0 C 3,3 C 74 % 1018,6 hPa 0,0 l/m 12,6 km/h (3 Bft) N-NO 32 0 min 0,000 mm 0,0 UV-I 0 W/m -0,5 C -1,1 C 19,3 km/h (3 Bft) 98,00 %
12.04.2019 03:58 3,7 C 0,0 C 3,3 C 74 % 1018,6 hPa 0,0 l/m 10,4 km/h (2 Bft) NO 38 0 min 0,000 mm 0,0 UV-I 0 W/m -0,5 C 0,3 C 14,5 km/h (3 Bft) 97,30 %
12.04.2019 04:00 3,7 C 0,0 C 3,3 C 74 % 1018,7 hPa 0,0 l/m 12,8 km/h (3 Bft) N-NO 25 0 min 0,026 mm 0,0 UV-I 0 W/m -0,5 C -1,2 C 17,7 km/h (3 Bft) 100,00 %
12.04.2019 04:05 3,6 C 0,0 C 3,3 C 74 % 1018,6 hPa 0,0 l/m 11,9 km/h (2 Bft) NO 51 0 min 0,000 mm 0,0 UV-I 0 W/m -0,6 C -0,8 C 16,1 km/h (3 Bft) 98,41 %
12.04.2019 04:06 3,6 C 0,0 C 3,3 C 74 % 1018,6 hPa 0,0 l/m 13,8 km/h (3 Bft) NO 49 0 min 0,000 mm 0,0 UV-I 0 W/m -0,6 C -2,0 C 17,7 km/h (3 Bft) 100,00 %
12.04.2019 04:08 3,6 C 0,0 C 3,3 C 75 % 1018,7 hPa 0,0 l/m 13,1 km/h (3 Bft) NO 37 0 min 0,000 mm 0,0 UV-I 0 W/m -0,4 C -1,5 C 16,1 km/h (3 Bft) 100,00 %
12.04.2019 04:10 3,6 C 0,0 C 3,3 C 75 % 1018,7 hPa 0,0 l/m 14,0 km/h (3 Bft) N-NO 32 0 min 0,000 mm 0,0 UV-I 0 W/m -0,4 C -2,1 C 17,7 km/h (3 Bft) 100,00 %
12.04.2019 04:12 3,6 C 0,0 C 3,3 C 75 % 1018,7 hPa 0,0 l/m 12,5 km/h (3 Bft) NO 35 0 min 0,000 mm 0,0 UV-I 0 W/m -0,4 C -1,2 C 16,1 km/h (3 Bft) 98,00 %
12.04.2019 04:14 3,6 C 0,0 C 3,3 C 75 % 1018,6 hPa 0,0 l/m 11,4 km/h (2 Bft) NO 38 0 min 0,000 mm 0,0 UV-I 0 W/m -0,4 C -0,5 C 16,1 km/h (3 Bft) 98,00 %
12.04.2019 04:16 3,6 C 0,0 C 3,3 C 75 % 1018,6 hPa 0,0 l/m 10,7 km/h (2 Bft) NO 51 0 min 0,000 mm 0,0 UV-I 0 W/m -0,4 C 0,0 C 14,5 km/h (3 Bft) 100,00 %
12.04.2019 04:18 3,5 C 0,0 C 3,3 C 75 % 1018,6 hPa 0,0 l/m 10,4 km/h (2 Bft) NO 34 0 min 0,000 mm 0,0 UV-I 0 W/m -0,5 C 0,1 C 14,5 km/h (3 Bft) 97,87 %
12.04.2019 04:20 3,5 C 0,0 C 3,3 C 76 % 1018,6 hPa 0,0 l/m 11,4 km/h (2 Bft) NO 54 0 min 0,000 mm 0,0 UV-I 0 W/m -0,3 C -0,6 C 17,7 km/h (3 Bft) 100,00 %
12.04.2019 04:22 3,4 C 0,0 C 3,3 C 76 % 1018,6 hPa 0,0 l/m 9,6 km/h (2 Bft) NO 38 0 min 0,000 mm 0,0 UV-I 0 W/m -0,4 C 0,6 C 14,5 km/h (3 Bft) 97,14 %
12.04.2019 04:24 3,4 C 0,0 C 3,3 C 76 % 1018,6 hPa 0,0 l/m 13,1 km/h (3 Bft) NO 51 0 min 0,000 mm 0,0 UV-I 0 W/m -0,4 C -1,8 C 19,3 km/h (3 Bft) 100,00 %
12.04.2019 04:26 3,5 C 0,0 C 3,3 C 75 % 1018,6 hPa 0,0 l/m 12,9 km/h (3 Bft) NO 34 0 min 0,000 mm 0,0 UV-I 0 W/m -0,5 C -1,5 C 19,3 km/h (3 Bft) 97,87 %
12.04.2019 04:28 3,4 C 0,0 C 3,3 C 75 % 1018,6 hPa 0,0 l/m 12,8 km/h (3 Bft) N-NO 24 0 min 0,000 mm 0,0 UV-I 0 W/m -0,6 C -1,6 C 17,7 km/h (3 Bft) 100,00 %
12.04.2019 04:30 3,4 C 0,0 C 3,3 C 75 % 1018,6 hPa 0,0 l/m 11,6 km/h (2 Bft) NO 48 0 min 0,000 mm 0,0 UV-I 0 W/m -0,6 C -0,8 C 16,1 km/h (3 Bft) 100,00 %
12.04.2019 04:32 3,4 C 0,0 C 3,3 C 75 % 1018,6 hPa 0,0 l/m 12,2 km/h (2 Bft) NO 51 0 min 0,000 mm 0,0 UV-I 0 W/m -0,6 C -1,2 C 17,7 km/h (3 Bft) 97,87 %
12.04.2019 04:34 3,5 C 0,0 C 3,3 C 74 % 1018,6 hPa 0,0 l/m 14,0 km/h (3 Bft) NO 34 0 min 0,000 mm 0,0 UV-I 0 W/m -0,7 C -2,2 C 17,7 km/h (3 Bft) 98,11 %
12.04.2019 04:36 3,4 C 0,0 C 3,3 C 74 % 1018,5 hPa 0,0 l/m 12,7 km/h (3 Bft) NO 38 0 min 0,000 mm 0,0 UV-I 0 W/m -0,8 C -1,5 C 16,1 km/h (3 Bft) 97,87 %
12.04.2019 04:38 3,4 C 0,0 C 3,3 C 74 % 1018,5 hPa 0,0 l/m 14,0 km/h (3 Bft) N-NO 18 0 min 0,000 mm 0,0 UV-I 0 W/m -0,8 C -2,3 C 17,7 km/h (3 Bft) 95,74 %
12.04.2019 04:40 3,4 C 0,0 C 3,3 C 74 % 1018,5 hPa 0,0 l/m 14,9 km/h (3 Bft) NO 38 0 min 0,000 mm 0,0 UV-I 0 W/m -0,8 C -2,8 C 17,7 km/h (3 Bft) 95,12 %
12.04.2019 04:42 3,4 C 0,0 C 3,3 C 74 % 1018,6 hPa 0,0 l/m 13,9 km/h (3 Bft) N-NO 22 0 min 0,000 mm 0,0 UV-I 0 W/m -0,8 C -2,2 C 19,3 km/h (3 Bft) 95,74 %
12.04.2019 04:44 3,4 C 0,0 C 2,8 C 74 % 1018,5 hPa 0,0 l/m 11,8 km/h (2 Bft) NO 38 0 min 0,000 mm 0,0 UV-I 0 W/m -0,8 C -1,0 C 16,1 km/h (3 Bft) 98,00 %
12.04.2019 04:46 3,4 C 0,0 C 2,8 C 74 % 1018,5 hPa 0,0 l/m 12,5 km/h (3 Bft) NO 45 0 min 0,000 mm 0,0 UV-I 0 W/m -0,8 C -1,4 C 16,1 km/h (3 Bft) 94,44 %
12.04.2019 04:48 3,3 C 0,0 C 2,8 C 74 % 1018,5 hPa 0,0 l/m 12,1 km/h (2 Bft) NO 42 0 min 0,000 mm 0,0 UV-I 0 W/m -0,9 C -1,3 C 17,7 km/h (3 Bft) 96,15 %
12.04.2019 04:50 3,3 C 0,0 C 2,8 C 74 % 1018,5 hPa 0,0 l/m 13,8 km/h (3 Bft) O-NO 57 0 min 0,000 mm 0,0 UV-I 0 W/m -0,9 C -2,3 C 17,7 km/h (3 Bft) 93,62 %
12.04.2019 04:52 3,3 C 0,0 C 2,8 C 74 % 1018,5 hPa 0,0 l/m 12,6 km/h (3 Bft) NO 34 0 min 0,000 mm 0,0 UV-I 0 W/m -0,9 C -1,6 C 17,7 km/h (3 Bft) 95,74 %
12.04.2019 04:54 3,3 C 0,0 C 2,8 C 74 % 1018,5 hPa 0,0 l/m 12,2 km/h (2 Bft) NO 42 0 min 0,000 mm 0,0 UV-I 0 W/m -0,9 C -1,3 C 17,7 km/h (3 Bft) 95,74 %
12.04.2019 04:56 3,3 C 0,0 C 2,8 C 74 % 1018,4 hPa 0,0 l/m 13,5 km/h (3 Bft) NO 45 0 min 0,000 mm 0,0 UV-I 0 W/m -0,9 C -2,1 C 19,3 km/h (3 Bft) 93,62 %
12.04.2019 04:58 3,3 C 0,0 C 2,8 C 74 % 1018,5 hPa 0,0 l/m 12,3 km/h (3 Bft) NO 46 0 min 0,000 mm 0,0 UV-I 0 W/m -0,9 C -1,4 C 16,1 km/h (3 Bft) 95,74 %
12.04.2019 05:00 3,2 C 0,0 C 2,8 C 74 % 1018,4 hPa 0,0 l/m 14,1 km/h (3 Bft) NO 38 0 min 0,025 mm 0,0 UV-I 0 W/m -1,0 C -2,6 C 19,3 km/h (3 Bft) 96,00 %
12.04.2019 05:02 3,2 C 0,0 C 2,8 C 74 % 1018,5 hPa 0,0 l/m 14,8 km/h (3 Bft) NO 40 0 min 0,000 mm 0,0 UV-I 0 W/m -1,0 C -3,0 C 19,3 km/h (3 Bft) 91,49 %
12.04.2019 05:04 3,2 C 0,0 C 2,8 C 74 % 1018,5 hPa 0,0 l/m 11,6 km/h (2 Bft) NO 48 0 min 0,000 mm 0,0 UV-I 0 W/m -1,0 C -1,1 C 16,1 km/h (3 Bft) 95,74 %
12.04.2019 05:06 3,2 C 0,0 C 2,8 C 74 % 1018,5 hPa 0,0 l/m 12,4 km/h (3 Bft) NO 39 0 min 0,000 mm 0,0 UV-I 0 W/m -1,0 C -1,6 C 16,1 km/h (3 Bft) 91,49 %
12.04.2019 05:08 3,2 C 0,0 C 2,8 C 74 % 1018,5 hPa 0,0 l/m 13,8 km/h (3 Bft) NO 34 0 min 0,000 mm 0,0 UV-I 0 W/m -1,0 C -2,4 C 17,7 km/h (3 Bft) 95,74 %
12.04.2019 05:10 3,2 C 0,0 C 2,8 C 74 % 1018,5 hPa 0,0 l/m 12,9 km/h (3 Bft) NO 41 0 min 0,000 mm 0,0 UV-I 0 W/m -1,0 C -1,9 C 19,3 km/h (3 Bft) 95,74 %
12.04.2019 05:12 3,2 C 0,0 C 2,8 C 74 % 1018,5 hPa 0,0 l/m 12,0 km/h (2 Bft) N-NO 29 0 min 0,000 mm 0,0 UV-I 0 W/m -1,0 C -1,3 C 16,1 km/h (3 Bft) 98,00 %
12.04.2019 05:14 3,2 C 0,0 C 2,8 C 74 % 1018,5 hPa 0,0 l/m 13,1 km/h (3 Bft) NO 44 0 min 0,000 mm 0,0 UV-I 0 W/m -1,0 C -2,0 C 17,7 km/h (3 Bft) 100,00 %
12.04.2019 05:16 3,1 C 0,0 C 2,8 C 74 % 1018,5 hPa 0,0 l/m 11,3 km/h (2 Bft) NO 40 0 min 0,000 mm 0,0 UV-I 0 W/m -1,1 C -1,0 C 16,1 km/h (3 Bft) 95,74 %
12.04.2019 05:18 3,1 C 0,0 C 2,8 C 74 % 1018,4 hPa 0,0 l/m 14,2 km/h (3 Bft) NO 51 0 min 0,000 mm 0,0 UV-I 0 W/m -1,1 C -2,8 C 20,9 km/h (4 Bft) 94,00 %
12.04.2019 05:20 3,1 C 0,0 C 2,8 C 74 % 1018,5 hPa 0,0 l/m 12,3 km/h (3 Bft) NO 35 0 min 0,000 mm 0,0 UV-I 0 W/m -1,1 C -1,6 C 16,1 km/h (3 Bft) 95,74 %
12.04.2019 05:22 3,1 C 0,0 C 2,8 C 74 % 1018,5 hPa 0,0 l/m 12,9 km/h (3 Bft) NO 55 0 min 0,000 mm 0,0 UV-I 0 W/m -1,1 C -2,0 C 17,7 km/h (3 Bft) 100,00 %
12.04.2019 05:24 3,1 C 0,0 C 2,8 C 74 % 1018,5 hPa 0,0 l/m 11,2 km/h (2 Bft) NO 40 0 min 0,000 mm 0,0 UV-I 0 W/m -1,1 C -0,9 C 16,1 km/h (3 Bft) 97,87 %
12.04.2019 05:26 3,1 C 0,0 C 2,8 C 74 % 1018,4 hPa 0,0 l/m 11,1 km/h (2 Bft) NO 40 0 min 0,000 mm 0,0 UV-I 0 W/m -1,1 C -0,8 C 16,1 km/h (3 Bft) 100,00 %
12.04.2019 05:28 3,1 C 0,0 C 2,8 C 74 % 1018,4 hPa 0,0 l/m 13,0 km/h (3 Bft) NO 40 0 min 0,000 mm 0,0 UV-I 0 W/m -1,1 C -2,1 C 19,3 km/h (3 Bft) 100,00 %
12.04.2019 05:30 3,1 C 0,0 C 2,8 C 74 % 1018,4 hPa 0,0 l/m 11,6 km/h (2 Bft) NO 44 0 min 0,000 mm 0,0 UV-I 0 W/m -1,1 C -1,2 C 17,7 km/h (3 Bft) 100,00 %
12.04.2019 05:32 3,1 C 0,0 C 2,8 C 74 % 1018,4 hPa 0,0 l/m 10,9 km/h (2 Bft) NO 55 0 min 0,000 mm 0,0 UV-I 0 W/m -1,1 C -0,7 C 17,7 km/h (3 Bft) 100,00 %
12.04.2019 05:34 3,1 C 0,0 C 2,8 C 73 % 1018,4 hPa 0,0 l/m 8,7 km/h (2 Bft) NO 53 0 min 0,000 mm 0,0 UV-I 0 W/m -1,3 C 1,0 C 14,5 km/h (3 Bft) 100,00 %
12.04.2019 05:36 3,1 C 0,0 C 2,8 C 73 % 1018,4 hPa 0,0 l/m 13,0 km/h (3 Bft) NO 47 0 min 0,000 mm 0,0 UV-I 0 W/m -1,3 C -2,1 C 19,3 km/h (3 Bft) 100,00 %
12.04.2019 05:38 3,0 C 0,0 C 2,8 C 73 % 1018,5 hPa 0,0 l/m 10,4 km/h (2 Bft) NO 44 0 min 0,000 mm 0,0 UV-I 0 W/m -1,4 C -0,4 C 16,1 km/h (3 Bft) 100,00 %
12.04.2019 05:40 3,0 C 0,0 C 2,8 C 73 % 1018,5 hPa 0,0 l/m 10,7 km/h (2 Bft) O 94 0 min 0,000 mm 0,0 UV-I 0 W/m -1,4 C -0,7 C 14,5 km/h (3 Bft) 100,00 %
12.04.2019 05:42 3,0 C 0,0 C 2,8 C 72 % 1018,5 hPa 0,0 l/m 11,3 km/h (2 Bft) O-NO 66 0 min 0,000 mm 0,0 UV-I 0 W/m -1,5 C -1,1 C 17,7 km/h (3 Bft) 92,50 %
12.04.2019 05:44 2,9 C 0,0 C 2,8 C 73 % 1018,5 hPa 0,0 l/m 15,5 km/h (3 Bft) NO 53 0 min 0,000 mm 0,0 UV-I 0 W/m -1,5 C -3,7 C 20,9 km/h (4 Bft) 97,96 %
12.04.2019 05:46 2,9 C 0,0 C 2,8 C 73 % 1018,5 hPa 0,0 l/m 15,5 km/h (3 Bft) O-NO 57 0 min 0,000 mm 0,0 UV-I 0 W/m -1,5 C -3,7 C 25,7 km/h (4 Bft) 94,34 %
12.04.2019 05:48 2,9 C 0,0 C 2,8 C 72 % 1018,5 hPa 0,0 l/m 13,0 km/h (3 Bft) O-NO 69 0 min 0,000 mm 0,0 UV-I 0 W/m -1,6 C -2,3 C 17,7 km/h (3 Bft) 97,14 %
12.04.2019 05:50 2,9 C 0,0 C 2,2 C 73 % 1018,5 hPa 0,0 l/m 12,8 km/h (3 Bft) NO 53 0 min 0,000 mm 0,0 UV-I 0 W/m -1,5 C -2,2 C 19,3 km/h (3 Bft) 96,00 %
12.04.2019 05:52 2,9 C 0,0 C 2,2 C 73 % 1018,4 hPa 0,0 l/m 12,1 km/h (2 Bft) NO 50 0 min 0,000 mm 0,0 UV-I 0 W/m -1,5 C -1,7 C 16,1 km/h (3 Bft) 96,36 %
12.04.2019 05:54 2,8 C 0,0 C 2,2 C 73 % 1018,5 hPa 0,0 l/m 11,3 km/h (2 Bft) NO 41 0 min 0,000 mm 0,0 UV-I 0 W/m -1,5 C -1,3 C 17,7 km/h (3 Bft) 95,74 %
12.04.2019 05:56 2,8 C 0,0 C 2,2 C 73 % 1018,5 hPa 0,0 l/m 13,6 km/h (3 Bft) NO 51 0 min 0,000 mm 0,0 UV-I 0 W/m -1,5 C -2,8 C 17,7 km/h (3 Bft) 95,74 %
12.04.2019 05:58 2,8 C 0,0 C 2,2 C 73 % 1018,5 hPa 0,0 l/m 14,8 km/h (3 Bft) NO 38 0 min 0,000 mm 0,0 UV-I 0 W/m -1,5 C -3,5 C 20,9 km/h (4 Bft) 98,00 %
12.04.2019 06:00 2,8 C 0,0 C 2,2 C 73 % 1018,5 hPa 0,0 l/m 14,9 km/h (3 Bft) NO 44 0 min 0,025 mm 0,0 UV-I 0 W/m -1,5 C -3,5 C 20,9 km/h (4 Bft) 97,22 %
12.04.2019 06:02 2,8 C 0,0 C 2,2 C 73 % 1018,5 hPa 0,0 l/m 10,2 km/h (2 Bft) NO 44 0 min 0,000 mm 0,0 UV-I 0 W/m -1,5 C -0,5 C 14,5 km/h (3 Bft) 97,96 %
12.04.2019 06:04 2,7 C 0,0 C 2,2 C 74 % 1018,6 hPa 0,0 l/m 11,8 km/h (2 Bft) O-NO 58 0 min 0,000 mm 0,0 UV-I 0 W/m -1,5 C -1,8 C 17,7 km/h (3 Bft) 97,87 %
12.04.2019 06:06 2,7 C 0,0 C 2,2 C 73 % 1018,6 hPa 0,0 l/m 12,1 km/h (2 Bft) O-NO 77 0 min 0,000 mm 0,0 UV-I 0 W/m -1,6 C -2,0 C 17,7 km/h (3 Bft) 97,87 %
12.04.2019 06:08 2,7 C 0,0 C 2,2 C 73 % 1018,6 hPa 0,0 l/m 9,5 km/h (2 Bft) NO 40 0 min 0,000 mm 0,0 UV-I 0 W/m -1,6 C -0,1 C 16,1 km/h (3 Bft) 97,87 %
12.04.2019 06:10 2,7 C 0,0 C 2,2 C 73 % 1018,6 hPa 0,0 l/m 8,7 km/h (2 Bft) O-NO 73 0 min 0,000 mm 0,0 UV-I 0 W/m -1,6 C 0,6 C 14,5 km/h (3 Bft) 96,23 %
12.04.2019 06:12 2,7 C 0,0 C 2,2 C 72 % 1018,7 hPa 0,0 l/m 7,9 km/h (2 Bft) NO 51 0 min 0,000 mm 0,0 UV-I 4 W/m -1,8 C 1,3 C 12,9 km/h (3 Bft) 94,74 %
12.04.2019 06:14 2,7 C 0,0 C 2,2 C 72 % 1018,6 hPa 0,0 l/m 9,0 km/h (2 Bft) O-NO 58 0 min 0,000 mm 0,0 UV-I 5 W/m -1,8 C 0,3 C 16,1 km/h (3 Bft) 89,36 %
12.04.2019 06:16 2,7 C 0,0 C 2,2 C 73 % 1018,6 hPa 0,0 l/m 10,7 km/h (2 Bft) O-NO 66 0 min 0,000 mm 0,0 UV-I 6 W/m -1,6 C -1,0 C 17,7 km/h (3 Bft) 94,00 %
12.04.2019 06:18 2,7 C 0,0 C 2,2 C 72 % 1018,7 hPa 0,0 l/m 13,4 km/h (3 Bft) O-NO 59 0 min 0,000 mm 0,0 UV-I 7 W/m -1,8 C -2,8 C 20,9 km/h (4 Bft) 95,74 %
12.04.2019 06:20 2,6 C 0,0 C 2,2 C 72 % 1018,6 hPa 0,0 l/m 13,6 km/h (3 Bft) O-NO 59 0 min 0,000 mm 0,0 UV-I 7 W/m -1,9 C -3,0 C 19,3 km/h (3 Bft) 93,62 %
12.04.2019 06:22 2,6 C 0,0 C 2,2 C 73 % 1018,7 hPa 0,0 l/m 11,7 km/h (2 Bft) O-NO 67 0 min 0,000 mm 0,0 UV-I 8 W/m -1,7 C -1,8 C 16,1 km/h (3 Bft) 91,84 %
12.04.2019 06:24 2,6 C 0,0 C 1,7 C 73 % 1018,7 hPa 0,0 l/m 10,1 km/h (2 Bft) NO 41 0 min 0,000 mm 0,0 UV-I 9 W/m -1,7 C -0,7 C 12,9 km/h (3 Bft) 89,36 %
12.04.2019 06:26 2,5 C 0,0 C 1,7 C 73 % 1018,7 hPa 0,0 l/m 9,4 km/h (2 Bft) NO 55 0 min 0,000 mm 0,0 UV-I 11 W/m -1,8 C -0,2 C 14,5 km/h (3 Bft) 94,00 %
12.04.2019 06:28 2,5 C 0,0 C 1,7 C 73 % 1018,7 hPa 0,0 l/m 11,7 km/h (2 Bft) O-NO 70 0 min 0,000 mm 0,0 UV-I 12 W/m -1,8 C -1,9 C 17,7 km/h (3 Bft) 95,74 %
12.04.2019 06:30 2,5 C 0,0 C 1,7 C 73 % 1018,7 hPa 0,0 l/m 6,8 km/h (2 Bft) NO 37 0 min 0,000 mm 0,0 UV-I 15 W/m -1,8 C 2,1 C 9,7 km/h (2 Bft) 97,87 %
12.04.2019 06:32 2,5 C 0,0 C 1,7 C 73 % 1018,8 hPa 0,0 l/m 8,5 km/h (2 Bft) NO 47 2 min 0,000 mm 0,0 UV-I 18 W/m -1,8 C 0,5 C 14,5 km/h (3 Bft) 97,87 %
12.04.2019 06:34 2,5 C 0,0 C 1,7 C 73 % 1018,8 hPa 0,0 l/m 8,1 km/h (2 Bft) NO 47 2 min 0,000 mm 0,0 UV-I 20 W/m -1,8 C 0,9 C 12,9 km/h (3 Bft) 95,74 %
12.04.2019 06:36 2,4 C 0,0 C 1,7 C 73 % 1018,8 hPa 0,0 l/m 9,1 km/h (2 Bft) O-NO 59 2 min 0,000 mm 0,0 UV-I 24 W/m -1,9 C -0,1 C 16,1 km/h (3 Bft) 95,74 %
12.04.2019 06:38 2,4 C 0,0 C 1,7 C 73 % 1018,8 hPa 0,0 l/m 11,2 km/h (2 Bft) O-NO 73 2 min 0,000 mm 0,0 UV-I 26 W/m -1,9 C -1,7 C 17,7 km/h (3 Bft) 93,62 %
12.04.2019 06:40 2,5 C 0,0 C 2,2 C 73 % 1018,8 hPa 0,0 l/m 9,8 km/h (2 Bft) O 88 2 min 0,000 mm 0,0 UV-I 30 W/m -1,8 C -0,5 C 16,1 km/h (3 Bft) 97,44 %
12.04.2019 06:42 2,5 C 0,0 C 2,2 C 73 % 1018,8 hPa 0,0 l/m 9,3 km/h (2 Bft) O-NO 65 2 min 0,000 mm 0,0 UV-I 34 W/m -1,8 C -0,1 C 14,5 km/h (3 Bft) 95,74 %
12.04.2019 06:44 2,5 C 0,0 C 2,2 C 73 % 1018,8 hPa 0,0 l/m 9,4 km/h (2 Bft) NO 44 2 min 0,000 mm 0,0 UV-I 37 W/m -1,8 C -0,2 C 14,5 km/h (3 Bft) 93,62 %
12.04.2019 06:46 2,5 C 0,0 C 2,2 C 73 % 1018,8 hPa 0,0 l/m 8,8 km/h (2 Bft) NO 54 2 min 0,000 mm 0,0 UV-I 39 W/m -1,8 C 0,3 C 14,5 km/h (3 Bft) 95,74 %
12.04.2019 06:48 2,5 C 0,0 C 2,2 C 73 % 1018,8 hPa 0,0 l/m 9,6 km/h (2 Bft) O-NO 59 2 min 0,000 mm 0,0 UV-I 41 W/m -1,8 C -0,4 C 14,5 km/h (3 Bft) 95,74 %
12.04.2019 06:50 2,5 C 0,0 C 2,2 C 73 % 1018,9 hPa 0,0 l/m 11,2 km/h (2 Bft) NO 49 2 min 0,000 mm 0,0 UV-I 42 W/m -1,8 C -1,6 C 17,7 km/h (3 Bft) 93,62 %
12.04.2019 06:52 2,5 C 0,0 C 2,2 C 73 % 1018,9 hPa 0,0 l/m 7,3 km/h (2 Bft) NO 44 0 min 0,000 mm 0,0 UV-I 41 W/m -1,8 C 1,6 C 12,9 km/h (3 Bft) 98,00 %
12.04.2019 06:54 2,5 C 0,0 C 2,8 C 73 % 1018,9 hPa 0,0 l/m 9,1 km/h (2 Bft) O-NO 63 0 min 0,000 mm 0,0 UV-I 40 W/m -1,8 C 0,0 C 16,1 km/h (3 Bft) 97,87 %
12.04.2019 06:56 2,6 C 0,0 C 2,8 C 74 % 1018,9 hPa 0,0 l/m 7,2 km/h (2 Bft) NO 51 0 min 0,000 mm 0,0 UV-I 40 W/m -1,6 C 1,8 C 14,5 km/h (3 Bft) 98,00 %
12.04.2019 06:58 2,6 C 0,0 C 2,8 C 74 % 1019,0 hPa 0,0 l/m 8,9 km/h (2 Bft) NO 38 0 min 0,000 mm 0,0 UV-I 39 W/m -1,6 C 0,3 C 12,9 km/h (3 Bft) 95,74 %
12.04.2019 07:00 2,6 C 0,0 C 2,8 C 74 % 1019,0 hPa 0,0 l/m 8,8 km/h (2 Bft) O-NO 68 0 min 0,026 mm 0,0 UV-I 39 W/m -1,6 C 0,4 C 14,5 km/h (3 Bft) 95,74 %
12.04.2019 07:02 2,6 C 0,0 C 2,8 C 74 % 1019,0 hPa 0,0 l/m 8,2 km/h (2 Bft) NO 56 0 min 0,000 mm 0,0 UV-I 40 W/m -1,6 C 0,9 C 11,3 km/h (2 Bft) 95,74 %
12.04.2019 07:04 2,6 C 0,0 C 2,8 C 74 % 1019,1 hPa 0,0 l/m 9,5 km/h (2 Bft) O-NO 73 0 min 0,000 mm 0,0 UV-I 40 W/m -1,6 C -0,2 C 14,5 km/h (3 Bft) 97,56 %
12.04.2019 07:06 2,6 C 0,0 C 2,8 C 75 % 1019,1 hPa 0,0 l/m 9,5 km/h (2 Bft) NO 55 0 min 0,000 mm 0,0 UV-I 40 W/m -1,4 C -0,2 C 16,1 km/h (3 Bft) 96,00 %
12.04.2019 07:08 2,7 C 0,0 C 3,3 C 74 % 1019,1 hPa 0,0 l/m 10,1 km/h (2 Bft) NO 38 0 min 0,000 mm 0,0 UV-I 40 W/m -1,5 C -0,5 C 16,1 km/h (3 Bft) 97,87 %
12.04.2019 07:10 2,7 C 0,0 C 3,3 C 75 % 1019,1 hPa 0,0 l/m 8,3 km/h (2 Bft) NO 46 0 min 0,000 mm 0,0 UV-I 44 W/m -1,3 C 0,9 C 14,5 km/h (3 Bft) 97,37 %
12.04.2019 07:12 2,7 C 0,0 C 3,3 C 75 % 1019,1 hPa 0,0 l/m 8,1 km/h (2 Bft) NO 56 0 min 0,000 mm 0,0 UV-I 47 W/m -1,3 C 1,1 C 12,9 km/h (3 Bft) 98,00 %
12.04.2019 07:14 2,7 C 0,0 C 3,3 C 75 % 1019,1 hPa 0,0 l/m 7,5 km/h (2 Bft) NO 47 0 min 0,000 mm 0,0 UV-I 52 W/m -1,3 C 1,6 C 12,9 km/h (3 Bft) 95,74 %
12.04.2019 07:16 2,7 C 0,0 C 3,3 C 75 % 1019,1 hPa 0,0 l/m 7,7 km/h (2 Bft) NO 44 0 min 0,000 mm 0,0 UV-I 58 W/m -1,3 C 1,5 C 11,3 km/h (2 Bft) 97,87 %
12.04.2019 07:18 2,8 C 0,0 C 3,3 C 75 % 1019,0 hPa 0,0 l/m 9,7 km/h (2 Bft) NO 47 0 min 0,000 mm 0,0 UV-I 64 W/m -1,2 C -0,1 C 16,1 km/h (3 Bft) 100,00 %
12.04.2019 07:20 2,8 C 0,0 C 3,9 C 75 % 1019,1 hPa 0,0 l/m 9,6 km/h (2 Bft) O-NO 64 0 min 0,000 mm 0,0 UV-I 69 W/m -1,2 C -0,0 C 16,1 km/h (3 Bft) 95,74 %
12.04.2019 07:22 2,8 C 0,0 C 3,9 C 75 % 1019,1 hPa 0,0 l/m 9,5 km/h (2 Bft) O-NO 58 0 min 0,000 mm 0,0 UV-I 71 W/m -1,2 C 0,0 C 14,5 km/h (3 Bft) 100,00 %
12.04.2019 07:24 2,8 C 0,0 C 3,9 C 75 % 1019,1 hPa 0,0 l/m 10,1 km/h (2 Bft) NO 55 0 min 0,000 mm 0,0 UV-I 75 W/m -1,2 C -0,4 C 16,1 km/h (3 Bft) 97,87 %
12.04.2019 07:26 2,8 C 0,0 C 3,9 C 74 % 1019,0 hPa 0,0 l/m 10,5 km/h (2 Bft) NO 47 0 min 0,000 mm 0,0 UV-I 83 W/m -1,4 C -0,7 C 16,1 km/h (3 Bft) 97,87 %
12.04.2019 07:28 2,8 C 0,0 C 3,9 C 74 % 1019,0 hPa 0,0 l/m 9,9 km/h (2 Bft) O-NO 60 0 min 0,000 mm 0,0 UV-I 95 W/m -1,4 C -0,3 C 12,9 km/h (3 Bft) 97,87 %
12.04.2019 07:30 2,9 C 0,0 C 3,9 C 74 % 1019,1 hPa 0,0 l/m 8,2 km/h (2 Bft) NO 36 2 min 0,000 mm 0,0 UV-I 102 W/m -1,3 C 1,2 C 14,5 km/h (3 Bft) 97,87 %
12.04.2019 07:32 3,0 C 0,0 C 4,4 C 75 % 1019,1 hPa 0,0 l/m 7,9 km/h (2 Bft) O-NO 58 0 min 0,000 mm 0,0 UV-I 96 W/m -1,0 C 1,6 C 11,3 km/h (2 Bft) 95,74 %
12.04.2019 07:34 3,1 C 0,0 C 4,4 C 75 % 1019,1 hPa 0,0 l/m 9,4 km/h (2 Bft) NO 48 0 min 0,000 mm 0,0 UV-I 91 W/m -0,9 C 0,4 C 14,5 km/h (3 Bft) 98,00 %
12.04.2019 07:36 3,1 C 0,0 C 4,4 C 75 % 1019,1 hPa 0,0 l/m 7,5 km/h (2 Bft) O-NO 57 0 min 0,000 mm 0,0 UV-I 90 W/m -0,9 C 2,1 C 11,3 km/h (2 Bft) 97,87 %
12.04.2019 07:38 3,1 C 0,0 C 4,4 C 75 % 1019,1 hPa 0,0 l/m 6,3 km/h (2 Bft) NO 34 0 min 0,000 mm 0,0 UV-I 90 W/m -0,9 C 3,1 C 8,0 km/h (2 Bft) 97,87 %
12.04.2019 07:40 3,1 C 0,0 C 4,4 C 74 % 1019,1 hPa 0,0 l/m 9,7 km/h (2 Bft) O-NO 61 0 min 0,000 mm 0,0 UV-I 90 W/m -1,1 C 0,2 C 16,1 km/h (3 Bft) 97,37 %
12.04.2019 07:42 3,1 C 0,0 C 4,4 C 73 % 1019,1 hPa 0,0 l/m 10,3 km/h (2 Bft) NO 46 0 min 0,000 mm 0,0 UV-I 95 W/m -1,3 C -0,2 C 16,1 km/h (3 Bft) 98,00 %
12.04.2019 07:44 3,1 C 0,0 C 4,4 C 73 % 1019,1 hPa 0,0 l/m 9,8 km/h (2 Bft) NO 49 0 min 0,000 mm 0,0 UV-I 102 W/m -1,3 C 0,1 C 14,5 km/h (3 Bft) 95,74 %
12.04.2019 07:46 3,2 C 0,0 C 5,0 C 73 % 1019,1 hPa 0,0 l/m 9,0 km/h (2 Bft) O-NO 57 0 min 0,000 mm 0,0 UV-I 107 W/m -1,2 C 0,9 C 14,5 km/h (3 Bft) 95,74 %
12.04.2019 07:48 3,2 C 0,0 C 5,0 C 73 % 1019,0 hPa 0,0 l/m 9,2 km/h (2 Bft) NO 46 0 min 0,000 mm 0,0 UV-I 119 W/m -1,2 C 0,7 C 14,5 km/h (3 Bft) 97,87 %
12.04.2019 07:50 3,2 C 0,0 C 5,0 C 72 % 1019,0 hPa 0,0 l/m 8,1 km/h (2 Bft) O-NO 74 0 min 0,000 mm 0,0 UV-I 125 W/m -1,3 C 1,6 C 12,9 km/h (3 Bft) 100,00 %
12.04.2019 07:52 3,2 C 0,0 C 5,0 C 73 % 1019,1 hPa 0,0 l/m 12,8 km/h (3 Bft) NO 55 2 min 0,000 mm 0,0 UV-I 138 W/m -1,2 C -1,8 C 17,7 km/h (3 Bft) 100,00 %
12.04.2019 07:54 3,3 C 0,0 C 5,0 C 72 % 1019,0 hPa 0,0 l/m 13,0 km/h (3 Bft) O-NO 63 2 min 0,000 mm 0,0 UV-I 157 W/m -1,3 C -1,8 C 17,7 km/h (3 Bft) 100,00 %
12.04.2019 07:56 3,3 C 0,0 C 5,0 C 73 % 1019,0 hPa 0,0 l/m 12,7 km/h (3 Bft) NO 35 2 min 0,000 mm 0,0 UV-I 166 W/m -1,1 C -1,6 C 16,1 km/h (3 Bft) 100,00 %
12.04.2019 07:58 3,3 C 0,0 C 5,6 C 72 % 1019,0 hPa 0,0 l/m 11,2 km/h (2 Bft) NO 38 2 min 0,000 mm 0,0 UV-I 181 W/m -1,3 C -0,7 C 19,3 km/h (3 Bft) 100,00 %
12.04.2019 08:00 3,4 C 0,0 C 5,6 C 72 % 1019,0 hPa 0,0 l/m 10,1 km/h (2 Bft) NO 36 2 min 0,051 mm 0,0 UV-I 194 W/m -1,2 C 0,2 C 14,5 km/h (3 Bft) 100,00 %
12.04.2019 08:02 3,5 C 0,0 C 6,1 C 71 % 1019,0 hPa 0,0 l/m 7,7 km/h (2 Bft) NO 55 2 min 0,000 mm 0,0 UV-I 198 W/m -1,3 C 2,3 C 11,3 km/h (2 Bft) 100,00 %
12.04.2019 08:04 3,6 C 0,0 C 6,1 C 71 % 1019,1 hPa 0,0 l/m 11,9 km/h (2 Bft) O-NO 73 2 min 0,000 mm 0,0 UV-I 196 W/m -1,2 C -0,8 C 16,1 km/h (3 Bft) 100,00 %
12.04.2019 08:06 3,6 C 0,0 C 6,7 C 71 % 1019,1 hPa 0,0 l/m 8,4 km/h (2 Bft) O-NO 67 2 min 0,000 mm 0,0 UV-I 193 W/m -1,2 C 1,8 C 16,1 km/h (3 Bft) 100,00 %
12.04.2019 08:08 3,7 C 0,0 C 6,7 C 71 % 1019,0 hPa 0,0 l/m 8,7 km/h (2 Bft) NO 40 2 min 0,000 mm 0,0 UV-I 188 W/m -1,1 C 1,6 C 14,5 km/h (3 Bft) 100,00 %
12.04.2019 08:10 3,7 C 0,0 C 6,7 C 71 % 1019,1 hPa 0,0 l/m 10,4 km/h (2 Bft) O-NO 60 2 min 0,000 mm 0,0 UV-I 182 W/m -1,1 C 0,3 C 17,7 km/h (3 Bft) 100,00 %
12.04.2019 08:12 3,8 C 0,0 C 6,7 C 71 % 1019,1 hPa 0,0 l/m 12,3 km/h (3 Bft) NO 38 2 min 0,000 mm 0,0 UV-I 180 W/m -1,0 C -0,8 C 17,7 km/h (3 Bft) 95,74 %
12.04.2019 08:14 3,7 C 0,0 C 6,1 C 71 % 1019,1 hPa 0,0 l/m 13,1 km/h (3 Bft) NO 53 2 min 0,000 mm 0,0 UV-I 179 W/m -1,1 C -1,4 C 19,3 km/h (3 Bft) 97,87 %
12.04.2019 08:16 3,7 C 0,0 C 6,1 C 71 % 1019,1 hPa 0,0 l/m 11,4 km/h (2 Bft) NO 34 2 min 0,000 mm 0,0 UV-I 183 W/m -1,1 C -0,3 C 16,1 km/h (3 Bft) 100,00 %
12.04.2019 08:18 3,7 C 0,0 C 6,1 C 70 % 1019,1 hPa 0,0 l/m 9,4 km/h (2 Bft) O-NO 65 2 min 0,000 mm 0,0 UV-I 186 W/m -1,3 C 1,1 C 14,5 km/h (3 Bft) 100,00 %
12.04.2019 08:20 3,6 C 0,0 C 6,1 C 69 % 1019,1 hPa 0,0 l/m 9,9 km/h (2 Bft) NO 40 2 min 0,000 mm 0,0 UV-I 188 W/m -1,5 C 0,6 C 16,1 km/h (3 Bft) 100,00 %
12.04.2019 08:22 3,6 C 0,0 C 6,1 C 70 % 1019,1 hPa 0,0 l/m 8,8 km/h (2 Bft) NO 47 2 min 0,000 mm 0,0 UV-I 191 W/m -1,3 C 1,5 C 12,9 km/h (3 Bft) 95,74 %
12.04.2019 08:24 3,6 C 0,0 C 6,1 C 69 % 1019,1 hPa 0,0 l/m 9,3 km/h (2 Bft) O-NO 60 2 min 0,000 mm 0,0 UV-I 192 W/m -1,5 C 1,1 C 19,3 km/h (3 Bft) 100,00 %
12.04.2019 08:26 3,6 C 0,0 C 6,1 C 69 % 1019,1 hPa 0,0 l/m 13,1 km/h (3 Bft) NO 44 2 min 0,000 mm 0,0 UV-I 192 W/m -1,5 C -1,5 C 19,3 km/h (3 Bft) 100,00 %
12.04.2019 08:28 3,6 C 0,0 C 6,1 C 69 % 1019,1 hPa 0,0 l/m 14,4 km/h (3 Bft) O 92 2 min 0,000 mm 0,0 UV-I 194 W/m -1,5 C -2,3 C 20,9 km/h (4 Bft) 97,87 %
12.04.2019 08:30 3,6 C 0,0 C 6,1 C 70 % 1019,1 hPa 0,0 l/m 13,8 km/h (3 Bft) NO 46 0 min 0,000 mm 0,0 UV-I 191 W/m -1,3 C -2,0 C 22,5 km/h (4 Bft) 100,00 %
12.04.2019 08:32 3,6 C 0,0 C 6,7 C 70 % 1019,1 hPa 0,0 l/m 10,3 km/h (2 Bft) NO 52 0 min 0,000 mm 0,0 UV-I 189 W/m -1,3 C 0,3 C 16,1 km/h (3 Bft) 100,00 %
12.04.2019 08:34 3,7 C 0,0 C 6,7 C 71 % 1019,1 hPa 0,0 l/m 14,4 km/h (3 Bft) N-NO 32 0 min 0,000 mm 0,0 UV-I 185 W/m -1,1 C -2,2 C 20,9 km/h (4 Bft) 100,00 %
12.04.2019 08:36 3,7 C 0,0 C 6,1 C 71 % 1019,0 hPa 0,0 l/m 15,2 km/h (3 Bft) NO 46 0 min 0,000 mm 0,5 UV-I 186 W/m -1,1 C -2,6 C 19,3 km/h (3 Bft) 100,00 %
12.04.2019 08:38 3,8 C 0,0 C 6,1 C 71 % 1019,0 hPa 0,0 l/m 13,8 km/h (3 Bft) NO 46 0 min 0,000 mm 0,5 UV-I 194 W/m -1,0 C -1,7 C 17,7 km/h (3 Bft) 97,44 %
12.04.2019 08:40 3,8 C 0,0 C 6,7 C 71 % 1019,0 hPa 0,0 l/m 12,9 km/h (3 Bft) N-NO 27 0 min 0,000 mm 0,5 UV-I 204 W/m -1,0 C -1,2 C 19,3 km/h (3 Bft) 97,87 %
12.04.2019 08:42 3,9 C 0,0 C 6,7 C 72 % 1019,0 hPa 0,0 l/m 15,2 km/h (3 Bft) O-NO 67 2 min 0,000 mm 0,5 UV-I 211 W/m -0,7 C -2,4 C 19,3 km/h (3 Bft) 93,62 %
12.04.2019 08:44 3,9 C 0,0 C 6,7 C 71 % 1019,0 hPa 0,0 l/m 13,3 km/h (3 Bft) NO 35 0 min 0,000 mm 0,5 UV-I 212 W/m -0,9 C -1,3 C 19,3 km/h (3 Bft) 93,62 %
12.04.2019 08:46 3,8 C 0,0 C 6,7 C 70 % 1019,0 hPa 0,0 l/m 12,0 km/h (2 Bft) NO 44 0 min 0,000 mm 0,5 UV-I 208 W/m -1,2 C -0,6 C 17,7 km/h (3 Bft) 94,00 %
12.04.2019 08:48 3,8 C 0,0 C 6,7 C 70 % 1019,0 hPa 0,0 l/m 10,0 km/h (2 Bft) NO 49 0 min 0,000 mm 0,5 UV-I 218 W/m -1,2 C 0,7 C 14,5 km/h (3 Bft) 95,74 %
12.04.2019 08:50 3,8 C 0,0 C 6,7 C 69 % 1019,0 hPa 0,0 l/m 10,2 km/h (2 Bft) O-NO 69 2 min 0,000 mm 0,5 UV-I 238 W/m -1,4 C 0,6 C 14,5 km/h (3 Bft) 93,62 %
12.04.2019 08:52 3,8 C 0,0 C 7,2 C 69 % 1019,0 hPa 0,0 l/m 8,9 km/h (2 Bft) NO 37 2 min 0,000 mm 0,6 UV-I 244 W/m -1,4 C 1,6 C 14,5 km/h (3 Bft) 93,62 %
12.04.2019 08:54 3,9 C 0,0 C 7,2 C 71 % 1019,0 hPa 0,0 l/m 10,8 km/h (2 Bft) N-NO 30 2 min 0,000 mm 0,6 UV-I 237 W/m -0,9 C 0,3 C 16,1 km/h (3 Bft) 93,62 %
12.04.2019 08:56 4,1 C 0,0 C 7,2 C 71 % 1019,0 hPa 0,0 l/m 11,3 km/h (2 Bft) NO 46 2 min 0,000 mm 0,6 UV-I 247 W/m -0,7 C 0,2 C 16,1 km/h (3 Bft) 95,74 %
12.04.2019 08:58 4,2 C 0,0 C 7,2 C 71 % 1019,1 hPa 0,0 l/m 11,5 km/h (2 Bft) O-NO 63 2 min 0,000 mm 0,6 UV-I 255 W/m -0,6 C 0,2 C 17,7 km/h (3 Bft) 95,74 %
12.04.2019 09:00 4,2 C 0,0 C 7,2 C 70 % 1019,0 hPa 0,0 l/m 13,0 km/h (3 Bft) O-NO 66 2 min 0,101 mm 0,6 UV-I 256 W/m -0,8 C -0,8 C 17,7 km/h (3 Bft) 95,74 %
12.04.2019 09:02 4,2 C 0,0 C 7,2 C 69 % 1019,0 hPa 0,0 l/m 10,9 km/h (2 Bft) O-NO 69 2 min 0,000 mm 0,6 UV-I 266 W/m -1,0 C 0,6 C 17,7 km/h (3 Bft) 95,74 %
12.04.2019 09:04 4,2 C 0,0 C 7,8 C 70 % 1019,1 hPa 0,0 l/m 12,6 km/h (3 Bft) NO 52 2 min 0,000 mm 0,7 UV-I 271 W/m -0,8 C -0,5 C 17,7 km/h (3 Bft) 97,37 %
12.04.2019 09:06 4,2 C 0,0 C 7,8 C 70 % 1019,0 hPa 0,0 l/m 9,2 km/h (2 Bft) N-NO 26 2 min 0,000 mm 0,7 UV-I 268 W/m -0,8 C 1,8 C 16,1 km/h (3 Bft) 98,00 %
12.04.2019 09:08 4,3 C 0,0 C 7,8 C 71 % 1019,1 hPa 0,0 l/m 9,4 km/h (2 Bft) NO 38 2 min 0,000 mm 0,7 UV-I 273 W/m -0,5 C 1,7 C 17,7 km/h (3 Bft) 100,00 %
12.04.2019 09:10 4,4 C 0,0 C 8,9 C 71 % 1019,0 hPa 0,0 l/m 8,9 km/h (2 Bft) O-NO 74 2 min 0,000 mm 0,8 UV-I 300 W/m -0,4 C 2,2 C 16,1 km/h (3 Bft) 100,00 %
12.04.2019 09:12 4,6 C 0,0 C 9,4 C 70 % 1019,0 hPa 0,0 l/m 10,0 km/h (2 Bft) N-NO 33 2 min 0,000 mm 0,8 UV-I 315 W/m -0,4 C 1,6 C 14,5 km/h (3 Bft) 97,87 %
12.04.2019 09:14 4,5 C 0,0 C 9,4 C 67 % 1019,1 hPa 0,0 l/m 10,1 km/h (2 Bft) O 95 2 min 0,000 mm 0,8 UV-I 325 W/m -1,1 C 1,4 C 16,1 km/h (3 Bft) 100,00 %
12.04.2019 09:16 4,4 C 0,0 C 10,0 C 67 % 1019,0 hPa 0,0 l/m 12,5 km/h (3 Bft) O 82 2 min 0,000 mm 0,8 UV-I 368 W/m -1,2 C -0,2 C 17,7 km/h (3 Bft) 100,00 %
12.04.2019 09:18 4,4 C 0,0 C 10,6 C 67 % 1019,0 hPa 0,0 l/m 9,9 km/h (2 Bft) O-NO 74 2 min 0,000 mm 0,9 UV-I 382 W/m -1,2 C 1,5 C 16,1 km/h (3 Bft) 100,00 %
12.04.2019 09:20 4,4 C 0,0 C 10,6 C 67 % 1019,0 hPa 0,0 l/m 11,2 km/h (2 Bft) O-NO 76 2 min 0,000 mm 0,9 UV-I 339 W/m -1,2 C 0,6 C 16,1 km/h (3 Bft) 100,00 %
12.04.2019 09:22 4,4 C 0,0 C 10,6 C 66 % 1019,0 hPa 0,0 l/m 12,7 km/h (3 Bft) NO 55 2 min 0,000 mm 0,9 UV-I 328 W/m -1,4 C -0,4 C 17,7 km/h (3 Bft) 100,00 %
12.04.2019 09:24 4,3 C 0,0 C 10,0 C 67 % 1019,0 hPa 0,0 l/m 12,4 km/h (3 Bft) O 80 2 min 0,000 mm 0,9 UV-I 331 W/m -1,3 C -0,3 C 17,7 km/h (3 Bft) 95,74 %
12.04.2019 09:26 4,3 C 0,0 C 10,6 C 67 % 1019,0 hPa 0,0 l/m 8,3 km/h (2 Bft) O-NO 67 2 min 0,000 mm 0,9 UV-I 348 W/m -1,3 C 2,6 C 14,5 km/h (3 Bft) 100,00 %
12.04.2019 09:28 4,5 C 0,0 C 10,6 C 70 % 1019,0 hPa 0,0 l/m 11,1 km/h (2 Bft) O 82 2 min 0,000 mm 0,9 UV-I 336 W/m -0,5 C 0,8 C 16,1 km/h (3 Bft) 97,87 %
12.04.2019 09:30 4,6 C 0,0 C 10,6 C 68 % 1019,0 hPa 0,0 l/m 10,8 km/h (2 Bft) O-NO 76 2 min 0,000 mm 0,9 UV-I 324 W/m -0,8 C 1,1 C 17,7 km/h (3 Bft) 97,87 %
12.04.2019 09:32 4,7 C 0,0 C 10,6 C 68 % 1019,0 hPa 0,0 l/m 10,3 km/h (2 Bft) O-NO 77 2 min 0,000 mm 0,9 UV-I 324 W/m -0,7 C 1,5 C 14,5 km/h (3 Bft) 97,87 %
12.04.2019 09:34 4,7 C 0,0 C 10,6 C 67 % 1019,0 hPa 0,0 l/m 10,5 km/h (2 Bft) O 84 2 min 0,000 mm 0,9 UV-I 322 W/m -0,9 C 1,4 C 14,5 km/h (3 Bft) 100,00 %
12.04.2019 09:36 4,6 C 0,0 C 10,6 C 67 % 1019,0 hPa 0,0 l/m 8,5 km/h (2 Bft) O-NO 67 2 min 0,000 mm 1,0 UV-I 322 W/m -1,0 C 2,8 C 12,9 km/h (3 Bft) 100,00 %
12.04.2019 09:38 4,6 C 0,0 C 10,6 C 67 % 1019,0 hPa 0,0 l/m 9,8 km/h (2 Bft) O-NO 67 2 min 0,000 mm 1,0 UV-I 319 W/m -1,0 C 1,8 C 12,9 km/h (3 Bft) 97,87 %
12.04.2019 09:40 4,6 C 0,0 C 11,1 C 67 % 1018,9 hPa 0,0 l/m 7,9 km/h (2 Bft) O 84 2 min 0,000 mm 1,0 UV-I 315 W/m -1,0 C 3,3 C 12,9 km/h (3 Bft) 97,87 %
12.04.2019 09:42 4,7 C 0,0 C 11,1 C 68 % 1019,0 hPa 0,0 l/m 10,5 km/h (2 Bft) NO 51 2 min 0,000 mm 1,0 UV-I 329 W/m -0,7 C 1,4 C 16,1 km/h (3 Bft) 97,87 %
12.04.2019 09:44 4,8 C 0,0 C 11,1 C 68 % 1019,0 hPa 0,0 l/m 12,0 km/h (2 Bft) NO 52 2 min 0,000 mm 1,0 UV-I 340 W/m -0,6 C 0,5 C 17,7 km/h (3 Bft) 100,00 %
12.04.2019 09:46 4,9 C 0,0 C 11,1 C 68 % 1019,0 hPa 0,0 l/m 10,1 km/h (2 Bft) O-NO 71 2 min 0,000 mm 1,0 UV-I 330 W/m -0,5 C 1,9 C 14,5 km/h (3 Bft) 97,87 %
12.04.2019 09:48 4,9 C 0,0 C 11,1 C 67 % 1019,0 hPa 0,0 l/m 8,9 km/h (2 Bft) O-NO 74 2 min 0,000 mm 1,1 UV-I 323 W/m -0,7 C 2,8 C 14,5 km/h (3 Bft) 97,87 %
12.04.2019 09:50 4,8 C 0,0 C 11,1 C 65 % 1018,9 hPa 0,0 l/m 13,3 km/h (3 Bft) O-SO 103 2 min 0,000 mm 1,1 UV-I 337 W/m -1,2 C -0,2 C 16,1 km/h (3 Bft) 97,87 %
12.04.2019 09:52 4,8 C 0,0 C 11,7 C 65 % 1018,9 hPa 0,0 l/m 11,5 km/h (2 Bft) O 98 2 min 0,000 mm 1,1 UV-I 360 W/m -1,2 C 0,8 C 14,5 km/h (3 Bft) 100,00 %
12.04.2019 09:54 4,9 C 0,0 C 12,2 C 68 % 1018,9 hPa 0,0 l/m 7,7 km/h (2 Bft) NO 51 2 min 0,000 mm 1,2 UV-I 380 W/m -0,5 C 3,8 C 11,3 km/h (2 Bft) 100,00 %
12.04.2019 09:56 5,1 C 0,0 C 12,2 C 69 % 1019,0 hPa 0,0 l/m 8,2 km/h (2 Bft) O-NO 69 2 min 0,000 mm 1,2 UV-I 374 W/m -0,1 C 3,5 C 14,5 km/h (3 Bft) 100,00 %
12.04.2019 09:59 5,1 C 0,0 C 12,8 C 65 % 1019,0 hPa 0,0 l/m 10,4 km/h (2 Bft) O-NO 77 3 min 0,000 mm 1,3 UV-I 402 W/m -0,9 C 1,9 C 14,5 km/h (3 Bft) 94,74 %
12.04.2019 10:00 5,1 C 0,0 C 12,8 C 65 % 1019,0 hPa 0,0 l/m 11,5 km/h (2 Bft) O-SO 104 1 min 0,000 mm 1,3 UV-I 395 W/m -0,9 C 1,2 C 14,5 km/h (3 Bft) 95,83 %
12.04.2019 10:02 5,1 C 0,0 C 13,3 C 66 % 1018,9 hPa 0,0 l/m 11,4 km/h (2 Bft) O-SO 103 2 min 0,153 mm 1,3 UV-I 400 W/m -0,7 C 1,2 C 16,1 km/h (3 Bft) 100,00 %
12.04.2019 10:04 5,2 C 0,0 C 13,3 C 65 % 1019,0 hPa 0,0 l/m 9,1 km/h (2 Bft) O-SO 117 2 min 0,000 mm 1,3 UV-I 415 W/m -0,8 C 2,9 C 14,5 km/h (3 Bft) 93,62 %
12.04.2019 10:06 5,3 C 0,0 C 13,3 C 67 % 1019,0 hPa 0,0 l/m 14,2 km/h (3 Bft) O-NO 68 2 min 0,000 mm 1,3 UV-I 431 W/m -0,3 C -0,1 C 19,3 km/h (3 Bft) 97,87 %
12.04.2019 10:08 5,4 C 0,0 C 13,3 C 66 % 1019,0 hPa 0,0 l/m 11,4 km/h (2 Bft) O-NO 73 2 min 0,000 mm 1,3 UV-I 425 W/m -0,4 C 1,6 C 16,1 km/h (3 Bft) 97,87 %
12.04.2019 10:10 5,3 C 0,0 C 13,9 C 63 % 1019,0 hPa 0,0 l/m 6,0 km/h (2 Bft) NO 36 2 min 0,000 mm 1,4 UV-I 437 W/m -1,2 C 5,3 C 12,9 km/h (3 Bft) 97,87 %
12.04.2019 10:12 5,3 C 0,0 C 13,9 C 66 % 1019,0 hPa 0,0 l/m 10,0 km/h (2 Bft) O-NO 63 2 min 0,000 mm 1,4 UV-I 480 W/m -0,5 C 2,4 C 14,5 km/h (3 Bft) 98,00 %
12.04.2019 10:14 5,4 C 0,0 C 13,9 C 64 % 1019,0 hPa 0,0 l/m 11,8 km/h (2 Bft) O-NO 65 2 min 0,000 mm 1,5 UV-I 512 W/m -0,9 C 1,3 C 19,3 km/h (3 Bft) 95,74 %
12.04.2019 10:16 5,5 C 0,0 C 13,9 C 67 % 1019,0 hPa 0,0 l/m 7,5 km/h (2 Bft) NO 51 2 min 0,000 mm 1,5 UV-I 499 W/m -0,1 C 4,5 C 16,1 km/h (3 Bft) 96,00 %
12.04.2019 10:18 5,6 C 0,0 C 14,4 C 66 % 1019,0 hPa 0,0 l/m 7,0 km/h (2 Bft) O-NO 67 2 min 0,000 mm 1,5 UV-I 486 W/m -0,2 C 5,1 C 11,3 km/h (2 Bft) 93,62 %
12.04.2019 10:20 5,7 C 0,0 C 15,0 C 63 % 1019,0 hPa 0,0 l/m 8,7 km/h (2 Bft) O 92 2 min 0,000 mm 1,5 UV-I 503 W/m -0,8 C 3,8 C 14,5 km/h (3 Bft) 95,12 %
12.04.2019 10:22 5,6 C 0,0 C 15,0 C 63 % 1018,9 hPa 0,0 l/m 9,5 km/h (2 Bft) O-NO 78 2 min 0,000 mm 1,6 UV-I 488 W/m -0,9 C 3,1 C 14,5 km/h (3 Bft) 91,49 %
12.04.2019 10:24 5,6 C 0,0 C 15,0 C 64 % 1018,9 hPa 0,0 l/m 13,9 km/h (3 Bft) O-SO 105 2 min 0,000 mm 1,6 UV-I 488 W/m -0,7 C 0,4 C 19,3 km/h (3 Bft) 93,62 %
12.04.2019 10:26 5,6 C 0,0 C 14,4 C 64 % 1018,9 hPa 0,0 l/m 13,9 km/h (3 Bft) O 94 2 min 0,000 mm 1,6 UV-I 465 W/m -0,7 C 0,4 C 19,3 km/h (3 Bft) 95,74 %
12.04.2019 10:28 5,5 C 0,0 C 14,4 C 64 % 1018,9 hPa 0,0 l/m 10,1 km/h (2 Bft) O 81 2 min 0,000 mm 1,7 UV-I 472 W/m -0,8 C 2,6 C 14,5 km/h (3 Bft) 96,00 %
12.04.2019 10:30 5,4 C 0,0 C 15,0 C 63 % 1018,9 hPa 0,0 l/m 10,9 km/h (2 Bft) O 90 2 min 0,000 mm 1,7 UV-I 477 W/m -1,1 C 1,9 C 16,1 km/h (3 Bft) 93,62 %
12.04.2019 10:32 5,5 C 0,0 C 15,6 C 63 % 1018,9 hPa 0,0 l/m 10,9 km/h (2 Bft) O-NO 69 2 min 0,000 mm 1,8 UV-I 534 W/m -1,0 C 2,0 C 14,5 km/h (3 Bft) 90,00 %
12.04.2019 10:34 5,6 C 0,0 C 16,7 C 64 % 1018,9 hPa 0,0 l/m 11,1 km/h (2 Bft) NO 48 2 min 0,000 mm 1,9 UV-I 546 W/m -0,7 C 2,0 C 16,1 km/h (3 Bft) 93,62 %
12.04.2019 10:36 5,8 C 0,0 C 17,8 C 65 % 1018,9 hPa 0,0 l/m 6,8 km/h (2 Bft) O-NO 62 2 min 0,000 mm 1,9 UV-I 602 W/m -0,3 C 5,5 C 12,9 km/h (3 Bft) 95,83 %
12.04.2019 10:38 6,0 C 0,0 C 18,9 C 62 % 1018,9 hPa 0,0 l/m 12,4 km/h (3 Bft) O-SO 106 2 min 0,000 mm 2,0 UV-I 684 W/m -0,7 C 1,7 C 19,3 km/h (3 Bft) 94,74 %
12.04.2019 10:40 6,1 C 0,0 C 18,9 C 63 % 1018,9 hPa 0,0 l/m 12,8 km/h (3 Bft) O 85 2 min 0,000 mm 2,1 UV-I 637 W/m -0,4 C 1,6 C 19,3 km/h (3 Bft) 97,87 %
12.04.2019 10:42 6,1 C 0,0 C 18,3 C 63 % 1018,8 hPa 0,0 l/m 8,7 km/h (2 Bft) O-SO 105 2 min 0,000 mm 1,9 UV-I 513 W/m -0,4 C 4,2 C 12,9 km/h (3 Bft) 95,74 %
12.04.2019 10:44 6,1 C 0,0 C 18,9 C 62 % 1018,8 hPa 0,0 l/m 10,1 km/h (2 Bft) NO 50 2 min 0,000 mm 2,0 UV-I 598 W/m -0,6 C 3,2 C 17,7 km/h (3 Bft) 95,74 %
12.04.2019 10:46 6,2 C 0,0 C 18,3 C 64 % 1018,8 hPa 0,0 l/m 15,2 km/h (3 Bft) O-NO 77 2 min 0,000 mm 2,1 UV-I 694 W/m -0,1 C 0,4 C 20,9 km/h (4 Bft) 94,34 %
12.04.2019 10:48 6,2 C 0,0 C 17,2 C 62 % 1018,9 hPa 0,0 l/m 12,1 km/h (2 Bft) NO 54 2 min 0,000 mm 2,0 UV-I 550 W/m -0,5 C 2,1 C 16,1 km/h (3 Bft) 94,74 %
12.04.2019 10:50 6,2 C 0,0 C 16,1 C 64 % 1018,8 hPa 0,0 l/m 12,8 km/h (3 Bft) NO 43 2 min 0,000 mm 2,0 UV-I 547 W/m -0,1 C 1,7 C 16,1 km/h (3 Bft) 97,87 %
12.04.2019 10:52 6,3 C 0,0 C 15,6 C 65 % 1018,9 hPa 0,0 l/m 14,7 km/h (3 Bft) NO 43 2 min 0,000 mm 2,0 UV-I 498 W/m 0,2 C 0,8 C 19,3 km/h (3 Bft) 93,62 %
12.04.2019 10:54 6,4 C 0,0 C 16,1 C 62 % 1018,9 hPa 0,0 l/m 14,1 km/h (3 Bft) NO 52 2 min 0,000 mm 2,1 UV-I 556 W/m -0,3 C 1,2 C 19,3 km/h (3 Bft) 96,00 %
12.04.2019 10:56 6,6 C 0,0 C 16,7 C 66 % 1018,9 hPa 0,0 l/m 11,2 km/h (2 Bft) NO 40 2 min 0,000 mm 2,2 UV-I 599 W/m 0,7 C 3,1 C 16,1 km/h (3 Bft) 95,74 %
12.04.2019 10:59 6,6 C 0,0 C 17,8 C 62 % 1018,9 hPa 0,0 l/m 8,1 km/h (2 Bft) O 80 3 min 0,000 mm 2,2 UV-I 552 W/m -0,1 C 5,2 C 16,1 km/h (3 Bft) 95,95 %
12.04.2019 11:00 6,6 C 0,0 C 18,3 C 62 % 1018,9 hPa 0,0 l/m 13,5 km/h (3 Bft) NO 55 1 min 0,000 mm 2,2 UV-I 611 W/m -0,1 C 1,8 C 16,1 km/h (3 Bft) 91,30 %
12.04.2019 11:02 6,8 C 0,0 C 18,3 C 66 % 1018,8 hPa 0,0 l/m 14,9 km/h (3 Bft) NO 40 2 min 0,254 mm 2,3 UV-I 654 W/m 0,9 C 1,3 C 22,5 km/h (4 Bft) 95,74 %
12.04.2019 11:04 6,9 C 0,0 C 17,2 C 64 % 1018,8 hPa 0,0 l/m 17,0 km/h (3 Bft) N-NO 28 2 min 0,000 mm 2,3 UV-I 690 W/m 0,6 C 0,5 C 22,5 km/h (4 Bft) 95,74 %
12.04.2019 11:06 7,0 C 0,0 C 18,9 C 64 % 1018,9 hPa 0,0 l/m 10,9 km/h (2 Bft) NO 44 2 min 0,000 mm 2,4 UV-I 720 W/m 0,7 C 3,7 C 16,1 km/h (3 Bft) 93,62 %
12.04.2019 11:08 6,9 C 0,0 C 19,4 C 64 % 1018,8 hPa 0,0 l/m 6,8 km/h (2 Bft) NO 55 2 min 0,000 mm 2,4 UV-I 721 W/m 0,6 C 6,6 C 12,9 km/h (3 Bft) 98,00 %
12.04.2019 11:10 6,8 C 0,0 C 20,6 C 63 % 1018,8 hPa 0,0 l/m 8,1 km/h (2 Bft) O-NO 74 2 min 0,000 mm 2,4 UV-I 739 W/m 0,3 C 5,4 C 17,7 km/h (3 Bft) 97,87 %
12.04.2019 11:12 7,1 C 0,0 C 20,6 C 65 % 1018,8 hPa 0,0 l/m 16,8 km/h (3 Bft) NO 44 2 min 0,000 mm 2,5 UV-I 742 W/m 1,0 C 0,8 C 24,1 km/h (4 Bft) 94,44 %
12.04.2019 11:14 7,3 C 0,0 C 20,6 C 65 % 1018,8 hPa 0,0 l/m 14,3 km/h (3 Bft) O-NO 65 2 min 0,000 mm 2,5 UV-I 744 W/m 1,2 C 2,2 C 19,3 km/h (3 Bft) 94,00 %
12.04.2019 11:16 7,2 C 0,0 C 21,1 C 62 % 1018,8 hPa 0,0 l/m 6,6 km/h (2 Bft) N 360 2 min 0,000 mm 2,5 UV-I 740 W/m 0,4 C 7,1 C 11,3 km/h (2 Bft) 94,34 %
12.04.2019 11:18 7,2 C 0,0 C 20,6 C 64 % 1018,8 hPa 0,0 l/m 12,2 km/h (2 Bft) NO 45 2 min 0,000 mm 2,5 UV-I 719 W/m 0,9 C 3,2 C 19,3 km/h (3 Bft) 94,74 %
12.04.2019 11:20 7,1 C 0,0 C 20,6 C 60 % 1018,8 hPa 0,0 l/m 14,9 km/h (3 Bft) O 86 2 min 0,000 mm 2,4 UV-I 687 W/m -0,1 C 1,7 C 20,9 km/h (4 Bft) 94,00 %
12.04.2019 11:22 6,9 C 0,0 C 21,1 C 60 % 1018,8 hPa 0,0 l/m 12,6 km/h (3 Bft) O-SO 104 2 min 0,000 mm 2,5 UV-I 696 W/m -0,3 C 2,6 C 17,7 km/h (3 Bft) 94,34 %
12.04.2019 11:24 6,8 C 0,0 C 21,1 C 61 % 1018,8 hPa 0,0 l/m 5,4 km/h (1 Bft) O-NO 67 2 min 0,000 mm 2,5 UV-I 695 W/m -0,2 C 6,8 C 9,7 km/h (2 Bft) 94,74 %
12.04.2019 11:26 7,1 C 0,0 C 22,2 C 63 % 1018,8 hPa 0,0 l/m 12,2 km/h (2 Bft) NO 53 2 min 0,000 mm 2,6 UV-I 731 W/m 0,5 C 3,1 C 17,7 km/h (3 Bft) 95,74 %
12.04.2019 11:28 7,2 C 0,0 C 22,8 C 61 % 1018,8 hPa 0,0 l/m 13,2 km/h (3 Bft) O-NO 76 2 min 0,000 mm 2,6 UV-I 737 W/m 0,2 C 2,6 C 20,9 km/h (4 Bft) 93,62 %
12.04.2019 11:30 7,5 C 0,0 C 22,2 C 65 % 1018,8 hPa 0,0 l/m 15,9 km/h (3 Bft) N-NO 27 2 min 0,000 mm 2,6 UV-I 703 W/m 1,4 C 1,7 C 22,5 km/h (4 Bft) 94,00 %
12.04.2019 11:32 7,7 C 0,0 C 22,8 C 62 % 1018,8 hPa 0,0 l/m 9,8 km/h (2 Bft) O-NO 76 2 min 0,000 mm 2,6 UV-I 703 W/m 0,9 C 5,2 C 16,1 km/h (3 Bft) 98,00 %
12.04.2019 11:34 7,6 C 0,0 C 21,1 C 62 % 1018,7 hPa 0,0 l/m 9,8 km/h (2 Bft) O-NO 63 2 min 0,000 mm 2,6 UV-I 691 W/m 0,8 C 5,1 C 16,1 km/h (3 Bft) 97,87 %
12.04.2019 11:36 7,3 C 0,0 C 18,9 C 61 % 1018,6 hPa 0,0 l/m 9,3 km/h (2 Bft) NO 47 2 min 0,000 mm 2,6 UV-I 657 W/m 0,3 C 5,1 C 19,3 km/h (3 Bft) 95,74 %
12.04.2019 11:38 7,3 C 0,0 C 18,3 C 64 % 1018,6 hPa 0,0 l/m 12,6 km/h (3 Bft) NO 46 2 min 0,000 mm 2,5 UV-I 707 W/m 1,0 C 3,1 C 19,3 km/h (3 Bft) 93,62 %
12.04.2019 11:40 7,3 C 0,0 C 18,9 C 61 % 1018,7 hPa 0,0 l/m 11,3 km/h (2 Bft) O 81 2 min 0,000 mm 2,6 UV-I 714 W/m 0,3 C 3,8 C 17,7 km/h (3 Bft) 97,87 %
12.04.2019 11:42 7,4 C 0,0 C 20,0 C 61 % 1018,6 hPa 0,0 l/m 11,2 km/h (2 Bft) O 90 2 min 0,000 mm 2,6 UV-I 684 W/m 0,4 C 4,0 C 16,1 km/h (3 Bft) 97,87 %
12.04.2019 11:44 7,4 C 0,0 C 21,1 C 60 % 1018,6 hPa 0,0 l/m 12,5 km/h (3 Bft) O 80 2 min 0,000 mm 2,7 UV-I 715 W/m 0,2 C 3,2 C 17,7 km/h (3 Bft) 97,87 %
12.04.2019 11:46 7,4 C 0,0 C 21,7 C 62 % 1018,6 hPa 0,0 l/m 7,8 km/h (2 Bft) N-NO 31 2 min 0,000 mm 2,7 UV-I 715 W/m 0,6 C 6,3 C 12,9 km/h (3 Bft) 94,87 %
12.04.2019 11:48 7,4 C 0,0 C 20,0 C 64 % 1018,6 hPa 0,0 l/m 11,8 km/h (2 Bft) NO 43 2 min 0,000 mm 2,5 UV-I 707 W/m 1,0 C 3,6 C 19,3 km/h (3 Bft) 96,00 %
12.04.2019 11:50 7,6 C 0,0 C 21,1 C 64 % 1018,6 hPa 0,0 l/m 13,2 km/h (3 Bft) O-NO 69 2 min 0,000 mm 2,7 UV-I 719 W/m 1,2 C 3,1 C 20,9 km/h (4 Bft) 96,23 %
12.04.2019 11:52 7,7 C 0,0 C 21,1 C 60 % 1018,6 hPa 0,0 l/m 15,9 km/h (3 Bft) O 89 2 min 0,000 mm 2,7 UV-I 747 W/m 0,4 C 1,9 C 22,5 km/h (4 Bft) 93,62 %
12.04.2019 11:54 7,4 C 0,0 C 22,2 C 59 % 1018,6 hPa 0,0 l/m 10,1 km/h (2 Bft) NO 49 2 min 0,000 mm 2,8 UV-I 765 W/m -0,1 C 4,7 C 16,1 km/h (3 Bft) 92,68 %
12.04.2019 11:56 7,6 C 0,0 C 22,2 C 62 % 1018,6 hPa 0,0 l/m 13,0 km/h (3 Bft) N-NO 12 2 min 0,000 mm 2,8 UV-I 769 W/m 0,8 C 3,2 C 19,3 km/h (3 Bft) 93,62 %
12.04.2019 11:58 7,6 C 0,0 C 20,6 C 62 % 1018,5 hPa 0,0 l/m 9,2 km/h (2 Bft) NO 54 2 min 0,000 mm 2,7 UV-I 765 W/m 0,8 C 5,5 C 17,7 km/h (3 Bft) 95,74 %
12.04.2019 12:00 7,4 C 0,0 C 17,8 C 61 % 1018,5 hPa 0,0 l/m 7,6 km/h (2 Bft) NO 43 2 min 0,330 mm 2,3 UV-I 761 W/m 0,4 C 6,4 C 14,5 km/h (3 Bft) 97,87 %
12.04.2019 12:02 7,6 C 0,0 C 19,4 C 62 % 1018,5 hPa 0,0 l/m 12,0 km/h (2 Bft) O-SO 107 2 min 0,000 mm 2,8 UV-I 751 W/m 0,8 C 3,8 C 19,3 km/h (3 Bft) 92,00 %
12.04.2019 12:04 7,8 C 0,0 C 21,1 C 63 % 1018,6 hPa 0,0 l/m 15,6 km/h (3 Bft) NO 54 2 min 0,000 mm 2,9 UV-I 770 W/m 1,2 C 2,2 C 20,9 km/h (4 Bft) 91,49 %
12.04.2019 12:06 8,1 C 0,0 C 22,2 C 61 % 1018,6 hPa 0,0 l/m 11,3 km/h (2 Bft) O-SO 105 2 min 0,000 mm 2,9 UV-I 795 W/m 1,0 C 4,7 C 16,1 km/h (3 Bft) 96,00 %
12.04.2019 12:08 7,9 C 0,0 C 23,3 C 59 % 1018,6 hPa 0,0 l/m 5,3 km/h (1 Bft) O-SO 107 2 min 0,000 mm 2,8 UV-I 808 W/m 0,4 C 7,9 C 11,3 km/h (2 Bft) 94,29 %
12.04.2019 12:10 7,8 C 0,0 C 24,4 C 60 % 1018,5 hPa 0,0 l/m 5,3 km/h (1 Bft) N-NO 17 2 min 0,000 mm 2,8 UV-I 798 W/m 0,5 C 7,8 C 9,7 km/h (2 Bft) 96,00 %
12.04.2019 12:12 8,1 C 0,0 C 24,4 C 62 % 1018,5 hPa 0,0 l/m 12,7 km/h (3 Bft) O-NO 69 2 min 0,000 mm 2,9 UV-I 821 W/m 1,3 C 4,0 C 20,9 km/h (4 Bft) 95,74 %
12.04.2019 12:14 8,1 C 0,0 C 22,8 C 57 % 1018,6 hPa 0,0 l/m 15,8 km/h (3 Bft) O 93 2 min 0,000 mm 2,7 UV-I 795 W/m 0,1 C 2,5 C 19,3 km/h (3 Bft) 93,62 %
12.04.2019 12:16 7,8 C 0,0 C 19,4 C 58 % 1018,5 hPa 0,0 l/m 13,5 km/h (3 Bft) SO 125 0 min 0,000 mm 2,2 UV-I 393 W/m 0,1 C 3,2 C 17,7 km/h (3 Bft) 96,00 %
12.04.2019 12:18 7,5 C 0,0 C 17,8 C 60 % 1018,5 hPa 0,0 l/m 7,9 km/h (2 Bft) SO 145 0 min 0,000 mm 2,1 UV-I 353 W/m 0,2 C 6,3 C 12,9 km/h (3 Bft) 95,74 %
12.04.2019 12:20 7,5 C 0,0 C 20,0 C 61 % 1018,5 hPa 0,0 l/m 11,5 km/h (2 Bft) O-NO 75 2 min 0,000 mm 2,7 UV-I 577 W/m 0,5 C 3,9 C 22,5 km/h (4 Bft) 95,74 %
12.04.2019 12:22 7,8 C 0,0 C 20,0 C 62 % 1018,5 hPa 0,0 l/m 15,1 km/h (3 Bft) O-NO 68 2 min 0,000 mm 2,7 UV-I 824 W/m 1,0 C 2,4 C 20,9 km/h (4 Bft) 97,87 %
12.04.2019 12:24 7,9 C 0,0 C 19,4 C 61 % 1018,5 hPa 0,0 l/m 8,8 km/h (2 Bft) O-NO 71 2 min 0,000 mm 2,5 UV-I 585 W/m 0,9 C 6,1 C 14,5 km/h (3 Bft) 95,83 %
12.04.2019 12:26 8,2 C 0,0 C 21,7 C 62 % 1018,5 hPa 0,0 l/m 10,5 km/h (2 Bft) SO 134 2 min 0,000 mm 3,1 UV-I 583 W/m 1,4 C 5,3 C 17,7 km/h (3 Bft) 95,74 %
12.04.2019 12:28 8,4 C 0,0 C 23,3 C 60 % 1018,4 hPa 0,0 l/m 5,8 km/h (2 Bft) SO 141 2 min 0,000 mm 3,1 UV-I 870 W/m 1,1 C 8,4 C 19,3 km/h (3 Bft) 95,74 %
12.04.2019 12:30 8,4 C 0,0 C 23,9 C 58 % 1018,4 hPa 0,0 l/m 9,0 km/h (2 Bft) S-SO 153 2 min 0,000 mm 3,1 UV-I 885 W/m 0,6 C 6,5 C 12,9 km/h (3 Bft) 95,74 %
12.04.2019 12:32 8,3 C 0,0 C 25,0 C 58 % 1018,4 hPa 0,0 l/m 4,7 km/h (1 Bft) O-NO 71 2 min 0,000 mm 2,9 UV-I 868 W/m 0,5 C 8,3 C 14,5 km/h (3 Bft) 95,74 %
12.04.2019 12:34 8,5 C 0,0 C 26,1 C 62 % 1018,4 hPa 0,0 l/m 12,6 km/h (3 Bft) O-SO 103 2 min 0,000 mm 2,9 UV-I 842 W/m 1,6 C 4,5 C 20,9 km/h (4 Bft) 95,74 %
12.04.2019 12:36 8,6 C 0,0 C 25,6 C 58 % 1018,4 hPa 0,0 l/m 13,6 km/h (3 Bft) NO 50 2 min 0,000 mm 3,1 UV-I 888 W/m 0,8 C 4,1 C 19,3 km/h (3 Bft) 95,74 %
12.04.2019 12:39 8,7 C 0,0 C 25,0 C 57 % 1018,4 hPa 0,0 l/m 12,9 km/h (3 Bft) O 92 3 min 0,000 mm 3,1 UV-I 846 W/m 0,7 C 4,6 C 22,5 km/h (4 Bft) 94,52 %
12.04.2019 12:40 8,7 C 0,0 C 26,1 C 57 % 1018,4 hPa 0,0 l/m 6,2 km/h (2 Bft) O-NO 77 1 min 0,000 mm 3,1 UV-I 856 W/m 0,7 C 8,7 C 11,3 km/h (2 Bft) 100,00 %
12.04.2019 12:42 8,7 C 0,0 C 25,6 C 59 % 1018,4 hPa 0,0 l/m 6,4 km/h (2 Bft) O 83 2 min 0,000 mm 3,2 UV-I 886 W/m 1,1 C 8,7 C 14,5 km/h (3 Bft) 95,74 %
12.04.2019 12:44 8,7 C 0,0 C 27,2 C 59 % 1018,4 hPa 0,0 l/m 10,7 km/h (2 Bft) O-SO 121 2 min 0,000 mm 3,2 UV-I 906 W/m 1,1 C 5,7 C 17,7 km/h (3 Bft) 96,23 %
12.04.2019 12:46 8,7 C 0,0 C 27,2 C 57 % 1018,3 hPa 0,0 l/m 7,8 km/h (2 Bft) N 5 2 min 0,000 mm 3,2 UV-I 911 W/m 0,7 C 7,6 C 12,9 km/h (3 Bft) 93,62 %
12.04.2019 12:48 8,9 C 0,0 C 26,1 C 61 % 1018,3 hPa 0,0 l/m 13,0 km/h (3 Bft) N-NO 27 2 min 0,000 mm 3,1 UV-I 913 W/m 1,8 C 4,7 C 17,7 km/h (3 Bft) 97,87 %
12.04.2019 12:50 9,1 C 0,0 C 25,0 C 61 % 1018,3 hPa 0,0 l/m 14,1 km/h (3 Bft) N-NO 28 2 min 0,000 mm 3,0 UV-I 919 W/m 2,0 C 4,4 C 19,3 km/h (3 Bft) 95,74 %
12.04.2019 12:52 9,2 C 0,0 C 25,0 C 60 % 1018,3 hPa 0,0 l/m 15,5 km/h (3 Bft) NO 53 2 min 0,000 mm 3,0 UV-I 918 W/m 1,8 C 4,0 C 20,9 km/h (4 Bft) 97,87 %
12.04.2019 12:54 9,2 C 0,0 C 24,4 C 59 % 1018,3 hPa 0,0 l/m 14,8 km/h (3 Bft) O-NO 69 2 min 0,000 mm 3,0 UV-I 905 W/m 1,6 C 4,3 C 20,9 km/h (4 Bft) 98,00 %
12.04.2019 12:56 9,1 C 0,0 C 23,9 C 56 % 1018,3 hPa 0,0 l/m 14,2 km/h (3 Bft) O 91 2 min 0,000 mm 3,0 UV-I 907 W/m 0,8 C 4,4 C 22,5 km/h (4 Bft) 97,87 %
12.04.2019 12:58 8,9 C 0,0 C 25,0 C 56 % 1018,3 hPa 0,0 l/m 12,7 km/h (3 Bft) O-NO 69 2 min 0,000 mm 3,1 UV-I 911 W/m 0,6 C 4,9 C 17,7 km/h (3 Bft) 97,56 %
12.04.2019 13:00 8,8 C 0,0 C 25,6 C 55 % 1018,2 hPa 0,0 l/m 8,3 km/h (2 Bft) O 84 2 min 0,000 mm 3,1 UV-I 912 W/m 0,3 C 7,4 C 17,7 km/h (3 Bft) 95,74 %
12.04.2019 13:02 8,6 C 0,0 C 26,1 C 55 % 1018,3 hPa 0,0 l/m 6,9 km/h (2 Bft) O-NO 59 2 min 0,381 mm 3,1 UV-I 918 W/m 0,1 C 8,2 C 14,5 km/h (3 Bft) 96,00 %
12.04.2019 13:04 8,8 C 0,0 C 26,7 C 57 % 1018,3 hPa 0,0 l/m 12,7 km/h (3 Bft) O-SO 114 2 min 0,000 mm 3,2 UV-I 918 W/m 0,8 C 4,8 C 19,3 km/h (3 Bft) 94,44 %
12.04.2019 13:06 9,0 C 0,0 C 27,2 C 59 % 1018,2 hPa 0,0 l/m 15,2 km/h (3 Bft) O 88 2 min 0,000 mm 3,2 UV-I 899 W/m 1,4 C 3,8 C 22,5 km/h (4 Bft) 96,00 %
12.04.2019 13:08 9,2 C 0,0 C 26,7 C 60 % 1018,1 hPa 0,0 l/m 15,4 km/h (3 Bft) NO 34 2 min 0,000 mm 3,2 UV-I 881 W/m 1,8 C 4,0 C 20,9 km/h (4 Bft) 95,74 %
12.04.2019 13:10 9,4 C 0,0 C 24,4 C 60 % 1018,2 hPa 0,0 l/m 15,2 km/h (3 Bft) O-NO 57 2 min 0,000 mm 3,2 UV-I 850 W/m 2,0 C 4,3 C 22,5 km/h (4 Bft) 95,74 %
12.04.2019 13:12 9,3 C 0,0 C 23,3 C 58 % 1018,1 hPa 0,0 l/m 16,6 km/h (3 Bft) NO 49 2 min 0,000 mm 3,1 UV-I 826 W/m 1,5 C 3,6 C 24,1 km/h (4 Bft) 92,00 %
12.04.2019 13:14 9,2 C 0,0 C 22,8 C 57 % 1018,2 hPa 0,0 l/m 12,1 km/h (2 Bft) NO 52 2 min 0,000 mm 3,1 UV-I 838 W/m 1,1 C 5,5 C 19,3 km/h (3 Bft) 97,87 %
12.04.2019 13:16 9,3 C 0,0 C 23,9 C 56 % 1018,2 hPa 0,0 l/m 14,2 km/h (3 Bft) O-SO 103 2 min 0,000 mm 3,2 UV-I 860 W/m 1,0 C 4,6 C 20,9 km/h (4 Bft) 95,74 %
12.04.2019 13:18 9,3 C 0,0 C 25,0 C 53 % 1018,2 hPa 0,0 l/m 13,6 km/h (3 Bft) O-SO 116 2 min 0,000 mm 3,1 UV-I 838 W/m 0,2 C 4,9 C 20,9 km/h (4 Bft) 94,00 %
12.04.2019 13:20 9,1 C 0,0 C 23,9 C 53 % 1018,2 hPa 0,0 l/m 12,4 km/h (3 Bft) O-NO 59 2 min 0,000 mm 3,0 UV-I 816 W/m 0,0 C 5,3 C 19,3 km/h (3 Bft) 93,62 %
12.04.2019 13:22 8,9 C 0,0 C 25,0 C 56 % 1018,1 hPa 0,0 l/m 12,2 km/h (2 Bft) O 80 2 min 0,000 mm 3,2 UV-I 877 W/m 0,6 C 5,1 C 20,9 km/h (4 Bft) 95,74 %
12.04.2019 13:24 8,9 C 0,0 C 25,6 C 54 % 1018,1 hPa 0,0 l/m 12,5 km/h (3 Bft) O-NO 69 2 min 0,000 mm 3,2 UV-I 877 W/m 0,1 C 5,0 C 17,7 km/h (3 Bft) 95,74 %
12.04.2019 13:26 8,9 C 0,0 C 23,9 C 55 % 1018,0 hPa 0,0 l/m 7,9 km/h (2 Bft) O-NO 65 2 min 0,000 mm 3,2 UV-I 894 W/m 0,4 C 7,8 C 12,9 km/h (3 Bft) 91,49 %
12.04.2019 13:28 8,8 C 0,0 C 25,6 C 52 % 1018,1 hPa 0,0 l/m 8,5 km/h (2 Bft) O-SO 114 2 min 0,000 mm 3,2 UV-I 912 W/m -0,5 C 7,2 C 14,5 km/h (3 Bft) 95,74 %
12.04.2019 13:30 8,8 C 0,0 C 26,1 C 54 % 1018,1 hPa 0,0 l/m 11,9 km/h (2 Bft) O 80 2 min 0,000 mm 3,1 UV-I 927 W/m 0,0 C 5,2 C 20,9 km/h (4 Bft) 93,62 %
12.04.2019 13:32 8,9 C 0,0 C 26,1 C 53 % 1018,1 hPa 0,0 l/m 14,6 km/h (3 Bft) O-NO 78 2 min 0,000 mm 3,0 UV-I 923 W/m -0,1 C 4,0 C 19,3 km/h (3 Bft) 97,37 %
12.04.2019 13:34 8,9 C 0,0 C 24,4 C 52 % 1018,0 hPa 0,0 l/m 13,5 km/h (3 Bft) O 80 2 min 0,000 mm 2,8 UV-I 835 W/m -0,4 C 4,5 C 17,7 km/h (3 Bft) 93,62 %
12.04.2019 13:36 8,8 C 0,0 C 23,3 C 55 % 1018,0 hPa 0,0 l/m 11,8 km/h (2 Bft) O 98 2 min 0,000 mm 2,9 UV-I 835 W/m 0,3 C 5,2 C 16,1 km/h (3 Bft) 95,74 %
12.04.2019 13:38 8,8 C 0,0 C 21,1 C 54 % 1018,0 hPa 0,0 l/m 12,1 km/h (2 Bft) O 98 2 min 0,000 mm 2,5 UV-I 648 W/m 0,0 C 5,1 C 19,3 km/h (3 Bft) 93,75 %
12.04.2019 13:40 8,6 C 0,0 C 18,9 C 56 % 1018,0 hPa 0,0 l/m 11,5 km/h (2 Bft) O 80 0 min 0,000 mm 2,4 UV-I 400 W/m 0,3 C 5,2 C 14,5 km/h (3 Bft) 95,74 %
12.04.2019 13:42 8,7 C 0,0 C 18,3 C 57 % 1018,0 hPa 0,0 l/m 8,1 km/h (2 Bft) O-NO 57 0 min 0,000 mm 2,4 UV-I 407 W/m 0,7 C 7,4 C 14,5 km/h (3 Bft) 94,00 %
12.04.2019 13:44 8,7 C 0,0 C 17,2 C 55 % 1018,0 hPa 0,0 l/m 8,2 km/h (2 Bft) NO 46 2 min 0,000 mm 2,4 UV-I 436 W/m 0,2 C 7,3 C 14,5 km/h (3 Bft) 95,74 %
12.04.2019 13:46 8,7 C 0,0 C 18,9 C 53 % 1018,0 hPa 0,0 l/m 7,4 km/h (2 Bft) O-NO 67 2 min 0,000 mm 2,7 UV-I 524 W/m -0,3 C 7,9 C 17,7 km/h (3 Bft) 89,36 %
12.04.2019 13:48 8,8 C 0,0 C 21,7 C 51 % 1018,0 hPa 0,0 l/m 13,2 km/h (3 Bft) O 90 2 min 0,000 mm 2,8 UV-I 815 W/m -0,8 C 4,5 C 17,7 km/h (3 Bft) 95,74 %
12.04.2019 13:50 8,9 C 0,0 C 22,8 C 53 % 1018,0 hPa 0,0 l/m 12,8 km/h (3 Bft) O-NO 59 2 min 0,000 mm 2,8 UV-I 906 W/m -0,1 C 4,8 C 17,7 km/h (3 Bft) 93,62 %
12.04.2019 13:52 9,2 C 0,0 C 23,3 C 57 % 1018,0 hPa 0,0 l/m 6,2 km/h (2 Bft) O-NO 63 2 min 0,000 mm 2,8 UV-I 884 W/m 1,1 C 9,2 C 9,7 km/h (2 Bft) 95,74 %
12.04.2019 13:54 9,3 C 0,0 C 24,4 C 49 % 1018,0 hPa 0,0 l/m 6,5 km/h (2 Bft) O-NO 58 2 min 0,000 mm 2,8 UV-I 802 W/m -0,9 C 9,3 C 12,9 km/h (3 Bft) 93,62 %
12.04.2019 13:56 9,3 C 0,0 C 24,4 C 52 % 1018,0 hPa 0,0 l/m 9,1 km/h (2 Bft) NO 39 2 min 0,000 mm 2,8 UV-I 727 W/m -0,0 C 7,4 C 14,5 km/h (3 Bft) 96,00 %
12.04.2019 13:58 9,6 C 0,0 C 25,0 C 54 % 1018,0 hPa 0,0 l/m 8,7 km/h (2 Bft) NO 42 2 min 0,000 mm 2,9 UV-I 951 W/m 0,8 C 8,0 C 12,9 km/h (3 Bft) 93,62 %
12.04.2019 14:00 9,8 C 0,0 C 26,7 C 50 % 1018,0 hPa 0,0 l/m 8,9 km/h (2 Bft) NO 53 2 min 0,406 mm 2,9 UV-I 947 W/m -0,1 C 8,0 C 14,5 km/h (3 Bft) 95,74 %
12.04.2019 14:02 9,9 C 0,0 C 26,7 C 54 % 1018,0 hPa 0,0 l/m 11,6 km/h (2 Bft) O 88 2 min 0,000 mm 2,9 UV-I 922 W/m 1,0 C 6,6 C 16,1 km/h (3 Bft) 92,11 %
12.04.2019 14:04 9,9 C 0,0 C 27,2 C 54 % 1018,0 hPa 0,0 l/m 12,4 km/h (3 Bft) O 101 2 min 0,000 mm 2,9 UV-I 943 W/m 1,0 C 6,2 C 20,9 km/h (4 Bft) 94,00 %
12.04.2019 14:06 9,9 C 0,0 C 27,8 C 50 % 1018,0 hPa 0,0 l/m 14,7 km/h (3 Bft) O 88 2 min 0,000 mm 2,8 UV-I 940 W/m -0,0 C 5,1 C 20,9 km/h (4 Bft) 96,00 %
12.04.2019 14:08 9,8 C 0,0 C 27,8 C 51 % 1018,0 hPa 0,0 l/m 12,4 km/h (3 Bft) NO 50 2 min 0,000 mm 2,7 UV-I 907 W/m 0,2 C 6,1 C 17,7 km/h (3 Bft) 93,62 %
12.04.2019 14:10 10,1 C 0,0 C 27,2 C 56 % 1018,0 hPa 0,0 l/m 9,7 km/h (2 Bft) NO 55 2 min 0,000 mm 2,5 UV-I 885 W/m 1,7 C 7,9 C 14,5 km/h (3 Bft) 95,74 %
12.04.2019 14:12 10,2 C 0,0 C 24,4 C 55 % 1018,0 hPa 0,0 l/m 12,9 km/h (3 Bft) O-NO 76 2 min 0,000 mm 2,1 UV-I 870 W/m 1,6 C 6,3 C 20,9 km/h (4 Bft) 97,87 %
12.04.2019 14:14 9,9 C 0,0 C 21,7 C 51 % 1018,0 hPa 0,0 l/m 11,9 km/h (2 Bft) O 98 0 min 0,000 mm 1,8 UV-I 391 W/m 0,2 C 6,4 C 16,1 km/h (3 Bft) 95,74 %
12.04.2019 14:16 9,4 C 0,0 C 20,0 C 48 % 1018,0 hPa 0,0 l/m 7,5 km/h (2 Bft) O-NO 76 0 min 0,000 mm 1,7 UV-I 342 W/m -1,0 C 8,6 C 16,1 km/h (3 Bft) 95,74 %
12.04.2019 14:18 9,2 C 0,0 C 18,3 C 52 % 1018,1 hPa 0,0 l/m 10,6 km/h (2 Bft) O-NO 57 0 min 0,000 mm 1,7 UV-I 332 W/m -0,1 C 6,4 C 17,7 km/h (3 Bft) 97,87 %
12.04.2019 14:20 8,8 C 0,0 C 15,6 C 53 % 1018,1 hPa 0,0 l/m 8,9 km/h (2 Bft) O-NO 76 0 min 0,000 mm 1,7 UV-I 311 W/m -0,2 C 7,0 C 14,5 km/h (3 Bft) 97,92 %
12.04.2019 14:22 8,7 C 0,0 C 15,6 C 52 % 1018,1 hPa 0,0 l/m 3,8 km/h (1 Bft) O-NO 69 0 min 0,000 mm 1,6 UV-I 308 W/m -0,6 C 8,7 C 6,4 km/h (2 Bft) 97,37 %
12.04.2019 14:24 8,7 C 0,0 C 15,0 C 57 % 1018,0 hPa 0,0 l/m 10,5 km/h (2 Bft) N 9 0 min 0,000 mm 1,6 UV-I 313 W/m 0,7 C 5,9 C 16,1 km/h (3 Bft) 97,87 %
12.04.2019 14:26 8,7 C 0,0 C 13,9 C 55 % 1018,0 hPa 0,0 l/m 15,7 km/h (3 Bft) NO 42 0 min 0,000 mm 1,6 UV-I 317 W/m 0,2 C 3,3 C 20,9 km/h (4 Bft) 98,11 %
12.04.2019 14:28 8,5 C 0,0 C 13,3 C 56 % 1018,0 hPa 0,0 l/m 14,3 km/h (3 Bft) N-NO 22 0 min 0,000 mm 1,6 UV-I 327 W/m 0,2 C 3,6 C 20,9 km/h (4 Bft) 98,00 %
12.04.2019 14:30 8,4 C 0,0 C 12,8 C 54 % 1018,0 hPa 0,0 l/m 15,6 km/h (3 Bft) N-NO 25 0 min 0,000 mm 1,6 UV-I 334 W/m -0,4 C 2,9 C 20,9 km/h (4 Bft) 97,37 %
12.04.2019 14:32 8,3 C 0,0 C 12,8 C 54 % 1018,0 hPa 0,0 l/m 13,7 km/h (3 Bft) NO 46 0 min 0,000 mm 1,6 UV-I 352 W/m -0,5 C 3,7 C 20,9 km/h (4 Bft) 98,00 %
12.04.2019 14:34 8,3 C 0,0 C 13,3 C 58 % 1018,0 hPa 0,0 l/m 12,7 km/h (3 Bft) N 355 0 min 0,000 mm 1,8 UV-I 386 W/m 0,5 C 4,2 C 17,7 km/h (3 Bft) 95,74 %
12.04.2019 14:36 8,5 C 0,0 C 14,4 C 58 % 1018,0 hPa 0,0 l/m 12,6 km/h (3 Bft) N 5 2 min 0,000 mm 2,1 UV-I 406 W/m 0,7 C 4,5 C 16,1 km/h (3 Bft) 97,87 %
12.04.2019 14:38 8,7 C 0,0 C 18,3 C 57 % 1017,9 hPa 0,0 l/m 11,3 km/h (2 Bft) N-NO 19 2 min 0,000 mm 2,5 UV-I 693 W/m 0,7 C 5,4 C 17,7 km/h (3 Bft) 96,00 %
12.04.2019 14:40 8,9 C 0,0 C 17,8 C 56 % 1018,0 hPa 0,0 l/m 10,3 km/h (2 Bft) N-NO 20 2 min 0,000 mm 2,3 UV-I 743 W/m 0,6 C 6,2 C 14,5 km/h (3 Bft) 98,00 %
12.04.2019 14:42 8,9 C 0,0 C 16,7 C 55 % 1017,9 hPa 0,0 l/m 13,4 km/h (3 Bft) N-NW 346 2 min 0,000 mm 2,2 UV-I 459 W/m 0,4 C 4,5 C 19,3 km/h (3 Bft) 97,87 %
12.04.2019 14:44 9,1 C 0,0 C 19,4 C 56 % 1017,9 hPa 0,0 l/m 9,3 km/h (2 Bft) O-NO 60 2 min 0,000 mm 2,5 UV-I 715 W/m 0,8 C 7,0 C 14,5 km/h (3 Bft) 97,87 %
12.04.2019 14:46 9,3 C 0,0 C 21,7 C 57 % 1017,9 hPa 0,0 l/m 5,7 km/h (1 Bft) O-NO 68 2 min 0,000 mm 2,5 UV-I 827 W/m 1,2 C 9,3 C 8,0 km/h (2 Bft) 97,37 %
12.04.2019 14:48 9,6 C 0,0 C 22,8 C 54 % 1017,9 hPa 0,0 l/m 9,5 km/h (2 Bft) N-NO 24 2 min 0,000 mm 2,4 UV-I 745 W/m 0,8 C 7,5 C 17,7 km/h (3 Bft) 98,00 %
12.04.2019 14:50 9,7 C 0,0 C 20,0 C 55 % 1017,8 hPa 0,0 l/m 15,7 km/h (3 Bft) N 5 2 min 0,000 mm 2,2 UV-I 682 W/m 1,1 C 4,5 C 19,3 km/h (3 Bft) 98,00 %
12.04.2019 14:52 9,7 C 0,0 C 19,4 C 56 % 1017,9 hPa 0,0 l/m 12,0 km/h (2 Bft) O-NO 65 2 min 0,000 mm 2,0 UV-I 473 W/m 1,4 C 6,2 C 19,3 km/h (3 Bft) 97,87 %
12.04.2019 14:54 9,8 C 0,0 C 18,9 C 54 % 1017,9 hPa 0,0 l/m 11,9 km/h (2 Bft) NO 40 2 min 0,000 mm 1,9 UV-I 459 W/m 0,9 C 6,3 C 17,7 km/h (3 Bft) 97,87 %
12.04.2019 14:56 9,8 C 0,0 C 18,3 C 54 % 1017,9 hPa 0,0 l/m 11,4 km/h (2 Bft) N-NO 29 2 min 0,000 mm 1,8 UV-I 431 W/m 0,9 C 6,6 C 17,7 km/h (3 Bft) 95,74 %
12.04.2019 14:58 9,6 C 0,0 C 17,2 C 53 % 1017,9 hPa 0,0 l/m 11,6 km/h (2 Bft) N-NO 26 2 min 0,000 mm 1,6 UV-I 402 W/m 0,5 C 6,3 C 16,1 km/h (3 Bft) 94,44 %
12.04.2019 15:00 9,2 C 0,0 C 16,1 C 51 % 1017,9 hPa 0,0 l/m 10,9 km/h (2 Bft) NO 34 2 min 0,305 mm 1,5 UV-I 379 W/m -0,4 C 6,2 C 16,1 km/h (3 Bft) 96,00 %
12.04.2019 15:02 9,1 C 0,0 C 15,0 C 54 % 1017,9 hPa 0,0 l/m 13,6 km/h (3 Bft) NO 50 0 min 0,000 mm 1,5 UV-I 355 W/m 0,3 C 4,7 C 19,3 km/h (3 Bft) 95,74 %
12.04.2019 15:04 8,9 C 0,0 C 15,0 C 50 % 1017,9 hPa 0,0 l/m 11,1 km/h (2 Bft) NO 42 0 min 0,000 mm 1,4 UV-I 341 W/m -0,9 C 5,7 C 17,7 km/h (3 Bft) 93,62 %
12.04.2019 15:06 8,9 C 0,0 C 14,4 C 55 % 1017,9 hPa 0,0 l/m 12,3 km/h (3 Bft) O-NO 61 0 min 0,000 mm 1,4 UV-I 337 W/m 0,4 C 5,1 C 17,7 km/h (3 Bft) 94,00 %
12.04.2019 15:08 8,8 C 0,0 C 14,4 C 52 % 1017,9 hPa 0,0 l/m 12,9 km/h (3 Bft) O 82 0 min 0,000 mm 1,4 UV-I 336 W/m -0,5 C 4,7 C 16,1 km/h (3 Bft) 91,49 %
12.04.2019 15:10 8,7 C 0,0 C 14,4 C 50 % 1017,8 hPa 0,0 l/m 6,2 km/h (2 Bft) N-NO 32 0 min 0,000 mm 1,4 UV-I 334 W/m -1,1 C 8,7 C 8,0 km/h (2 Bft) 93,62 %
12.04.2019 15:12 8,7 C 0,0 C 14,4 C 55 % 1017,8 hPa 0,0 l/m 10,0 km/h (2 Bft) N-NO 29 0 min 0,000 mm 1,4 UV-I 336 W/m 0,2 C 6,2 C 17,7 km/h (3 Bft) 91,49 %
12.04.2019 15:14 8,9 C 0,0 C 14,4 C 56 % 1017,8 hPa 0,0 l/m 14,0 km/h (3 Bft) O-NO 61 0 min 0,000 mm 1,4 UV-I 347 W/m 0,6 C 4,3 C 17,7 km/h (3 Bft) 89,36 %
12.04.2019 15:16 8,9 C 0,0 C 14,4 C 53 % 1017,8 hPa 0,0 l/m 12,4 km/h (3 Bft) O-NO 67 0 min 0,000 mm 1,5 UV-I 363 W/m -0,1 C 5,0 C 16,1 km/h (3 Bft) 94,00 %
12.04.2019 15:18 8,8 C 0,0 C 14,4 C 52 % 1017,8 hPa 0,0 l/m 7,4 km/h (2 Bft) O-NO 67 2 min 0,000 mm 1,5 UV-I 379 W/m -0,5 C 8,0 C 11,3 km/h (2 Bft) 91,49 %
12.04.2019 15:20 8,8 C 0,0 C 15,0 C 55 % 1017,8 hPa 0,0 l/m 10,6 km/h (2 Bft) O-NO 73 2 min 0,000 mm 1,5 UV-I 388 W/m 0,3 C 5,9 C 16,1 km/h (3 Bft) 91,49 %
12.04.2019 15:22 8,8 C 0,0 C 16,1 C 49 % 1017,8 hPa 0,0 l/m 7,8 km/h (2 Bft) O 94 2 min 0,000 mm 1,6 UV-I 418 W/m -1,3 C 7,7 C 12,9 km/h (3 Bft) 91,49 %
12.04.2019 15:24 8,7 C 0,0 C 16,1 C 50 % 1017,8 hPa 0,0 l/m 5,9 km/h (2 Bft) NO 47 2 min 0,000 mm 1,6 UV-I 380 W/m -1,1 C 8,7 C 11,3 km/h (2 Bft) 95,74 %
12.04.2019 15:26 8,7 C 0,0 C 16,1 C 52 % 1017,7 hPa 0,0 l/m 7,5 km/h (2 Bft) NO 50 2 min 0,000 mm 1,5 UV-I 371 W/m -0,6 C 7,9 C 14,5 km/h (3 Bft) 95,74 %
12.04.2019 15:28 8,8 C 0,0 C 15,6 C 53 % 1017,8 hPa 0,0 l/m 10,4 km/h (2 Bft) O-NO 62 2 min 0,000 mm 1,5 UV-I 365 W/m -0,2 C 6,0 C 14,5 km/h (3 Bft) 100,00 %
12.04.2019 15:30 8,8 C 0,0 C 15,0 C 53 % 1017,7 hPa 0,0 l/m 6,5 km/h (2 Bft) NO 52 2 min 0,000 mm 1,5 UV-I 365 W/m -0,2 C 8,7 C 9,7 km/h (2 Bft) 98,00 %
12.04.2019 15:32 8,9 C 0,0 C 15,0 C 53 % 1017,7 hPa 0,0 l/m 10,1 km/h (2 Bft) N-NO 22 2 min 0,000 mm 1,5 UV-I 368 W/m -0,1 C 6,3 C 14,5 km/h (3 Bft) 100,00 %
12.04.2019 15:34 8,9 C 0,0 C 15,0 C 51 % 1017,7 hPa 0,0 l/m 6,2 km/h (2 Bft) NO 53 2 min 0,000 mm 1,4 UV-I 357 W/m -0,7 C 8,9 C 11,3 km/h (2 Bft) 96,00 %
12.04.2019 15:36 8,7 C 0,0 C 15,0 C 53 % 1017,7 hPa 0,0 l/m 6,0 km/h (2 Bft) O-NO 59 2 min 0,000 mm 1,4 UV-I 358 W/m -0,3 C 8,7 C 11,3 km/h (2 Bft) 100,00 %
12.04.2019 15:38 8,8 C 0,0 C 14,4 C 54 % 1017,6 hPa 0,0 l/m 8,8 km/h (2 Bft) N-NO 16 2 min 0,000 mm 1,4 UV-I 361 W/m 0,0 C 7,0 C 17,7 km/h (3 Bft) 97,87 %
12.04.2019 15:40 8,7 C 0,0 C 14,4 C 52 % 1017,6 hPa 0,0 l/m 6,6 km/h (2 Bft) N-NO 29 2 min 0,000 mm 1,3 UV-I 350 W/m -0,6 C 8,6 C 12,9 km/h (3 Bft) 97,87 %
12.04.2019 15:42 8,7 C 0,0 C 14,4 C 54 % 1017,7 hPa 0,0 l/m 10,2 km/h (2 Bft) N-NW 336 0 min 0,000 mm 1,2 UV-I 330 W/m -0,1 C 6,0 C 16,1 km/h (3 Bft) 98,00 %
12.04.2019 15:44 8,7 C 0,0 C 13,9 C 54 % 1017,6 hPa 0,0 l/m 11,1 km/h (2 Bft) O-NO 71 0 min 0,000 mm 1,2 UV-I 315 W/m -0,1 C 5,5 C 19,3 km/h (3 Bft) 100,00 %
12.04.2019 15:46 8,8 C 0,0 C 13,3 C 53 % 1017,6 hPa 0,0 l/m 15,6 km/h (3 Bft) NO 49 0 min 0,000 mm 1,1 UV-I 302 W/m -0,2 C 3,4 C 20,9 km/h (4 Bft) 100,00 %
12.04.2019 15:48 8,7 C 0,0 C 12,8 C 53 % 1017,6 hPa 0,0 l/m 11,6 km/h (2 Bft) O-NO 61 0 min 0,000 mm 1,0 UV-I 280 W/m -0,3 C 5,2 C 19,3 km/h (3 Bft) 100,00 %
12.04.2019 15:50 8,6 C 0,0 C 12,2 C 51 % 1017,6 hPa 0,0 l/m 9,3 km/h (2 Bft) NO 41 0 min 0,000 mm 1,0 UV-I 262 W/m -1,0 C 6,5 C 16,1 km/h (3 Bft) 97,87 %
12.04.2019 15:52 8,7 C 0,0 C 12,8 C 53 % 1017,6 hPa 0,0 l/m 11,0 km/h (2 Bft) O-NO 67 0 min 0,000 mm 0,9 UV-I 256 W/m -0,3 C 5,6 C 14,5 km/h (3 Bft) 100,00 %
12.04.2019 15:54 8,7 C 0,0 C 12,8 C 51 % 1017,6 hPa 0,0 l/m 6,4 km/h (2 Bft) O-SO 119 0 min 0,000 mm 0,9 UV-I 259 W/m -0,9 C 8,7 C 11,3 km/h (2 Bft) 100,00 %
12.04.2019 15:56 8,7 C 0,0 C 12,8 C 52 % 1017,6 hPa 0,0 l/m 5,2 km/h (1 Bft) NO 42 0 min 0,000 mm 0,9 UV-I 257 W/m -0,6 C 8,7 C 9,7 km/h (2 Bft) 95,74 %
12.04.2019 15:58 8,7 C 0,0 C 12,8 C 53 % 1017,6 hPa 0,0 l/m 6,9 km/h (2 Bft) NO 34 0 min 0,000 mm 0,9 UV-I 255 W/m -0,3 C 8,3 C 12,9 km/h (3 Bft) 100,00 %
12.04.2019 16:00 8,7 C 0,0 C 12,2 C 54 % 1017,6 hPa 0,0 l/m 15,1 km/h (3 Bft) NO 35 0 min 0,203 mm 0,9 UV-I 256 W/m -0,1 C 3,5 C 19,3 km/h (3 Bft) 100,00 %
12.04.2019 16:02 8,7 C 0,0 C 11,7 C 54 % 1017,7 hPa 0,0 l/m 12,8 km/h (3 Bft) NO 38 0 min 0,000 mm 0,9 UV-I 254 W/m -0,1 C 4,6 C 17,7 km/h (3 Bft) 100,00 %
12.04.2019 16:04 8,7 C 0,0 C 12,2 C 52 % 1017,7 hPa 0,0 l/m 10,3 km/h (2 Bft) O 94 0 min 0,000 mm 0,9 UV-I 251 W/m -0,6 C 6,0 C 16,1 km/h (3 Bft) 100,00 %
12.04.2019 16:06 8,7 C 0,0 C 12,2 C 52 % 1017,6 hPa 0,0 l/m 8,7 km/h (2 Bft) N-NO 31 0 min 0,000 mm 0,9 UV-I 254 W/m -0,6 C 7,0 C 12,9 km/h (3 Bft) 97,87 %
12.04.2019 16:08 8,8 C 0,0 C 12,8 C 52 % 1017,7 hPa 0,0 l/m 6,6 km/h (2 Bft) NO 54 0 min 0,000 mm 0,9 UV-I 258 W/m -0,5 C 8,7 C 9,7 km/h (2 Bft) 98,00 %
12.04.2019 16:10 8,9 C 0,0 C 12,8 C 53 % 1017,7 hPa 0,0 l/m 9,4 km/h (2 Bft) NO 51 0 min 0,000 mm 0,9 UV-I 258 W/m -0,1 C 6,8 C 14,5 km/h (3 Bft) 98,00 %
12.04.2019 16:12 8,8 C 0,0 C 12,8 C 50 % 1017,6 hPa 0,0 l/m 6,3 km/h (2 Bft) NO 35 0 min 0,000 mm 0,9 UV-I 252 W/m -1,0 C 8,8 C 8,0 km/h (2 Bft) 100,00 %
12.04.2019 16:14 8,7 C 0,0 C 12,8 C 52 % 1017,6 hPa 0,0 l/m 5,1 km/h (1 Bft) O-NO 69 0 min 0,000 mm 0,9 UV-I 245 W/m -0,6 C 8,7 C 9,7 km/h (2 Bft) 95,74 %
12.04.2019 16:16 8,7 C 0,0 C 12,8 C 52 % 1017,6 hPa 0,0 l/m 4,7 km/h (1 Bft) NO 38 0 min 0,000 mm 0,8 UV-I 238 W/m -0,6 C 8,7 C 6,4 km/h (2 Bft) 100,00 %
12.04.2019 16:18 8,8 C 0,0 C 13,3 C 52 % 1017,6 hPa 0,0 l/m 7,9 km/h (2 Bft) O-NO 76 0 min 0,000 mm 0,8 UV-I 236 W/m -0,5 C 7,7 C 12,9 km/h (3 Bft) 100,00 %
12.04.2019 16:20 8,8 C 0,0 C 12,8 C 51 % 1017,6 hPa 0,0 l/m 10,2 km/h (2 Bft) O 80 0 min 0,000 mm 0,8 UV-I 229 W/m -0,8 C 6,1 C 14,5 km/h (3 Bft) 100,00 %
12.04.2019 16:22 8,7 C 0,0 C 12,8 C 52 % 1017,6 hPa 0,0 l/m 9,9 km/h (2 Bft) NO 38 0 min 0,000 mm 0,8 UV-I 220 W/m -0,6 C 6,2 C 14,5 km/h (3 Bft) 96,00 %
12.04.2019 16:24 8,6 C 0,0 C 12,2 C 51 % 1017,7 hPa 0,0 l/m 7,1 km/h (2 Bft) NO 49 0 min 0,000 mm 0,8 UV-I 215 W/m -1,0 C 8,1 C 12,9 km/h (3 Bft) 95,74 %
12.04.2019 16:26 8,6 C 0,0 C 12,2 C 50 % 1017,6 hPa 0,0 l/m 6,2 km/h (2 Bft) O 96 0 min 0,000 mm 0,8 UV-I 214 W/m -1,2 C 8,6 C 9,7 km/h (2 Bft) 97,87 %
12.04.2019 16:28 8,6 C 0,0 C 12,8 C 50 % 1017,6 hPa 0,0 l/m 5,3 km/h (1 Bft) O 80 0 min 0,000 mm 0,8 UV-I 222 W/m -1,2 C 8,6 C 8,0 km/h (2 Bft) 96,00 %
12.04.2019 16:30 8,6 C 0,0 C 12,8 C 52 % 1017,6 hPa 0,0 l/m 4,1 km/h (1 Bft) NO 47 0 min 0,000 mm 0,7 UV-I 231 W/m -0,7 C 8,6 C 6,4 km/h (2 Bft) 95,12 %
12.04.2019 16:32 8,7 C 0,0 C 12,8 C 51 % 1017,7 hPa 0,0 l/m 3,9 km/h (1 Bft) NO 51 0 min 0,000 mm 0,7 UV-I 233 W/m -0,9 C 8,7 C 8,0 km/h (2 Bft) 95,74 %
12.04.2019 16:34 8,7 C 0,0 C 12,8 C 51 % 1017,6 hPa 0,0 l/m 5,6 km/h (1 Bft) N-NO 28 0 min 0,000 mm 0,7 UV-I 231 W/m -0,9 C 8,7 C 8,0 km/h (2 Bft) 92,00 %
12.04.2019 16:36 8,8 C 0,0 C 12,8 C 52 % 1017,6 hPa 0,0 l/m 6,5 km/h (2 Bft) O-NO 71 0 min 0,000 mm 0,7 UV-I 230 W/m -0,5 C 8,7 C 8,0 km/h (2 Bft) 95,74 %
12.04.2019 16:38 8,7 C 0,0 C 13,3 C 49 % 1017,6 hPa 0,0 l/m 5,2 km/h (1 Bft) O-NO 75 0 min 0,000 mm 0,6 UV-I 228 W/m -1,4 C 8,7 C 9,7 km/h (2 Bft) 94,00 %
12.04.2019 16:40 8,7 C 0,0 C 13,3 C 50 % 1017,7 hPa 0,0 l/m 8,0 km/h (2 Bft) O 84 0 min 0,000 mm 0,6 UV-I 222 W/m -1,1 C 7,5 C 11,3 km/h (2 Bft) 93,62 %
12.04.2019 16:42 8,7 C 0,0 C 12,8 C 51 % 1017,6 hPa 0,0 l/m 7,8 km/h (2 Bft) O 92 0 min 0,000 mm 0,6 UV-I 216 W/m -0,9 C 7,6 C 12,9 km/h (3 Bft) 93,62 %
12.04.2019 16:44 8,7 C 0,0 C 13,3 C 51 % 1017,7 hPa 0,0 l/m 5,1 km/h (1 Bft) O 85 0 min 0,000 mm 0,6 UV-I 209 W/m -0,9 C 8,7 C 6,4 km/h (2 Bft) 95,12 %
12.04.2019 16:46 8,7 C 0,0 C 13,3 C 53 % 1017,7 hPa 0,0 l/m 6,8 km/h (2 Bft) NO 54 0 min 0,000 mm 0,6 UV-I 207 W/m -0,3 C 8,4 C 9,7 km/h (2 Bft) 93,62 %
12.04.2019 16:48 8,7 C 0,0 C 12,8 C 53 % 1017,7 hPa 0,0 l/m 8,0 km/h (2 Bft) NO 35 0 min 0,000 mm 0,6 UV-I 209 W/m -0,3 C 7,5 C 14,5 km/h (3 Bft) 95,74 %
12.04.2019 16:50 8,7 C 0,0 C 12,2 C 53 % 1017,7 hPa 0,0 l/m 8,4 km/h (2 Bft) NO 45 0 min 0,000 mm 0,6 UV-I 207 W/m -0,3 C 7,2 C 14,5 km/h (3 Bft) 97,92 %
12.04.2019 16:52 8,7 C 0,0 C 12,2 C 53 % 1017,6 hPa 0,0 l/m 10,9 km/h (2 Bft) N-NO 25 0 min 0,000 mm 0,5 UV-I 207 W/m -0,3 C 5,6 C 14,5 km/h (3 Bft) 95,74 %
12.04.2019 16:54 8,6 C 0,0 C 11,7 C 52 % 1017,6 hPa 0,0 l/m 8,6 km/h (2 Bft) N-NO 22 0 min 0,000 mm 0,5 UV-I 209 W/m -0,7 C 7,0 C 12,9 km/h (3 Bft) 97,87 %
12.04.2019 16:56 8,6 C 0,0 C 11,7 C 54 % 1017,6 hPa 0,0 l/m 7,5 km/h (2 Bft) N-NO 28 0 min 0,000 mm 0,5 UV-I 208 W/m -0,2 C 7,8 C 12,9 km/h (3 Bft) 95,74 %
12.04.2019 16:58 8,6 C 0,0 C 11,7 C 55 % 1017,6 hPa 0,0 l/m 8,6 km/h (2 Bft) O-NO 57 0 min 0,000 mm 0,5 UV-I 209 W/m 0,1 C 7,0 C 11,3 km/h (2 Bft) 97,87 %
12.04.2019 17:00 8,7 C 0,0 C 12,2 C 54 % 1017,6 hPa 0,0 l/m 7,2 km/h (2 Bft) O-NO 67 0 min 0,153 mm 0,5 UV-I 219 W/m -0,1 C 8,1 C 9,7 km/h (2 Bft) 95,74 %
12.04.2019 17:02 8,7 C 0,0 C 12,8 C 50 % 1017,6 hPa 0,0 l/m 6,8 km/h (2 Bft) O-NO 57 0 min 0,000 mm 0,5 UV-I 221 W/m -1,1 C 8,4 C 11,3 km/h (2 Bft) 95,74 %
12.04.2019 17:04 8,7 C 0,0 C 13,3 C 49 % 1017,6 hPa 0,0 l/m 4,6 km/h (1 Bft) NO 56 0 min 0,000 mm 0,5 UV-I 235 W/m -1,4 C 8,7 C 6,4 km/h (2 Bft) 97,87 %
12.04.2019 17:06 8,7 C 0,0 C 14,4 C 49 % 1017,6 hPa 0,0 l/m 4,3 km/h (1 Bft) O-NO 76 2 min 0,000 mm 0,6 UV-I 313 W/m -1,4 C 8,7 C 6,4 km/h (2 Bft) 100,00 %
12.04.2019 17:08 8,9 C 0,0 C 14,4 C 53 % 1017,6 hPa 0,0 l/m 4,9 km/h (1 Bft) NO 56 2 min 0,000 mm 0,5 UV-I 294 W/m -0,1 C 8,9 C 8,0 km/h (2 Bft) 98,00 %
12.04.2019 17:10 8,9 C 0,0 C 13,9 C 50 % 1017,6 hPa 0,0 l/m 7,3 km/h (2 Bft) O 79 0 min 0,000 mm 0,5 UV-I 226 W/m -0,9 C 8,2 C 14,5 km/h (3 Bft) 97,87 %
12.04.2019 17:12 8,8 C 0,0 C 13,9 C 48 % 1017,6 hPa 0,0 l/m 9,9 km/h (2 Bft) SO 124 0 min 0,000 mm 0,5 UV-I 232 W/m -1,6 C 6,3 C 12,9 km/h (3 Bft) 97,87 %
12.04.2019 17:14 8,7 C 0,0 C 13,3 C 48 % 1017,6 hPa 0,0 l/m 5,8 km/h (2 Bft) O-SO 110 0 min 0,000 mm 0,5 UV-I 208 W/m -1,7 C 8,7 C 12,9 km/h (3 Bft) 100,00 %
12.04.2019 17:16 8,7 C 0,0 C 13,3 C 49 % 1017,7 hPa 0,0 l/m 6,8 km/h (2 Bft) NO 40 0 min 0,000 mm 0,5 UV-I 203 W/m -1,4 C 8,4 C 11,3 km/h (2 Bft) 100,00 %
12.04.2019 17:18 8,8 C 0,0 C 13,3 C 55 % 1017,7 hPa 0,0 l/m 4,9 km/h (1 Bft) NO 41 0 min 0,000 mm 0,5 UV-I 200 W/m 0,3 C 8,8 C 6,4 km/h (2 Bft) 97,87 %
12.04.2019 17:20 8,8 C 0,0 C 13,3 C 48 % 1017,7 hPa 0,0 l/m 5,9 km/h (2 Bft) O-NO 72 0 min 0,000 mm 0,3 UV-I 198 W/m -1,6 C 8,8 C 11,3 km/h (2 Bft) 98,00 %
12.04.2019 17:22 8,8 C 0,0 C 12,8 C 53 % 1017,7 hPa 0,0 l/m 6,5 km/h (2 Bft) NO 44 0 min 0,000 mm 0,0 UV-I 190 W/m -0,2 C 8,7 C 11,3 km/h (2 Bft) 100,00 %
12.04.2019 17:24 8,9 C 0,0 C 12,8 C 53 % 1017,7 hPa 0,0 l/m 8,0 km/h (2 Bft) NO 39 0 min 0,000 mm 0,0 UV-I 182 W/m -0,1 C 7,7 C 12,9 km/h (3 Bft) 100,00 %
12.04.2019 17:26 8,8 C 0,0 C 12,2 C 50 % 1017,6 hPa 0,0 l/m 4,1 km/h (1 Bft) O 84 0 min 0,000 mm 0,0 UV-I 179 W/m -1,0 C 8,8 C 6,4 km/h (2 Bft) 98,00 %
12.04.2019 17:28 8,7 C 0,0 C 12,2 C 48 % 1017,6 hPa 0,0 l/m 5,8 km/h (2 Bft) O 94 0 min 0,000 mm 0,0 UV-I 172 W/m -1,7 C 8,7 C 9,7 km/h (2 Bft) 100,00 %
12.04.2019 17:30 8,6 C 0,0 C 12,2 C 48 % 1017,6 hPa 0,0 l/m 3,0 km/h (1 Bft) O 90 0 min 0,000 mm 0,0 UV-I 165 W/m -1,8 C 8,6 C 6,4 km/h (2 Bft) 100,00 %
12.04.2019 17:32 8,5 C 0,0 C 12,2 C 50 % 1017,6 hPa 0,0 l/m 4,2 km/h (1 Bft) NO 53 0 min 0,000 mm 0,0 UV-I 163 W/m -1,3 C 8,5 C 6,4 km/h (2 Bft) 100,00 %
12.04.2019 17:34 8,6 C 0,0 C 11,7 C 53 % 1017,6 hPa 0,0 l/m 5,5 km/h (1 Bft) O-NO 59 0 min 0,000 mm 0,0 UV-I 158 W/m -0,4 C 8,6 C 9,7 km/h (2 Bft) 100,00 %
12.04.2019 17:36 8,5 C 0,0 C 11,7 C 50 % 1017,6 hPa 0,0 l/m 6,6 km/h (2 Bft) O-NO 65 0 min 0,000 mm 0,0 UV-I 157 W/m -1,3 C 8,4 C 9,7 km/h (2 Bft) 97,87 %
12.04.2019 17:38 8,4 C 0,0 C 11,7 C 51 % 1017,6 hPa 0,0 l/m 4,4 km/h (1 Bft) NO 41 0 min 0,000 mm 0,0 UV-I 161 W/m -1,1 C 8,4 C 8,0 km/h (2 Bft) 100,00 %
12.04.2019 17:40 8,4 C 0,0 C 11,1 C 52 % 1017,7 hPa 0,0 l/m 7,2 km/h (2 Bft) O-NO 78 0 min 0,000 mm 0,0 UV-I 178 W/m -0,9 C 7,8 C 12,9 km/h (3 Bft) 98,00 %
12.04.2019 17:42 8,4 C 0,0 C 10,6 C 54 % 1017,6 hPa 0,0 l/m 9,5 km/h (2 Bft) O-NO 60 0 min 0,000 mm 0,0 UV-I 161 W/m -0,4 C 6,1 C 14,5 km/h (3 Bft) 100,00 %
12.04.2019 17:44 8,4 C 0,0 C 10,6 C 53 % 1017,7 hPa 0,0 l/m 9,5 km/h (2 Bft) O-NO 63 0 min 0,000 mm 0,0 UV-I 143 W/m -0,6 C 6,1 C 12,9 km/h (3 Bft) 100,00 %
12.04.2019 17:46 8,4 C 0,0 C 10,6 C 53 % 1017,6 hPa 0,0 l/m 9,0 km/h (2 Bft) NO 36 0 min 0,000 mm 0,0 UV-I 139 W/m -0,6 C 6,5 C 12,9 km/h (3 Bft) 95,74 %
12.04.2019 17:48 8,4 C 0,0 C 10,0 C 54 % 1017,6 hPa 0,0 l/m 12,2 km/h (2 Bft) NO 48 0 min 0,000 mm 0,0 UV-I 136 W/m -0,4 C 4,6 C 14,5 km/h (3 Bft) 95,74 %
12.04.2019 17:50 8,3 C 0,0 C 10,0 C 54 % 1017,6 hPa 0,0 l/m 9,7 km/h (2 Bft) NO 46 0 min 0,000 mm 0,0 UV-I 134 W/m -0,5 C 5,9 C 11,3 km/h (2 Bft) 95,74 %
12.04.2019 17:52 8,2 C 0,0 C 10,0 C 52 % 1017,7 hPa 0,0 l/m 5,4 km/h (1 Bft) NO 46 0 min 0,000 mm 0,0 UV-I 129 W/m -1,1 C 8,2 C 9,7 km/h (2 Bft) 95,74 %
12.04.2019 17:54 8,2 C 0,0 C 9,4 C 54 % 1017,7 hPa 0,0 l/m 9,8 km/h (2 Bft) O-NO 67 0 min 0,000 mm 0,0 UV-I 126 W/m -0,5 C 5,7 C 12,9 km/h (3 Bft) 98,00 %
12.04.2019 17:56 8,2 C 0,0 C 9,4 C 53 % 1017,7 hPa 0,0 l/m 10,0 km/h (2 Bft) O-NO 61 0 min 0,000 mm 0,0 UV-I 125 W/m -0,8 C 5,6 C 16,1 km/h (3 Bft) 97,87 %
12.04.2019 17:58 8,2 C 0,0 C 9,4 C 53 % 1017,7 hPa 0,0 l/m 5,6 km/h (1 Bft) O 82 0 min 0,000 mm 0,0 UV-I 125 W/m -0,8 C 8,2 C 9,7 km/h (2 Bft) 96,00 %
12.04.2019 18:00 8,2 C 0,0 C 9,4 C 53 % 1017,7 hPa 0,0 l/m 4,9 km/h (1 Bft) NO 48 0 min 0,127 mm 0,0 UV-I 122 W/m -0,8 C 8,2 C 6,4 km/h (2 Bft) 97,87 %
12.04.2019 18:02 8,2 C 0,0 C 9,4 C 53 % 1017,7 hPa 0,0 l/m 7,8 km/h (2 Bft) NO 41 0 min 0,000 mm 0,0 UV-I 121 W/m -0,8 C 7,1 C 11,3 km/h (2 Bft) 97,44 %
12.04.2019 18:04 8,2 C 0,0 C 9,4 C 53 % 1017,7 hPa 0,0 l/m 7,5 km/h (2 Bft) O-NO 74 0 min 0,000 mm 0,0 UV-I 121 W/m -0,8 C 7,3 C 11,3 km/h (2 Bft) 97,87 %
12.04.2019 18:06 8,2 C 0,0 C 10,0 C 51 % 1017,7 hPa 0,0 l/m 5,1 km/h (1 Bft) O 100 0 min 0,000 mm 0,0 UV-I 121 W/m -1,3 C 8,2 C 6,4 km/h (2 Bft) 97,87 %
12.04.2019 18:08 8,2 C 0,0 C 9,4 C 51 % 1017,6 hPa 0,0 l/m 8,6 km/h (2 Bft) O-NO 67 0 min 0,000 mm 0,0 UV-I 120 W/m -1,3 C 6,5 C 14,5 km/h (3 Bft) 96,23 %
12.04.2019 18:10 8,2 C 0,0 C 9,4 C 52 % 1017,7 hPa 0,0 l/m 7,5 km/h (2 Bft) O 82 0 min 0,000 mm 0,0 UV-I 120 W/m -1,1 C 7,3 C 12,9 km/h (3 Bft) 100,00 %
12.04.2019 18:12 8,2 C 0,0 C 9,4 C 51 % 1017,7 hPa 0,0 l/m 8,4 km/h (2 Bft) O-NO 69 0 min 0,000 mm 0,0 UV-I 120 W/m -1,3 C 6,7 C 14,5 km/h (3 Bft) 100,00 %
12.04.2019 18:14 8,2 C 0,0 C 9,4 C 53 % 1017,6 hPa 0,0 l/m 8,6 km/h (2 Bft) O-NO 62 0 min 0,000 mm 0,0 UV-I 140 W/m -0,8 C 6,5 C 11,3 km/h (2 Bft) 100,00 %
12.04.2019 18:16 8,2 C 0,0 C 9,4 C 53 % 1017,6 hPa 0,0 l/m 6,2 km/h (2 Bft) O-NO 61 2 min 0,000 mm 0,0 UV-I 163 W/m -0,8 C 8,2 C 9,7 km/h (2 Bft) 100,00 %
12.04.2019 18:18 8,3 C 0,0 C 9,4 C 53 % 1017,6 hPa 0,0 l/m 5,1 km/h (1 Bft) NO 56 0 min 0,000 mm 0,0 UV-I 124 W/m -0,7 C 8,3 C 8,0 km/h (2 Bft) 100,00 %
12.04.2019 18:20 8,2 C 0,0 C 9,4 C 53 % 1017,6 hPa 0,0 l/m 4,5 km/h (1 Bft) NO 42 0 min 0,000 mm 0,0 UV-I 107 W/m -0,8 C 8,2 C 8,0 km/h (2 Bft) 97,87 %
12.04.2019 18:22 8,2 C 0,0 C 9,4 C 54 % 1017,7 hPa 0,0 l/m 10,2 km/h (2 Bft) NO 52 0 min 0,000 mm 0,0 UV-I 100 W/m -0,5 C 5,5 C 14,5 km/h (3 Bft) 95,74 %
12.04.2019 18:24 8,1 C 0,0 C 8,9 C 55 % 1017,6 hPa 0,0 l/m 7,0 km/h (2 Bft) NO 45 0 min 0,000 mm 0,0 UV-I 93 W/m -0,4 C 7,6 C 9,7 km/h (2 Bft) 97,37 %
12.04.2019 18:26 8,0 C 0,0 C 8,9 C 54 % 1017,7 hPa 0,0 l/m 6,6 km/h (2 Bft) NO 40 0 min 0,000 mm 0,0 UV-I 92 W/m -0,7 C 7,9 C 9,7 km/h (2 Bft) 97,87 %
12.04.2019 18:28 7,9 C 0,0 C 8,3 C 54 % 1017,7 hPa 0,0 l/m 7,0 km/h (2 Bft) NO 37 0 min 0,000 mm 0,0 UV-I 91 W/m -0,8 C 7,4 C 9,7 km/h (2 Bft) 95,74 %
12.04.2019 18:30 7,8 C 0,0 C 8,3 C 55 % 1017,7 hPa 0,0 l/m 10,1 km/h (2 Bft) NO 53 0 min 0,000 mm 0,0 UV-I 96 W/m -0,7 C 5,1 C 14,5 km/h (3 Bft) 95,74 %
12.04.2019 18:32 7,8 C 0,0 C 8,3 C 56 % 1017,7 hPa 0,0 l/m 9,0 km/h (2 Bft) NO 45 0 min 0,000 mm 0,0 UV-I 96 W/m -0,4 C 5,8 C 12,9 km/h (3 Bft) 97,87 %
12.04.2019 18:34 7,8 C 0,0 C 8,3 C 56 % 1017,7 hPa 0,0 l/m 15,5 km/h (3 Bft) NO 34 0 min 0,000 mm 0,0 UV-I 90 W/m -0,4 C 2,2 C 20,9 km/h (4 Bft) 95,74 %
12.04.2019 18:36 7,7 C 0,0 C 7,8 C 56 % 1017,7 hPa 0,0 l/m 13,1 km/h (3 Bft) NO 49 0 min 0,000 mm 0,0 UV-I 89 W/m -0,5 C 3,3 C 16,1 km/h (3 Bft) 94,87 %
12.04.2019 18:38 7,6 C 0,0 C 7,8 C 56 % 1017,7 hPa 0,0 l/m 9,1 km/h (2 Bft) NO 43 0 min 0,000 mm 0,0 UV-I 86 W/m -0,6 C 5,5 C 14,5 km/h (3 Bft) 96,72 %
12.04.2019 18:40 7,6 C 0,0 C 7,8 C 57 % 1017,8 hPa 0,0 l/m 8,8 km/h (2 Bft) NO 46 0 min 0,000 mm 0,0 UV-I 83 W/m -0,4 C 5,7 C 12,9 km/h (3 Bft) 94,00 %
12.04.2019 18:42 7,6 C 0,0 C 7,8 C 57 % 1017,7 hPa 0,0 l/m 9,2 km/h (2 Bft) NO 42 0 min 0,000 mm 0,0 UV-I 82 W/m -0,4 C 5,5 C 14,5 km/h (3 Bft) 97,87 %
12.04.2019 18:44 7,6 C 0,0 C 7,8 C 57 % 1017,8 hPa 0,0 l/m 7,1 km/h (2 Bft) NO 34 0 min 0,000 mm 0,0 UV-I 80 W/m -0,4 C 7,0 C 8,0 km/h (2 Bft) 97,87 %
12.04.2019 18:46 7,5 C 0,0 C 7,8 C 59 % 1017,8 hPa 0,0 l/m 6,6 km/h (2 Bft) NO 51 0 min 0,000 mm 0,0 UV-I 76 W/m 0,0 C 7,4 C 8,0 km/h (2 Bft) 97,87 %
12.04.2019 18:48 7,5 C 0,0 C 7,8 C 58 % 1017,8 hPa 0,0 l/m 7,4 km/h (2 Bft) NO 38 0 min 0,000 mm 0,0 UV-I 74 W/m -0,2 C 6,7 C 9,7 km/h (2 Bft) 97,22 %
12.04.2019 18:50 7,5 C 0,0 C 7,8 C 59 % 1017,8 hPa 0,0 l/m 9,0 km/h (2 Bft) NO 44 0 min 0,000 mm 0,0 UV-I 70 W/m 0,0 C 5,5 C 14,5 km/h (3 Bft) 98,00 %
12.04.2019 18:52 7,4 C 0,0 C 7,8 C 58 % 1017,9 hPa 0,0 l/m 12,8 km/h (3 Bft) NO 37 0 min 0,000 mm 0,0 UV-I 68 W/m -0,3 C 3,1 C 17,7 km/h (3 Bft) 96,00 %
12.04.2019 18:54 7,4 C 0,0 C 7,2 C 57 % 1017,9 hPa 0,0 l/m 13,0 km/h (3 Bft) NO 45 0 min 0,000 mm 0,0 UV-I 64 W/m -0,5 C 3,0 C 17,7 km/h (3 Bft) 97,87 %
12.04.2019 18:56 7,3 C 0,0 C 7,2 C 57 % 1017,9 hPa 0,0 l/m 11,9 km/h (2 Bft) NO 41 0 min 0,000 mm 0,0 UV-I 62 W/m -0,6 C 3,5 C 16,1 km/h (3 Bft) 100,00 %
12.04.2019 18:58 7,3 C 0,0 C 7,2 C 57 % 1017,9 hPa 0,0 l/m 10,4 km/h (2 Bft) NO 45 0 min 0,000 mm 0,0 UV-I 59 W/m -0,6 C 4,4 C 14,5 km/h (3 Bft) 97,87 %
12.04.2019 19:00 7,3 C 0,0 C 7,2 C 57 % 1017,9 hPa 0,0 l/m 8,4 km/h (2 Bft) NO 43 0 min 0,076 mm 0,0 UV-I 58 W/m -0,6 C 5,7 C 12,9 km/h (3 Bft) 100,00 %
12.04.2019 19:02 7,3 C 0,0 C 7,2 C 58 % 1017,9 hPa 0,0 l/m 8,2 km/h (2 Bft) NO 40 0 min 0,000 mm 0,0 UV-I 56 W/m -0,4 C 5,9 C 11,3 km/h (2 Bft) 97,87 %
12.04.2019 19:04 7,2 C 0,0 C 6,7 C 57 % 1017,9 hPa 0,0 l/m 7,6 km/h (2 Bft) NO 52 0 min 0,000 mm 0,0 UV-I 54 W/m -0,7 C 6,2 C 12,9 km/h (3 Bft) 93,62 %
12.04.2019 19:06 7,2 C 0,0 C 6,7 C 58 % 1017,9 hPa 0,0 l/m 7,0 km/h (2 Bft) NO 44 0 min 0,000 mm 0,0 UV-I 53 W/m -0,5 C 6,7 C 9,7 km/h (2 Bft) 97,87 %
12.04.2019 19:08 7,1 C 0,0 C 6,7 C 58 % 1017,9 hPa 0,0 l/m 7,8 km/h (2 Bft) O-NO 69 0 min 0,000 mm 0,0 UV-I 49 W/m -0,6 C 6,0 C 12,9 km/h (3 Bft) 100,00 %
12.04.2019 19:10 7,1 C 0,0 C 6,7 C 58 % 1018,0 hPa 0,0 l/m 9,3 km/h (2 Bft) O-NO 57 0 min 0,000 mm 0,0 UV-I 46 W/m -0,6 C 4,9 C 14,5 km/h (3 Bft) 93,62 %
12.04.2019 19:12 7,1 C 0,0 C 6,1 C 58 % 1018,0 hPa 0,0 l/m 11,1 km/h (2 Bft) O-NO 62 0 min 0,000 mm 0,0 UV-I 44 W/m -0,6 C 3,7 C 16,1 km/h (3 Bft) 91,49 %
12.04.2019 19:14 7,0 C 0,0 C 6,1 C 58 % 1018,0 hPa 0,0 l/m 10,5 km/h (2 Bft) NO 43 0 min 0,000 mm 0,0 UV-I 44 W/m -0,7 C 4,0 C 16,1 km/h (3 Bft) 93,62 %
12.04.2019 19:16 7,0 C 0,0 C 6,1 C 58 % 1018,0 hPa 0,0 l/m 10,2 km/h (2 Bft) NO 36 2 min 0,000 mm 0,0 UV-I 44 W/m -0,7 C 4,2 C 14,5 km/h (3 Bft) 92,00 %
12.04.2019 19:18 7,0 C 0,0 C 6,1 C 57 % 1018,0 hPa 0,0 l/m 9,5 km/h (2 Bft) NO 42 2 min 0,000 mm 0,0 UV-I 42 W/m -0,9 C 4,6 C 14,5 km/h (3 Bft) 92,00 %
12.04.2019 19:20 6,9 C 0,0 C 6,1 C 58 % 1018,0 hPa 0,0 l/m 7,6 km/h (2 Bft) NO 54 2 min 0,000 mm 0,0 UV-I 40 W/m -0,8 C 5,9 C 12,9 km/h (3 Bft) 95,74 %
12.04.2019 19:22 6,9 C 0,0 C 6,1 C 58 % 1018,1 hPa 0,0 l/m 6,5 km/h (2 Bft) O-NO 60 2 min 0,000 mm 0,0 UV-I 39 W/m -0,8 C 6,8 C 9,7 km/h (2 Bft) 93,75 %
12.04.2019 19:24 6,8 C 0,0 C 5,6 C 59 % 1018,1 hPa 0,0 l/m 8,5 km/h (2 Bft) NO 43 2 min 0,000 mm 0,0 UV-I 38 W/m -0,6 C 5,1 C 12,9 km/h (3 Bft) 93,62 %
12.04.2019 19:26 6,8 C 0,0 C 5,6 C 59 % 1018,1 hPa 0,0 l/m 8,1 km/h (2 Bft) N-NO 25 2 min 0,000 mm 0,0 UV-I 35 W/m -0,6 C 5,4 C 11,3 km/h (2 Bft) 93,62 %
12.04.2019 19:28 6,7 C 0,0 C 5,6 C 59 % 1018,1 hPa 0,0 l/m 7,9 km/h (2 Bft) NO 43 2 min 0,000 mm 0,0 UV-I 33 W/m -0,7 C 5,5 C 12,9 km/h (3 Bft) 95,74 %
12.04.2019 19:30 6,6 C 0,0 C 5,6 C 59 % 1018,1 hPa 0,0 l/m 7,6 km/h (2 Bft) N-NO 30 2 min 0,000 mm 0,0 UV-I 29 W/m -0,8 C 5,6 C 11,3 km/h (2 Bft) 97,87 %
12.04.2019 19:32 6,5 C 0,0 C 5,6 C 60 % 1018,2 hPa 0,0 l/m 8,5 km/h (2 Bft) N-NO 33 2 min 0,000 mm 0,0 UV-I 26 W/m -0,7 C 4,8 C 11,3 km/h (2 Bft) 97,37 %
12.04.2019 19:34 6,4 C 0,0 C 5,0 C 60 % 1018,2 hPa 0,0 l/m 9,7 km/h (2 Bft) NO 48 2 min 0,000 mm 0,0 UV-I 23 W/m -0,8 C 3,8 C 16,1 km/h (3 Bft) 94,00 %
12.04.2019 19:36 6,4 C 0,0 C 5,0 C 59 % 1018,2 hPa 0,0 l/m 13,7 km/h (3 Bft) N-NO 19 2 min 0,000 mm 0,0 UV-I 20 W/m -1,0 C 1,4 C 17,7 km/h (3 Bft) 96,00 %
12.04.2019 19:38 6,3 C 0,0 C 5,0 C 60 % 1018,2 hPa 0,0 l/m 11,1 km/h (2 Bft) NO 55 2 min 0,000 mm 0,0 UV-I 17 W/m -0,9 C 2,8 C 14,5 km/h (3 Bft) 97,87 %
12.04.2019 19:40 6,3 C 0,0 C 5,0 C 60 % 1018,3 hPa 0,0 l/m 10,3 km/h (2 Bft) NO 44 0 min 0,000 mm 0,0 UV-I 14 W/m -0,9 C 3,3 C 14,5 km/h (3 Bft) 97,87 %
12.04.2019 19:42 6,2 C 0,0 C 4,4 C 60 % 1018,2 hPa 0,0 l/m 10,1 km/h (2 Bft) N-NO 28 0 min 0,000 mm 0,0 UV-I 12 W/m -1,0 C 3,3 C 14,5 km/h (3 Bft) 97,37 %
12.04.2019 19:44 6,1 C 0,0 C 4,4 C 61 % 1018,3 hPa 0,0 l/m 11,7 km/h (2 Bft) NO 34 0 min 0,000 mm 0,0 UV-I 11 W/m -0,8 C 2,2 C 16,1 km/h (3 Bft) 97,87 %
12.04.2019 19:46 6,1 C 0,0 C 4,4 C 61 % 1018,3 hPa 0,0 l/m 8,7 km/h (2 Bft) NO 42 0 min 0,000 mm 0,0 UV-I 10 W/m -0,8 C 4,2 C 14,5 km/h (3 Bft) 91,49 %
12.04.2019 19:48 5,9 C 0,0 C 4,4 C 61 % 1018,3 hPa 0,0 l/m 10,3 km/h (2 Bft) NO 44 0 min 0,000 mm 0,0 UV-I 9 W/m -1,0 C 2,9 C 14,5 km/h (3 Bft) 97,87 %
12.04.2019 19:50 5,8 C 0,0 C 4,4 C 61 % 1018,3 hPa 0,0 l/m 11,8 km/h (2 Bft) NO 51 0 min 0,000 mm 0,0 UV-I 9 W/m -1,1 C 1,8 C 16,1 km/h (3 Bft) 98,00 %
12.04.2019 19:52 5,8 C 0,0 C 4,4 C 62 % 1018,3 hPa 0,0 l/m 11,6 km/h (2 Bft) NO 51 0 min 0,000 mm 0,0 UV-I 7 W/m -0,9 C 1,9 C 16,1 km/h (3 Bft) 97,87 %
12.04.2019 19:54 5,8 C 0,0 C 4,4 C 62 % 1018,3 hPa 0,0 l/m 11,3 km/h (2 Bft) O-NO 59 0 min 0,000 mm 0,0 UV-I 7 W/m -0,9 C 2,1 C 14,5 km/h (3 Bft) 95,74 %
12.04.2019 19:56 5,7 C 0,0 C 4,4 C 63 % 1018,3 hPa 0,0 l/m 10,1 km/h (2 Bft) NO 42 0 min 0,000 mm 0,0 UV-I 7 W/m -0,8 C 2,8 C 14,5 km/h (3 Bft) 95,74 %
12.04.2019 19:58 5,7 C 0,0 C 4,4 C 63 % 1018,4 hPa 0,0 l/m 11,0 km/h (2 Bft) NO 41 0 min 0,000 mm 0,0 UV-I 6 W/m -0,8 C 2,2 C 14,5 km/h (3 Bft) 97,92 %
12.04.2019 20:00 5,7 C 0,0 C 4,4 C 63 % 1018,4 hPa 0,0 l/m 11,6 km/h (2 Bft) NO 50 0 min 0,051 mm 0,0 UV-I 5 W/m -0,8 C 1,8 C 17,7 km/h (3 Bft) 93,88 %
12.04.2019 20:02 5,7 C 0,0 C 4,4 C 63 % 1018,4 hPa 0,0 l/m 12,8 km/h (3 Bft) NO 44 0 min 0,000 mm 0,0 UV-I 5 W/m -0,8 C 1,1 C 17,7 km/h (3 Bft) 95,83 %
12.04.2019 20:04 5,7 C 0,0 C 4,4 C 63 % 1018,4 hPa 0,0 l/m 12,2 km/h (2 Bft) N-NO 32 0 min 0,000 mm 0,0 UV-I 5 W/m -0,8 C 1,4 C 16,1 km/h (3 Bft) 96,00 %
12.04.2019 20:06 5,7 C 0,0 C 5,0 C 63 % 1018,5 hPa 0,0 l/m 11,0 km/h (2 Bft) NO 48 0 min 0,000 mm 0,0 UV-I 0 W/m -0,8 C 2,2 C 14,5 km/h (3 Bft) 94,74 %
12.04.2019 20:09 5,7 C 0,0 C 5,0 C 63 % 1018,5 hPa 0,0 l/m 11,3 km/h (2 Bft) NO 45 0 min 0,000 mm 0,0 UV-I 0 W/m -0,8 C 2,0 C 17,7 km/h (3 Bft) 98,57 %
12.04.2019 20:10 5,7 C 0,0 C 5,0 C 63 % 1018,5 hPa 0,0 l/m 14,0 km/h (3 Bft) NO 44 0 min 0,000 mm 0,0 UV-I 0 W/m -0,8 C 0,4 C 16,1 km/h (3 Bft) 100,00 %
12.04.2019 20:12 5,7 C 0,0 C 5,0 C 63 % 1018,5 hPa 0,0 l/m 13,6 km/h (3 Bft) N-NO 25 0 min 0,000 mm 0,0 UV-I 0 W/m -0,8 C 0,7 C 17,7 km/h (3 Bft) 95,74 %
12.04.2019 20:14 5,7 C 0,0 C 5,0 C 63 % 1018,6 hPa 0,0 l/m 14,1 km/h (3 Bft) NO 49 0 min 0,000 mm 0,0 UV-I 0 W/m -0,8 C 0,4 C 17,7 km/h (3 Bft) 100,00 %
12.04.2019 20:16 5,7 C 0,0 C 5,0 C 62 % 1018,6 hPa 0,0 l/m 11,0 km/h (2 Bft) NO 35 0 min 0,000 mm 0,0 UV-I 0 W/m -1,0 C 2,2 C 16,1 km/h (3 Bft) 100,00 %
12.04.2019 20:19 5,7 C 0,0 C 5,0 C 62 % 1018,7 hPa 0,0 l/m 8,5 km/h (2 Bft) N-NO 30 0 min 0,000 mm 0,0 UV-I 0 W/m -1,0 C 3,9 C 12,9 km/h (3 Bft) 100,00 %
12.04.2019 20:20 5,7 C 0,0 C 5,0 C 62 % 1018,7 hPa 0,0 l/m 8,7 km/h (2 Bft) NO 42 0 min 0,000 mm 0,0 UV-I 0 W/m -1,0 C 3,8 C 9,7 km/h (2 Bft) 100,00 %
12.04.2019 20:22 5,7 C 0,0 C 5,0 C 62 % 1018,7 hPa 0,0 l/m 9,2 km/h (2 Bft) NO 50 0 min 0,000 mm 0,0 UV-I 0 W/m -1,0 C 3,4 C 14,5 km/h (3 Bft) 97,87 %
12.04.2019 20:24 5,7 C 0,0 C 5,0 C 61 % 1018,7 hPa 0,0 l/m 8,9 km/h (2 Bft) O-NO 71 0 min 0,000 mm 0,0 UV-I 0 W/m -1,2 C 3,6 C 16,1 km/h (3 Bft) 97,87 %
12.04.2019 20:26 5,7 C 0,0 C 5,0 C 62 % 1018,8 hPa 0,0 l/m 8,3 km/h (2 Bft) O-NO 59 0 min 0,000 mm 0,0 UV-I 0 W/m -1,0 C 4,1 C 11,3 km/h (2 Bft) 95,74 %
12.04.2019 20:28 5,7 C 0,0 C 5,0 C 61 % 1018,8 hPa 0,0 l/m 8,1 km/h (2 Bft) O-NO 61 0 min 0,000 mm 0,0 UV-I 0 W/m -1,2 C 4,3 C 14,5 km/h (3 Bft) 94,74 %
12.04.2019 20:30 5,8 C 0,0 C 5,0 C 61 % 1018,8 hPa 0,0 l/m 7,1 km/h (2 Bft) N-NO 22 0 min 0,000 mm 0,0 UV-I 0 W/m -1,1 C 5,2 C 16,1 km/h (3 Bft) 95,74 %
12.04.2019 20:32 5,8 C 0,0 C 5,0 C 61 % 1018,8 hPa 0,0 l/m 8,0 km/h (2 Bft) N-NO 32 0 min 0,000 mm 0,0 UV-I 0 W/m -1,1 C 4,4 C 11,3 km/h (2 Bft) 88,68 %
12.04.2019 20:34 5,8 C 0,0 C 5,0 C 61 % 1018,8 hPa 0,0 l/m 9,6 km/h (2 Bft) NO 35 0 min 0,000 mm 0,0 UV-I 0 W/m -1,1 C 3,2 C 16,1 km/h (3 Bft) 96,00 %
12.04.2019 20:36 5,8 C 0,0 C 5,0 C 60 % 1018,8 hPa 0,0 l/m 10,7 km/h (2 Bft) NO 38 0 min 0,000 mm 0,0 UV-I 0 W/m -1,4 C 2,5 C 14,5 km/h (3 Bft) 94,87 %
12.04.2019 20:38 5,8 C 0,0 C 5,0 C 60 % 1018,8 hPa 0,0 l/m 10,2 km/h (2 Bft) O-NO 61 0 min 0,000 mm 0,0 UV-I 0 W/m -1,4 C 2,8 C 16,1 km/h (3 Bft) 95,74 %
12.04.2019 20:40 5,8 C 0,0 C 5,0 C 60 % 1018,8 hPa 0,0 l/m 11,2 km/h (2 Bft) NO 55 0 min 0,000 mm 0,0 UV-I 0 W/m -1,4 C 2,2 C 17,7 km/h (3 Bft) 93,62 %
12.04.2019 20:42 5,8 C 0,0 C 5,0 C 60 % 1018,9 hPa 0,0 l/m 9,4 km/h (2 Bft) NO 50 0 min 0,000 mm 0,0 UV-I 0 W/m -1,4 C 3,4 C 14,5 km/h (3 Bft) 93,62 %
12.04.2019 20:44 5,7 C 0,0 C 5,0 C 61 % 1018,9 hPa 0,0 l/m 11,6 km/h (2 Bft) N-NO 33 0 min 0,000 mm 0,0 UV-I 0 W/m -1,2 C 1,8 C 17,7 km/h (3 Bft) 93,62 %
12.04.2019 20:46 5,7 C 0,0 C 5,0 C 60 % 1018,9 hPa 0,0 l/m 12,6 km/h (3 Bft) NO 51 0 min 0,000 mm 0,0 UV-I 0 W/m -1,4 C 1,2 C 16,1 km/h (3 Bft) 93,62 %
12.04.2019 20:49 5,7 C 0,0 C 5,0 C 60 % 1018,9 hPa 0,0 l/m 7,7 km/h (2 Bft) NO 53 0 min 0,000 mm 0,0 UV-I 0 W/m -1,4 C 4,6 C 12,9 km/h (3 Bft) 95,71 %
12.04.2019 20:50 5,7 C 0,0 C 5,0 C 60 % 1018,9 hPa 0,0 l/m 9,2 km/h (2 Bft) O-NO 65 0 min 0,000 mm 0,0 UV-I 0 W/m -1,4 C 3,4 C 14,5 km/h (3 Bft) 95,83 %
12.04.2019 20:52 5,6 C 0,0 C 4,4 C 61 % 1018,9 hPa 0,0 l/m 10,0 km/h (2 Bft) O-NO 72 0 min 0,000 mm 0,0 UV-I 0 W/m -1,3 C 2,7 C 16,1 km/h (3 Bft) 97,87 %
12.04.2019 20:54 5,6 C 0,0 C 4,4 C 61 % 1018,9 hPa 0,0 l/m 9,6 km/h (2 Bft) NO 42 0 min 0,000 mm 0,0 UV-I 0 W/m -1,3 C 3,0 C 14,5 km/h (3 Bft) 95,74 %
12.04.2019 20:56 5,4 C 0,0 C 4,4 C 62 % 1018,9 hPa 0,0 l/m 8,4 km/h (2 Bft) NO 43 0 min 0,000 mm 0,0 UV-I 0 W/m -1,3 C 3,7 C 9,7 km/h (2 Bft) 97,87 %
12.04.2019 20:59 5,3 C 0,0 C 3,9 C 62 % 1019,0 hPa 0,0 l/m 7,0 km/h (2 Bft) NO 45 0 min 0,000 mm 0,0 UV-I 0 W/m -1,4 C 4,8 C 9,7 km/h (2 Bft) 100,00 %
12.04.2019 21:00 5,3 C 0,0 C 3,9 C 62 % 1019,0 hPa 0,0 l/m 5,2 km/h (1 Bft) NO 48 0 min 0,000 mm 0,0 UV-I 0 W/m -1,4 C 5,3 C 6,4 km/h (2 Bft) 100,00 %
12.04.2019 21:02 5,3 C 0,0 C 3,9 C 63 % 1019,0 hPa 0,0 l/m 7,2 km/h (2 Bft) O-NO 68 0 min 0,050 mm 0,0 UV-I 0 W/m -1,2 C 4,6 C 9,7 km/h (2 Bft) 97,87 %
12.04.2019 21:04 5,3 C 0,0 C 4,4 C 63 % 1019,0 hPa 0,0 l/m 8,6 km/h (2 Bft) NO 42 0 min 0,000 mm 0,0 UV-I 0 W/m -1,2 C 3,4 C 12,9 km/h (3 Bft) 100,00 %
12.04.2019 21:06 5,3 C 0,0 C 4,4 C 62 % 1019,0 hPa 0,0 l/m 11,6 km/h (2 Bft) NO 52 0 min 0,000 mm 0,0 UV-I 0 W/m -1,4 C 1,3 C 16,1 km/h (3 Bft) 100,00 %
12.04.2019 21:08 5,3 C 0,0 C 4,4 C 62 % 1019,0 hPa 0,0 l/m 10,2 km/h (2 Bft) NO 46 0 min 0,000 mm 0,0 UV-I 0 W/m -1,4 C 2,3 C 14,5 km/h (3 Bft) 100,00 %
12.04.2019 21:10 5,3 C 0,0 C 4,4 C 62 % 1019,0 hPa 0,0 l/m 10,5 km/h (2 Bft) N-NO 32 0 min 0,000 mm 0,0 UV-I 0 W/m -1,4 C 2,1 C 14,5 km/h (3 Bft) 100,00 %
12.04.2019 21:12 5,3 C 0,0 C 4,4 C 61 % 1019,0 hPa 0,0 l/m 11,6 km/h (2 Bft) NO 51 0 min 0,000 mm 0,0 UV-I 0 W/m -1,6 C 1,3 C 19,3 km/h (3 Bft) 100,00 %
12.04.2019 21:14 5,3 C 0,0 C 4,4 C 61 % 1019,0 hPa 0,0 l/m 10,5 km/h (2 Bft) NO 52 0 min 0,000 mm 0,0 UV-I 0 W/m -1,6 C 2,1 C 16,1 km/h (3 Bft) 100,00 %
12.04.2019 21:16 5,3 C 0,0 C 4,4 C 61 % 1019,0 hPa 0,0 l/m 9,3 km/h (2 Bft) NO 38 0 min 0,000 mm 0,0 UV-I 0 W/m -1,6 C 2,9 C 14,5 km/h (3 Bft) 100,00 %
12.04.2019 21:18 5,3 C 0,0 C 4,4 C 61 % 1019,0 hPa 0,0 l/m 10,9 km/h (2 Bft) NO 43 0 min 0,000 mm 0,0 UV-I 0 W/m -1,6 C 1,8 C 19,3 km/h (3 Bft) 100,00 %
12.04.2019 21:20 5,3 C 0,0 C 4,4 C 62 % 1019,0 hPa 0,0 l/m 9,3 km/h (2 Bft) NO 48 0 min 0,000 mm 0,0 UV-I 0 W/m -1,4 C 2,9 C 14,5 km/h (3 Bft) 93,62 %
12.04.2019 21:22 5,2 C 0,0 C 4,4 C 62 % 1019,0 hPa 0,0 l/m 11,2 km/h (2 Bft) NO 44 0 min 0,000 mm 0,0 UV-I 0 W/m -1,5 C 1,5 C 16,1 km/h (3 Bft) 100,00 %
12.04.2019 21:24 5,2 C 0,0 C 4,4 C 62 % 1019,0 hPa 0,0 l/m 11,8 km/h (2 Bft) NO 43 0 min 0,000 mm 0,0 UV-I 0 W/m -1,5 C 1,1 C 17,7 km/h (3 Bft) 97,87 %
12.04.2019 21:26 5,2 C 0,0 C 3,9 C 62 % 1019,1 hPa 0,0 l/m 10,4 km/h (2 Bft) NO 35 0 min 0,000 mm 0,0 UV-I 0 W/m -1,5 C 2,0 C 14,5 km/h (3 Bft) 100,00 %
12.04.2019 21:28 5,1 C 0,0 C 3,9 C 62 % 1019,0 hPa 0,0 l/m 9,5 km/h (2 Bft) NO 53 0 min 0,000 mm 0,0 UV-I 0 W/m -1,6 C 2,5 C 14,5 km/h (3 Bft) 100,00 %
12.04.2019 21:30 5,1 C 0,0 C 3,9 C 63 % 1019,1 hPa 0,0 l/m 10,0 km/h (2 Bft) NO 48 0 min 0,000 mm 0,0 UV-I 0 W/m -1,4 C 2,2 C 14,5 km/h (3 Bft) 100,00 %
12.04.2019 21:32 5,0 C 0,0 C 3,3 C 63 % 1019,1 hPa 0,0 l/m 8,3 km/h (2 Bft) NO 39 0 min 0,000 mm 0,0 UV-I 0 W/m -1,4 C 3,4 C 12,9 km/h (3 Bft) 97,87 %
12.04.2019 21:34 4,9 C 0,0 C 3,3 C 63 % 1019,1 hPa 0,0 l/m 10,1 km/h (2 Bft) NO 51 0 min 0,000 mm 0,0 UV-I 0 W/m -1,5 C 1,9 C 14,5 km/h (3 Bft) 100,00 %
12.04.2019 21:36 4,9 C 0,0 C 3,3 C 63 % 1019,1 hPa 0,0 l/m 9,3 km/h (2 Bft) O-NO 61 0 min 0,000 mm 0,0 UV-I 0 W/m -1,5 C 2,5 C 12,9 km/h (3 Bft) 100,00 %
12.04.2019 21:38 4,8 C 0,0 C 3,3 C 63 % 1019,1 hPa 0,0 l/m 8,0 km/h (2 Bft) O-NO 61 0 min 0,000 mm 0,0 UV-I 0 W/m -1,6 C 3,4 C 12,9 km/h (3 Bft) 100,00 %
12.04.2019 21:40 4,8 C 0,0 C 3,3 C 64 % 1019,1 hPa 0,0 l/m 8,1 km/h (2 Bft) O-NO 57 0 min 0,000 mm 0,0 UV-I 0 W/m -1,4 C 3,3 C 14,5 km/h (3 Bft) 97,87 %
12.04.2019 21:42 4,7 C 0,0 C 2,8 C 64 % 1019,1 hPa 0,0 l/m 7,7 km/h (2 Bft) NO 49 0 min 0,000 mm 0,0 UV-I 0 W/m -1,5 C 3,5 C 12,9 km/h (3 Bft) 95,74 %
12.04.2019 21:44 4,6 C 0,0 C 2,8 C 64 % 1019,1 hPa 0,0 l/m 7,4 km/h (2 Bft) O-NO 62 0 min 0,000 mm 0,0 UV-I 0 W/m -1,6 C 3,7 C 9,7 km/h (2 Bft) 95,74 %
12.04.2019 21:46 4,6 C 0,0 C 2,8 C 65 % 1019,1 hPa 0,0 l/m 7,4 km/h (2 Bft) O-NO 67 0 min 0,000 mm 0,0 UV-I 0 W/m -1,4 C 3,7 C 11,3 km/h (2 Bft) 97,87 %
12.04.2019 21:48 4,5 C 0,0 C 2,2 C 65 % 1019,1 hPa 0,0 l/m 8,1 km/h (2 Bft) O-NO 71 0 min 0,000 mm 0,0 UV-I 0 W/m -1,5 C 3,0 C 14,5 km/h (3 Bft) 97,87 %
12.04.2019 21:50 4,5 C 0,0 C 1,7 C 65 % 1019,2 hPa 0,0 l/m 7,4 km/h (2 Bft) O-NO 62 0 min 0,000 mm 0,0 UV-I 0 W/m -1,5 C 3,6 C 12,9 km/h (3 Bft) 97,87 %
12.04.2019 21:52 4,5 C 0,0 C 1,7 C 65 % 1019,1 hPa 0,0 l/m 5,7 km/h (1 Bft) O-NO 61 0 min 0,000 mm 0,0 UV-I 0 W/m -1,5 C 4,5 C 8,0 km/h (2 Bft) 97,22 %
12.04.2019 21:54 4,5 C 0,0 C 1,1 C 65 % 1019,2 hPa 0,0 l/m 5,5 km/h (1 Bft) O-NO 74 0 min 0,000 mm 0,0 UV-I 0 W/m -1,5 C 4,5 C 8,0 km/h (2 Bft) 98,00 %
12.04.2019 21:56 4,5 C 0,0 C 1,1 C 65 % 1019,2 hPa 0,0 l/m 4,6 km/h (1 Bft) O-NO 61 0 min 0,000 mm 0,0 UV-I 0 W/m -1,5 C 4,5 C 8,0 km/h (2 Bft) 93,62 %
12.04.2019 21:58 4,4 C 0,0 C 0,6 C 65 % 1019,2 hPa 0,0 l/m 4,8 km/h (1 Bft) O-NO 74 0 min 0,000 mm 0,0 UV-I 0 W/m -1,6 C 4,4 C 6,4 km/h (2 Bft) 98,00 %
12.04.2019 22:00 4,4 C 0,0 C 0,6 C 65 % 1019,2 hPa 0,0 l/m 5,2 km/h (1 Bft) O-NO 69 0 min 0,026 mm 0,0 UV-I 0 W/m -1,6 C 4,4 C 8,0 km/h (2 Bft) 93,62 %
12.04.2019 22:02 4,4 C 0,0 C 0,6 C 65 % 1019,2 hPa 0,0 l/m 5,8 km/h (2 Bft) O-NO 68 0 min 0,000 mm 0,0 UV-I 0 W/m -1,6 C 4,4 C 8,0 km/h (2 Bft) 93,62 %
12.04.2019 22:04 4,5 C 0,0 C 1,1 C 65 % 1019,2 hPa 0,0 l/m 5,9 km/h (2 Bft) O-NO 69 0 min 0,000 mm 0,0 UV-I 0 W/m -1,5 C 4,5 C 8,0 km/h (2 Bft) 98,00 %
12.04.2019 22:06 4,5 C 0,0 C 1,1 C 65 % 1019,2 hPa 0,0 l/m 6,1 km/h (2 Bft) O 79 0 min 0,000 mm 0,0 UV-I 0 W/m -1,5 C 4,5 C 9,7 km/h (2 Bft) 97,87 %
12.04.2019 22:08 4,4 C 0,0 C 1,1 C 65 % 1019,2 hPa 0,0 l/m 6,0 km/h (2 Bft) O 85 0 min 0,000 mm 0,0 UV-I 0 W/m -1,6 C 4,4 C 9,7 km/h (2 Bft) 100,00 %
12.04.2019 22:10 4,3 C 0,0 C 1,1 C 66 % 1019,2 hPa 0,0 l/m 6,3 km/h (2 Bft) O 96 0 min 0,000 mm 0,0 UV-I 0 W/m -1,5 C 4,3 C 9,7 km/h (2 Bft) 100,00 %
12.04.2019 22:12 4,1 C 0,0 C 1,1 C 67 % 1019,2 hPa 0,0 l/m 4,8 km/h (1 Bft) O-SO 105 0 min 0,000 mm 0,0 UV-I 0 W/m -1,5 C 4,1 C 6,4 km/h (2 Bft) 100,00 %
12.04.2019 22:14 3,9 C 0,0 C 1,1 C 68 % 1019,2 hPa 0,0 l/m 4,9 km/h (1 Bft) O-SO 116 0 min 0,000 mm 0,0 UV-I 0 W/m -1,5 C 3,9 C 9,7 km/h (2 Bft) 100,00 %
12.04.2019 22:16 3,8 C 0,0 C 1,1 C 69 % 1019,2 hPa 0,0 l/m 4,8 km/h (1 Bft) SO 126 0 min 0,000 mm 0,0 UV-I 0 W/m -1,4 C 3,8 C 6,4 km/h (2 Bft) 100,00 %
12.04.2019 22:18 3,7 C 0,0 C 1,1 C 70 % 1019,2 hPa 0,0 l/m 5,1 km/h (1 Bft) O-SO 123 0 min 0,000 mm 0,0 UV-I 0 W/m -1,3 C 3,7 C 8,0 km/h (2 Bft) 98,00 %
12.04.2019 22:20 3,8 C 0,0 C 1,1 C 69 % 1019,2 hPa 0,0 l/m 5,2 km/h (1 Bft) O-SO 121 0 min 0,000 mm 0,0 UV-I 0 W/m -1,4 C 3,8 C 8,0 km/h (2 Bft) 100,00 %
12.04.2019 22:22 3,8 C 0,0 C 1,7 C 69 % 1019,2 hPa 0,0 l/m 4,5 km/h (1 Bft) O-SO 121 0 min 0,000 mm 0,0 UV-I 0 W/m -1,4 C 3,8 C 6,4 km/h (2 Bft) 97,87 %
12.04.2019 22:24 3,8 C 0,0 C 1,7 C 70 % 1019,2 hPa 0,0 l/m 3,6 km/h (1 Bft) O-SO 121 0 min 0,000 mm 0,0 UV-I 0 W/m -1,2 C 3,8 C 4,8 km/h (1 Bft) 100,00 %
12.04.2019 22:26 3,7 C 0,0 C 1,7 C 71 % 1019,2 hPa 0,0 l/m 3,3 km/h (1 Bft) O-SO 123 0 min 0,000 mm 0,0 UV-I 0 W/m -1,1 C 3,7 C 6,4 km/h (2 Bft) 100,00 %
12.04.2019 22:28 3,8 C 0,0 C 1,7 C 71 % 1019,2 hPa 0,0 l/m 5,1 km/h (1 Bft) O 99 0 min 0,000 mm 0,0 UV-I 0 W/m -1,0 C 3,8 C 6,4 km/h (2 Bft) 100,00 %
12.04.2019 22:30 4,0 C 0,0 C 1,7 C 69 % 1019,2 hPa 0,0 l/m 5,2 km/h (1 Bft) O 99 0 min 0,000 mm 0,0 UV-I 0 W/m -1,2 C 4,0 C 8,0 km/h (2 Bft) 100,00 %
12.04.2019 22:32 4,2 C 0,0 C 1,7 C 69 % 1019,2 hPa 0,0 l/m 3,7 km/h (1 Bft) O-SO 122 0 min 0,000 mm 0,0 UV-I 0 W/m -1,0 C 4,2 C 6,4 km/h (2 Bft) 97,87 %
12.04.2019 22:34 4,2 C 0,0 C 1,7 C 68 % 1019,2 hPa 0,0 l/m 4,1 km/h (1 Bft) O 96 0 min 0,000 mm 0,0 UV-I 0 W/m -1,2 C 4,2 C 6,4 km/h (2 Bft) 96,00 %
12.04.2019 22:36 4,3 C 0,0 C 2,2 C 67 % 1019,2 hPa 0,0 l/m 4,8 km/h (1 Bft) O 92 0 min 0,000 mm 0,0 UV-I 0 W/m -1,3 C 4,3 C 6,4 km/h (2 Bft) 95,74 %
12.04.2019 22:38 4,3 C 0,0 C 2,2 C 67 % 1019,2 hPa 0,0 l/m 3,9 km/h (1 Bft) O-SO 102 0 min 0,000 mm 0,0 UV-I 0 W/m -1,3 C 4,3 C 6,4 km/h (2 Bft) 95,74 %
12.04.2019 22:40 4,2 C 0,0 C 2,2 C 67 % 1019,2 hPa 0,0 l/m 3,6 km/h (1 Bft) O-SO 102 0 min 0,000 mm 0,0 UV-I 0 W/m -1,4 C 4,2 C 4,8 km/h (1 Bft) 91,49 %
12.04.2019 22:42 4,2 C 0,0 C 2,2 C 68 % 1019,2 hPa 0,0 l/m 3,2 km/h (1 Bft) O-SO 102 0 min 0,000 mm 0,0 UV-I 0 W/m -1,2 C 4,2 C 4,8 km/h (1 Bft) 91,49 %
12.04.2019 22:44 4,2 C 0,0 C 2,2 C 68 % 1019,2 hPa 0,0 l/m 3,6 km/h (1 Bft) O-SO 102 0 min 0,000 mm 0,0 UV-I 0 W/m -1,2 C 4,2 C 6,4 km/h (2 Bft) 95,74 %
12.04.2019 22:46 4,2 C 0,0 C 2,2 C 68 % 1019,2 hPa 0,0 l/m 3,2 km/h (1 Bft) O-SO 103 0 min 0,000 mm 0,0 UV-I 0 W/m -1,2 C 4,2 C 4,8 km/h (1 Bft) 97,87 %
12.04.2019 22:48 4,2 C 0,0 C 2,2 C 69 % 1019,2 hPa 0,0 l/m 3,0 km/h (1 Bft) O-SO 103 0 min 0,000 mm 0,0 UV-I 0 W/m -1,0 C 4,2 C 4,8 km/h (1 Bft) 95,74 %
12.04.2019 22:50 4,1 C 0,0 C 2,2 C 69 % 1019,2 hPa 0,0 l/m 3,3 km/h (1 Bft) O-SO 103 0 min 0,000 mm 0,0 UV-I 0 W/m -1,1 C 4,1 C 4,8 km/h (1 Bft) 94,00 %
12.04.2019 22:52 4,1 C 0,0 C 2,2 C 69 % 1019,2 hPa 0,0 l/m 3,6 km/h (1 Bft) O-SO 105 0 min 0,000 mm 0,0 UV-I 0 W/m -1,1 C 4,1 C 4,8 km/h (1 Bft) 94,74 %
12.04.2019 22:54 4,0 C 0,0 C 2,2 C 70 % 1019,2 hPa 0,0 l/m 4,1 km/h (1 Bft) SO 126 0 min 0,000 mm 0,0 UV-I 0 W/m -1,0 C 4,0 C 6,4 km/h (2 Bft) 95,74 %
12.04.2019 22:56 4,0 C 0,0 C 2,2 C 70 % 1019,2 hPa 0,0 l/m 3,6 km/h (1 Bft) O 100 0 min 0,000 mm 0,0 UV-I 0 W/m -1,0 C 4,0 C 6,4 km/h (2 Bft) 93,62 %
12.04.2019 22:58 3,9 C 0,0 C 2,8 C 71 % 1019,2 hPa 0,0 l/m 3,2 km/h (1 Bft) O-SO 107 0 min 0,000 mm 0,0 UV-I 0 W/m -0,9 C 3,9 C 4,8 km/h (1 Bft) 95,74 %
12.04.2019 23:00 3,8 C 0,0 C 2,8 C 71 % 1019,2 hPa 0,0 l/m 3,8 km/h (1 Bft) O-SO 103 0 min 0,000 mm 0,0 UV-I 0 W/m -1,0 C 3,8 C 6,4 km/h (2 Bft) 93,62 %
12.04.2019 23:02 3,8 C 0,0 C 2,8 C 71 % 1019,3 hPa 0,0 l/m 3,0 km/h (1 Bft) O-SO 104 0 min 0,025 mm 0,0 UV-I 0 W/m -1,0 C 3,8 C 4,8 km/h (1 Bft) 87,23 %
12.04.2019 23:04 3,8 C 0,0 C 2,8 C 72 % 1019,3 hPa 0,0 l/m 4,1 km/h (1 Bft) SO 124 0 min 0,000 mm 0,0 UV-I 0 W/m -0,8 C 3,8 C 8,0 km/h (2 Bft) 93,75 %
12.04.2019 23:06 3,8 C 0,0 C 2,8 C 71 % 1019,3 hPa 0,0 l/m 4,2 km/h (1 Bft) SO 124 0 min 0,000 mm 0,0 UV-I 0 W/m -1,0 C 3,8 C 6,4 km/h (2 Bft) 94,00 %
12.04.2019 23:08 3,8 C 0,0 C 2,8 C 72 % 1019,3 hPa 0,0 l/m 4,7 km/h (1 Bft) O 101 0 min 0,000 mm 0,0 UV-I 0 W/m -0,8 C 3,8 C 9,7 km/h (2 Bft) 93,62 %
12.04.2019 23:10 3,8 C 0,0 C 2,8 C 72 % 1019,3 hPa 0,0 l/m 4,9 km/h (1 Bft) O-SO 110 0 min 0,000 mm 0,0 UV-I 0 W/m -0,8 C 3,8 C 9,7 km/h (2 Bft) 95,74 %
12.04.2019 23:12 3,9 C 0,0 C 2,8 C 71 % 1019,3 hPa 0,0 l/m 4,2 km/h (1 Bft) SO 131 0 min 0,000 mm 0,0 UV-I 0 W/m -0,9 C 3,9 C 11,3 km/h (2 Bft) 95,74 %
12.04.2019 23:14 4,0 C 0,0 C 3,3 C 70 % 1019,3 hPa 0,0 l/m 8,5 km/h (2 Bft) O-SO 120 0 min 0,000 mm 0,0 UV-I 0 W/m -1,0 C 2,1 C 12,9 km/h (3 Bft) 97,87 %
12.04.2019 23:16 4,2 C 0,0 C 3,3 C 69 % 1019,3 hPa 0,0 l/m 7,2 km/h (2 Bft) O-SO 105 0 min 0,000 mm 0,0 UV-I 0 W/m -1,0 C 3,5 C 11,3 km/h (2 Bft) 87,23 %
12.04.2019 23:18 4,2 C 0,0 C 3,3 C 69 % 1019,4 hPa 0,0 l/m 6,7 km/h (2 Bft) O 101 0 min 0,000 mm 0,0 UV-I 0 W/m -1,0 C 3,9 C 11,3 km/h (2 Bft) 91,49 %
12.04.2019 23:20 4,2 C 0,0 C 3,3 C 69 % 1019,4 hPa 0,0 l/m 7,4 km/h (2 Bft) O-SO 108 0 min 0,000 mm 0,0 UV-I 0 W/m -1,0 C 3,3 C 12,9 km/h (3 Bft) 97,87 %
12.04.2019 23:22 4,3 C 0,0 C 3,3 C 68 % 1019,4 hPa 0,0 l/m 7,3 km/h (2 Bft) O-SO 106 0 min 0,000 mm 0,0 UV-I 0 W/m -1,1 C 3,5 C 12,9 km/h (3 Bft) 95,74 %
12.04.2019 23:24 4,3 C 0,0 C 3,3 C 68 % 1019,4 hPa 0,0 l/m 7,3 km/h (2 Bft) O-SO 107 0 min 0,000 mm 0,0 UV-I 0 W/m -1,1 C 3,5 C 12,9 km/h (3 Bft) 93,62 %
12.04.2019 23:26 4,4 C 0,0 C 3,3 C 68 % 1019,3 hPa 0,0 l/m 5,5 km/h (1 Bft) O 81 0 min 0,000 mm 0,0 UV-I 0 W/m -1,0 C 4,4 C 9,7 km/h (2 Bft) 93,62 %
12.04.2019 23:28 4,4 C 0,0 C 3,3 C 68 % 1019,3 hPa 0,0 l/m 5,8 km/h (2 Bft) O-SO 104 0 min 0,000 mm 0,0 UV-I 0 W/m -1,0 C 4,4 C 12,9 km/h (3 Bft) 97,56 %
12.04.2019 23:30 4,4 C 0,0 C 3,3 C 68 % 1019,4 hPa 0,0 l/m 4,7 km/h (1 Bft) O 98 0 min 0,000 mm 0,0 UV-I 0 W/m -1,0 C 4,4 C 9,7 km/h (2 Bft) 97,87 %
12.04.2019 23:32 4,4 C 0,0 C 3,3 C 68 % 1019,3 hPa 0,0 l/m 4,0 km/h (1 Bft) O-NO 63 0 min 0,000 mm 0,0 UV-I 0 W/m -1,0 C 4,4 C 6,4 km/h (2 Bft) 95,74 %
12.04.2019 23:34 4,3 C 0,0 C 3,3 C 68 % 1019,4 hPa 0,0 l/m 4,7 km/h (1 Bft) O-NO 76 0 min 0,000 mm 0,0 UV-I 0 W/m -1,1 C 4,3 C 8,0 km/h (2 Bft) 97,87 %
12.04.2019 23:36 4,3 C 0,0 C 3,3 C 69 % 1019,4 hPa 0,0 l/m 4,5 km/h (1 Bft) O 93 0 min 0,000 mm 0,0 UV-I 0 W/m -0,9 C 4,3 C 9,7 km/h (2 Bft) 95,74 %
12.04.2019 23:38 4,2 C 0,0 C 3,3 C 70 % 1019,4 hPa 0,0 l/m 2,9 km/h (1 Bft) O 93 0 min 0,000 mm 0,0 UV-I 0 W/m -0,8 C 4,2 C 4,8 km/h (1 Bft) 97,87 %
12.04.2019 23:40 4,1 C 0,0 C 3,3 C 71 % 1019,4 hPa 0,0 l/m 2,3 km/h (1 Bft) O 93 0 min 0,000 mm 0,0 UV-I 0 W/m -0,7 C 4,1 C 3,2 km/h (1 Bft) 97,87 %
12.04.2019 23:42 4,1 C 0,0 C 3,3 C 72 % 1019,5 hPa 0,0 l/m 1,9 km/h (1 Bft) O 93 0 min 0,000 mm 0,0 UV-I 0 W/m -0,5 C 4,1 C 3,2 km/h (1 Bft) 100,00 %
12.04.2019 23:44 4,0 C 0,0 C 3,3 C 72 % 1019,4 hPa 0,0 l/m 2,8 km/h (1 Bft) O 92 0 min 0,000 mm 0,0 UV-I 0 W/m -0,6 C 4,0 C 4,8 km/h (1 Bft) 100,00 %
12.04.2019 23:46 4,0 C 0,0 C 3,3 C 72 % 1019,4 hPa 0,0 l/m 3,6 km/h (1 Bft) O 92 0 min 0,000 mm 0,0 UV-I 0 W/m -0,6 C 4,0 C 4,8 km/h (1 Bft) 100,00 %
12.04.2019 23:48 4,0 C 0,0 C 3,3 C 72 % 1019,4 hPa 0,0 l/m 3,6 km/h (1 Bft) O-NO 65 0 min 0,000 mm 0,0 UV-I 0 W/m -0,6 C 4,0 C 6,4 km/h (2 Bft) 94,00 %
12.04.2019 23:50 4,1 C 0,0 C 3,3 C 71 % 1019,4 hPa 0,0 l/m 2,3 km/h (1 Bft) O-NO 64 0 min 0,000 mm 0,0 UV-I 0 W/m -0,7 C 4,1 C 3,2 km/h (1 Bft) 100,00 %
12.04.2019 23:52 4,1 C 0,0 C 3,3 C 71 % 1019,4 hPa 0,0 l/m 3,1 km/h (1 Bft) O-NO 64 0 min 0,000 mm 0,0 UV-I 0 W/m -0,7 C 4,1 C 4,8 km/h (1 Bft) 100,00 %
12.04.2019 23:54 4,1 C 0,0 C 3,3 C 71 % 1019,4 hPa 0,0 l/m 3,1 km/h (1 Bft) O-NO 64 0 min 0,000 mm 0,0 UV-I 0 W/m -0,7 C 4,1 C 4,8 km/h (1 Bft) 100,00 %
12.04.2019 23:56 4,1 C 0,0 C 3,3 C 71 % 1019,4 hPa 0,0 l/m 2,9 km/h (1 Bft) O-NO 62 0 min 0,000 mm 0,0 UV-I 0 W/m -0,7 C 4,1 C 4,8 km/h (1 Bft) 100,00 %
12.04.2019 23:59 4,1 C 0,0 C 3,3 C 71 % 1019,4 hPa 0,0 l/m 3,1 km/h (1 Bft) O-NO 62 0 min 0,000 mm 0,0 UV-I 0 W/m -0,7 C 4,1 C 4,8 km/h (1 Bft) 94,52 %
_ Min-Zeit 06:36 00:00 21:58 14:16 15:38 - 23:42 - - - - - - 06:36 05:44 23:40 23:02
Minimum _ 2,4 C 0,0 C 0,6 C 48 % 1017,6 hPa - 1,9 km/h (1 Bft) - - - - - - -1,9 C -3,7 C 3,2 km/h (1 Bft) 87,23 %
_ Max-Zeit 14:12 00:00 14:06 04:20 23:42 00:00 00:00 - - 09:59 14:00 12:42 13:58 13:10 14:46 05:46 00:00
Maximum _ 10,2 C 0,0 C 27,8 C 76 % 1019,5 hPa 0,0 l/m 17,0 km/h
N-NO (3 Bft)
- - 3 min 0,406 mm 3,2 UV-I 951 W/m 2,0 C 9,3 C 25,7 km/h
O-NO (4 Bft)
100,00 %
Durchschnitt _ 5,8 C 0,0 C 9,0 C 64 % 1018,5 hPa #0,0 l/m 9,7 km/h (2 Bft) NO - #7:38 h #2,870 mm 1,8 UV-I 353 W/m -0,6 C 3,1 C 14,6 km/h (3 Bft) 96,84 %